<?xml version="1.0" encoding="UTF-8" standalone="no" ?>
<gpx xmlns="http://www.topografix.com/GPX/1/1" xmlns:xsi="http://www.w3.org/2001/XMLSchema-instance" xsi:schemaLocation="http://www.topografix.com/GPX/1/1 http://www.topografix.com/GPX/1/1/gpx.xsd" version="1.1" creator="VisuGPX - https://www.visugpx.com">
  <metadata>
    <name>Combe à Marion-Coillu à Bordel</name>
    <desc><![CDATA[Marion-Coillu à Bordel]]></desc>
  </metadata>
  <trk>
    <name><![CDATA[Combe à Marion-Coillu à Bordel_1]]></name>
    <trkseg>
      <trkpt lat="45.88009" lon="6.44433">
        <ele>1303.400024</ele>
        <time>2013-02-19T08:47:12Z</time>
      </trkpt>
      <trkpt lat="45.88005" lon="6.44445">
        <ele>1311.599975</ele>
        <time>2013-02-19T08:49:58Z</time>
      </trkpt>
      <trkpt lat="45.88005" lon="6.44445">
        <ele>1311.699951</ele>
        <time>2013-02-19T08:49:59Z</time>
      </trkpt>
      <trkpt lat="45.8799" lon="6.44456">
        <ele>1314.6</ele>
        <time>2013-02-19T08:50:54Z</time>
      </trkpt>
      <trkpt lat="45.87983" lon="6.44462">
        <ele>1316.5</ele>
        <time>2013-02-19T08:51:04Z</time>
      </trkpt>
      <trkpt lat="45.87982" lon="6.44463">
        <ele>1316.6</ele>
        <time>2013-02-19T08:51:05Z</time>
      </trkpt>
      <trkpt lat="45.8797" lon="6.44476">
        <ele>1318.5</ele>
        <time>2013-02-19T08:51:22Z</time>
      </trkpt>
      <trkpt lat="45.87965" lon="6.44485">
        <ele>1321</ele>
        <time>2013-02-19T08:51:31Z</time>
      </trkpt>
      <trkpt lat="45.8796" lon="6.44496">
        <ele>1322.6</ele>
        <time>2013-02-19T08:51:40Z</time>
      </trkpt>
      <trkpt lat="45.87956" lon="6.44506">
        <ele>1323.8</ele>
        <time>2013-02-19T08:51:49Z</time>
      </trkpt>
      <trkpt lat="45.87951" lon="6.44517">
        <ele>1324.5</ele>
        <time>2013-02-19T08:51:58Z</time>
      </trkpt>
      <trkpt lat="45.87946" lon="6.44526">
        <ele>1325</ele>
        <time>2013-02-19T08:52:07Z</time>
      </trkpt>
      <trkpt lat="45.87945" lon="6.44527">
        <ele>1325</ele>
        <time>2013-02-19T08:52:08Z</time>
      </trkpt>
      <trkpt lat="45.87935" lon="6.44546">
        <ele>1325.8</ele>
        <time>2013-02-19T08:52:24Z</time>
      </trkpt>
      <trkpt lat="45.8793" lon="6.44555">
        <ele>1326.1</ele>
        <time>2013-02-19T08:52:32Z</time>
      </trkpt>
      <trkpt lat="45.87924" lon="6.44565">
        <ele>1326.8</ele>
        <time>2013-02-19T08:52:40Z</time>
      </trkpt>
      <trkpt lat="45.87919" lon="6.44573">
        <ele>1327.5</ele>
        <time>2013-02-19T08:52:48Z</time>
      </trkpt>
      <trkpt lat="45.87911" lon="6.44581">
        <ele>1328.5</ele>
        <time>2013-02-19T08:52:57Z</time>
      </trkpt>
      <trkpt lat="45.87903" lon="6.44585">
        <ele>1329.8</ele>
        <time>2013-02-19T08:53:06Z</time>
      </trkpt>
      <trkpt lat="45.87897" lon="6.44593">
        <ele>1331.3</ele>
        <time>2013-02-19T08:53:15Z</time>
      </trkpt>
      <trkpt lat="45.87896" lon="6.44594">
        <ele>1331.5</ele>
        <time>2013-02-19T08:53:16Z</time>
      </trkpt>
      <trkpt lat="45.87884" lon="6.44609">
        <ele>1333.8</ele>
        <time>2013-02-19T08:53:33Z</time>
      </trkpt>
      <trkpt lat="45.87877" lon="6.44618">
        <ele>1335.4</ele>
        <time>2013-02-19T08:53:42Z</time>
      </trkpt>
      <trkpt lat="45.87872" lon="6.44627">
        <ele>1336.5</ele>
        <time>2013-02-19T08:53:50Z</time>
      </trkpt>
      <trkpt lat="45.87866" lon="6.44636">
        <ele>1338.1</ele>
        <time>2013-02-19T08:53:59Z</time>
      </trkpt>
      <trkpt lat="45.8786" lon="6.44644">
        <ele>1339.5</ele>
        <time>2013-02-19T08:54:08Z</time>
      </trkpt>
      <trkpt lat="45.87854" lon="6.44653">
        <ele>1340.5</ele>
        <time>2013-02-19T08:54:16Z</time>
      </trkpt>
      <trkpt lat="45.87853" lon="6.44654">
        <ele>1340.5</ele>
        <time>2013-02-19T08:54:17Z</time>
      </trkpt>
      <trkpt lat="45.87843" lon="6.44671">
        <ele>1342.4</ele>
        <time>2013-02-19T08:54:32Z</time>
      </trkpt>
      <trkpt lat="45.87839" lon="6.44681">
        <ele>1343.5</ele>
        <time>2013-02-19T08:54:40Z</time>
      </trkpt>
      <trkpt lat="45.87833" lon="6.44689">
        <ele>1344.6</ele>
        <time>2013-02-19T08:54:48Z</time>
      </trkpt>
      <trkpt lat="45.87826" lon="6.44698">
        <ele>1345.5</ele>
        <time>2013-02-19T08:54:56Z</time>
      </trkpt>
      <trkpt lat="45.8782" lon="6.44706">
        <ele>1346.5</ele>
        <time>2013-02-19T08:55:04Z</time>
      </trkpt>
      <trkpt lat="45.87814" lon="6.44714">
        <ele>1347.6</ele>
        <time>2013-02-19T08:55:12Z</time>
      </trkpt>
      <trkpt lat="45.87808" lon="6.44722">
        <ele>1349.3</ele>
        <time>2013-02-19T08:55:20Z</time>
      </trkpt>
      <trkpt lat="45.87807" lon="6.44723">
        <ele>1349.5</ele>
        <time>2013-02-19T08:55:21Z</time>
      </trkpt>
      <trkpt lat="45.87797" lon="6.4474">
        <ele>1352.6</ele>
        <time>2013-02-19T08:55:38Z</time>
      </trkpt>
      <trkpt lat="45.87792" lon="6.44749">
        <ele>1355.3</ele>
        <time>2013-02-19T08:55:48Z</time>
      </trkpt>
      <trkpt lat="45.87787" lon="6.44759">
        <ele>1356.9</ele>
        <time>2013-02-19T08:55:56Z</time>
      </trkpt>
      <trkpt lat="45.87781" lon="6.44768">
        <ele>1357.5</ele>
        <time>2013-02-19T08:56:04Z</time>
      </trkpt>
      <trkpt lat="45.87774" lon="6.44775">
        <ele>1358</ele>
        <time>2013-02-19T08:56:11Z</time>
      </trkpt>
      <trkpt lat="45.87767" lon="6.44781">
        <ele>1359.4</ele>
        <time>2013-02-19T08:56:19Z</time>
      </trkpt>
      <trkpt lat="45.87759" lon="6.44786">
        <ele>1360.5</ele>
        <time>2013-02-19T08:56:27Z</time>
      </trkpt>
      <trkpt lat="45.87758" lon="6.44786">
        <ele>1360.6</ele>
        <time>2013-02-19T08:56:28Z</time>
      </trkpt>
      <trkpt lat="45.87744" lon="6.44793">
        <ele>1363</ele>
        <time>2013-02-19T08:56:43Z</time>
      </trkpt>
      <trkpt lat="45.87736" lon="6.44796">
        <ele>1364.4</ele>
        <time>2013-02-19T08:56:51Z</time>
      </trkpt>
      <trkpt lat="45.87728" lon="6.44801">
        <ele>1365.8</ele>
        <time>2013-02-19T08:56:59Z</time>
      </trkpt>
      <trkpt lat="45.8772" lon="6.44805">
        <ele>1366.9</ele>
        <time>2013-02-19T08:57:07Z</time>
      </trkpt>
      <trkpt lat="45.87712" lon="6.44812">
        <ele>1369.4</ele>
        <time>2013-02-19T08:57:16Z</time>
      </trkpt>
      <trkpt lat="45.87705" lon="6.44819">
        <ele>1371</ele>
        <time>2013-02-19T08:57:24Z</time>
      </trkpt>
      <trkpt lat="45.87699" lon="6.44828">
        <ele>1372</ele>
        <time>2013-02-19T08:57:31Z</time>
      </trkpt>
      <trkpt lat="45.87698" lon="6.44829">
        <ele>1372.1</ele>
        <time>2013-02-19T08:57:32Z</time>
      </trkpt>
      <trkpt lat="45.87689" lon="6.44846">
        <ele>1371.8</ele>
        <time>2013-02-19T08:57:43Z</time>
      </trkpt>
      <trkpt lat="45.87684" lon="6.44855">
        <ele>1371.6</ele>
        <time>2013-02-19T08:57:49Z</time>
      </trkpt>
      <trkpt lat="45.87678" lon="6.44863">
        <ele>1373.3</ele>
        <time>2013-02-19T08:57:57Z</time>
      </trkpt>
      <trkpt lat="45.87673" lon="6.44873">
        <ele>1374.5</ele>
        <time>2013-02-19T08:58:05Z</time>
      </trkpt>
      <trkpt lat="45.87668" lon="6.44881">
        <ele>1374.9</ele>
        <time>2013-02-19T08:58:11Z</time>
      </trkpt>
      <trkpt lat="45.87662" lon="6.44891">
        <ele>1375.4</ele>
        <time>2013-02-19T08:58:18Z</time>
      </trkpt>
      <trkpt lat="45.87658" lon="6.44901">
        <ele>1376.3</ele>
        <time>2013-02-19T08:58:25Z</time>
      </trkpt>
      <trkpt lat="45.87654" lon="6.44911">
        <ele>1377.1</ele>
        <time>2013-02-19T08:58:32Z</time>
      </trkpt>
      <trkpt lat="45.87653" lon="6.44912">
        <ele>1377.3</ele>
        <time>2013-02-19T08:58:33Z</time>
      </trkpt>
      <trkpt lat="45.87645" lon="6.44931">
        <ele>1378.5</ele>
        <time>2013-02-19T08:58:46Z</time>
      </trkpt>
      <trkpt lat="45.87641" lon="6.44942">
        <ele>1379.3</ele>
        <time>2013-02-19T08:58:53Z</time>
      </trkpt>
      <trkpt lat="45.87637" lon="6.44953">
        <ele>1379.3</ele>
        <time>2013-02-19T08:58:59Z</time>
      </trkpt>
      <trkpt lat="45.87636" lon="6.44963">
        <ele>1378.1</ele>
        <time>2013-02-19T08:59:03Z</time>
      </trkpt>
      <trkpt lat="45.87637" lon="6.44975">
        <ele>1377.9</ele>
        <time>2013-02-19T08:59:09Z</time>
      </trkpt>
      <trkpt lat="45.87636" lon="6.44987">
        <ele>1378.9</ele>
        <time>2013-02-19T08:59:17Z</time>
      </trkpt>
      <trkpt lat="45.87633" lon="6.44999">
        <ele>1380.5</ele>
        <time>2013-02-19T08:59:26Z</time>
      </trkpt>
      <trkpt lat="45.8763" lon="6.4501">
        <ele>1382.1</ele>
        <time>2013-02-19T08:59:34Z</time>
      </trkpt>
      <trkpt lat="45.87629" lon="6.45011">
        <ele>1382.4</ele>
        <time>2013-02-19T08:59:35Z</time>
      </trkpt>
      <trkpt lat="45.87617" lon="6.45025">
        <ele>1384.4</ele>
        <time>2013-02-19T08:59:49Z</time>
      </trkpt>
      <trkpt lat="45.8761" lon="6.4503">
        <ele>1385.3</ele>
        <time>2013-02-19T08:59:56Z</time>
      </trkpt>
      <trkpt lat="45.87601" lon="6.45035">
        <ele>1387.3</ele>
        <time>2013-02-19T09:00:05Z</time>
      </trkpt>
      <trkpt lat="45.87594" lon="6.45039">
        <ele>1388.5</ele>
        <time>2013-02-19T09:00:13Z</time>
      </trkpt>
      <trkpt lat="45.87586" lon="6.45044">
        <ele>1389.9</ele>
        <time>2013-02-19T09:00:21Z</time>
      </trkpt>
      <trkpt lat="45.87579" lon="6.4505">
        <ele>1391</ele>
        <time>2013-02-19T09:00:29Z</time>
      </trkpt>
      <trkpt lat="45.87571" lon="6.45055">
        <ele>1391.6</ele>
        <time>2013-02-19T09:00:36Z</time>
      </trkpt>
      <trkpt lat="45.8757" lon="6.45056">
        <ele>1391.8</ele>
        <time>2013-02-19T09:00:37Z</time>
      </trkpt>
      <trkpt lat="45.87557" lon="6.4507">
        <ele>1393.4</ele>
        <time>2013-02-19T09:00:51Z</time>
      </trkpt>
      <trkpt lat="45.87551" lon="6.45078">
        <ele>1394.4</ele>
        <time>2013-02-19T09:00:59Z</time>
      </trkpt>
      <trkpt lat="45.87544" lon="6.45086">
        <ele>1395.4</ele>
        <time>2013-02-19T09:01:07Z</time>
      </trkpt>
      <trkpt lat="45.87537" lon="6.45093">
        <ele>1396</ele>
        <time>2013-02-19T09:01:14Z</time>
      </trkpt>
      <trkpt lat="45.8753" lon="6.451">
        <ele>1396.8</ele>
        <time>2013-02-19T09:01:21Z</time>
      </trkpt>
      <trkpt lat="45.87523" lon="6.45108">
        <ele>1397.3</ele>
        <time>2013-02-19T09:01:28Z</time>
      </trkpt>
      <trkpt lat="45.87517" lon="6.45114">
        <ele>1398</ele>
        <time>2013-02-19T09:01:35Z</time>
      </trkpt>
      <trkpt lat="45.8751" lon="6.45122">
        <ele>1399.1</ele>
        <time>2013-02-19T09:01:42Z</time>
      </trkpt>
      <trkpt lat="45.8751" lon="6.45123">
        <ele>1399.4</ele>
        <time>2013-02-19T09:01:43Z</time>
      </trkpt>
      <trkpt lat="45.87499" lon="6.4514">
        <ele>1402.5</ele>
        <time>2013-02-19T09:01:57Z</time>
      </trkpt>
      <trkpt lat="45.87495" lon="6.45151">
        <ele>1403.5</ele>
        <time>2013-02-19T09:02:04Z</time>
      </trkpt>
      <trkpt lat="45.87491" lon="6.45161">
        <ele>1405.3</ele>
        <time>2013-02-19T09:02:12Z</time>
      </trkpt>
      <trkpt lat="45.87489" lon="6.45174">
        <ele>1405.3</ele>
        <time>2013-02-19T09:02:32Z</time>
      </trkpt>
      <trkpt lat="45.87491" lon="6.45186">
        <ele>1391.5</ele>
        <time>2013-02-19T09:04:52Z</time>
      </trkpt>
      <trkpt lat="45.87492" lon="6.45186">
        <ele>1391.6</ele>
        <time>2013-02-19T09:04:53Z</time>
      </trkpt>
      <trkpt lat="45.87495" lon="6.45199">
        <ele>1398.8</ele>
        <time>2013-02-19T09:06:36Z</time>
      </trkpt>
      <trkpt lat="45.87484" lon="6.45214">
        <ele>1408.5</ele>
        <time>2013-02-19T09:06:58Z</time>
      </trkpt>
      <trkpt lat="45.87477" lon="6.45222">
        <ele>1414.5</ele>
        <time>2013-02-19T09:07:14Z</time>
      </trkpt>
      <trkpt lat="45.87473" lon="6.45232">
        <ele>1419.3</ele>
        <time>2013-02-19T09:07:25Z</time>
      </trkpt>
      <trkpt lat="45.8747" lon="6.45244">
        <ele>1422</ele>
        <time>2013-02-19T09:07:34Z</time>
      </trkpt>
      <trkpt lat="45.87464" lon="6.45252">
        <ele>1423.6</ele>
        <time>2013-02-19T09:07:42Z</time>
      </trkpt>
      <trkpt lat="45.87464" lon="6.45253">
        <ele>1423.8</ele>
        <time>2013-02-19T09:07:43Z</time>
      </trkpt>
      <trkpt lat="45.87454" lon="6.45273">
        <ele>1423.9</ele>
        <time>2013-02-19T09:08:03Z</time>
      </trkpt>
      <trkpt lat="45.87452" lon="6.45285">
        <ele>1417</ele>
        <time>2013-02-19T09:10:14Z</time>
      </trkpt>
      <trkpt lat="45.87451" lon="6.45286">
        <ele>1417.4</ele>
        <time>2013-02-19T09:10:15Z</time>
      </trkpt>
      <trkpt lat="45.87444" lon="6.45305">
        <ele>1420.6</ele>
        <time>2013-02-19T09:10:28Z</time>
      </trkpt>
      <trkpt lat="45.87438" lon="6.45313">
        <ele>1422.6</ele>
        <time>2013-02-19T09:10:36Z</time>
      </trkpt>
      <trkpt lat="45.87432" lon="6.45322">
        <ele>1424.6</ele>
        <time>2013-02-19T09:10:44Z</time>
      </trkpt>
      <trkpt lat="45.87426" lon="6.4533">
        <ele>1426.5</ele>
        <time>2013-02-19T09:10:52Z</time>
      </trkpt>
      <trkpt lat="45.87419" lon="6.45338">
        <ele>1428.3</ele>
        <time>2013-02-19T09:11:00Z</time>
      </trkpt>
      <trkpt lat="45.87412" lon="6.45345">
        <ele>1430</ele>
        <time>2013-02-19T09:11:08Z</time>
      </trkpt>
      <trkpt lat="45.87406" lon="6.45354">
        <ele>1432.1</ele>
        <time>2013-02-19T09:11:17Z</time>
      </trkpt>
      <trkpt lat="45.87405" lon="6.45355">
        <ele>1432.4</ele>
        <time>2013-02-19T09:11:18Z</time>
      </trkpt>
      <trkpt lat="45.87392" lon="6.45369">
        <ele>1435.5</ele>
        <time>2013-02-19T09:11:33Z</time>
      </trkpt>
      <trkpt lat="45.87385" lon="6.45376">
        <ele>1437.4</ele>
        <time>2013-02-19T09:11:41Z</time>
      </trkpt>
      <trkpt lat="45.87378" lon="6.45382">
        <ele>1439</ele>
        <time>2013-02-19T09:11:49Z</time>
      </trkpt>
      <trkpt lat="45.87371" lon="6.45389">
        <ele>1441</ele>
        <time>2013-02-19T09:11:58Z</time>
      </trkpt>
      <trkpt lat="45.87364" lon="6.45396">
        <ele>1443.3</ele>
        <time>2013-02-19T09:12:07Z</time>
      </trkpt>
      <trkpt lat="45.87357" lon="6.45402">
        <ele>1445.1</ele>
        <time>2013-02-19T09:12:15Z</time>
      </trkpt>
      <trkpt lat="45.87351" lon="6.45411">
        <ele>1447.3</ele>
        <time>2013-02-19T09:12:24Z</time>
      </trkpt>
      <trkpt lat="45.8735" lon="6.45412">
        <ele>1447.5</ele>
        <time>2013-02-19T09:12:25Z</time>
      </trkpt>
      <trkpt lat="45.87338" lon="6.45428">
        <ele>1451.4</ele>
        <time>2013-02-19T09:12:42Z</time>
      </trkpt>
      <trkpt lat="45.87332" lon="6.45437">
        <ele>1453.3</ele>
        <time>2013-02-19T09:12:51Z</time>
      </trkpt>
      <trkpt lat="45.87326" lon="6.45447">
        <ele>1454.5</ele>
        <time>2013-02-19T09:12:59Z</time>
      </trkpt>
      <trkpt lat="45.87321" lon="6.45456">
        <ele>1455.5</ele>
        <time>2013-02-19T09:13:07Z</time>
      </trkpt>
      <trkpt lat="45.87314" lon="6.45463">
        <ele>1456.5</ele>
        <time>2013-02-19T09:13:14Z</time>
      </trkpt>
      <trkpt lat="45.87307" lon="6.45469">
        <ele>1457.5</ele>
        <time>2013-02-19T09:13:22Z</time>
      </trkpt>
      <trkpt lat="45.873" lon="6.45476">
        <ele>1461</ele>
        <time>2013-02-19T09:13:34Z</time>
      </trkpt>
      <trkpt lat="45.87299" lon="6.45476">
        <ele>1461.1</ele>
        <time>2013-02-19T09:13:35Z</time>
      </trkpt>
      <trkpt lat="45.87284" lon="6.45484">
        <ele>1465</ele>
        <time>2013-02-19T09:13:54Z</time>
      </trkpt>
      <trkpt lat="45.87275" lon="6.45488">
        <ele>1467.8</ele>
        <time>2013-02-19T09:14:05Z</time>
      </trkpt>
      <trkpt lat="45.87268" lon="6.45494">
        <ele>1469.4</ele>
        <time>2013-02-19T09:14:15Z</time>
      </trkpt>
      <trkpt lat="45.8726" lon="6.455">
        <ele>1470.8</ele>
        <time>2013-02-19T09:14:25Z</time>
      </trkpt>
      <trkpt lat="45.87253" lon="6.45507">
        <ele>1472.9</ele>
        <time>2013-02-19T09:14:36Z</time>
      </trkpt>
      <trkpt lat="45.87252" lon="6.45507">
        <ele>1473</ele>
        <time>2013-02-19T09:14:37Z</time>
      </trkpt>
      <trkpt lat="45.87239" lon="6.45521">
        <ele>1476.6</ele>
        <time>2013-02-19T09:14:56Z</time>
      </trkpt>
      <trkpt lat="45.87232" lon="6.45527">
        <ele>1478.1</ele>
        <time>2013-02-19T09:15:06Z</time>
      </trkpt>
      <trkpt lat="45.87225" lon="6.45535">
        <ele>1479.8</ele>
        <time>2013-02-19T09:15:16Z</time>
      </trkpt>
      <trkpt lat="45.87218" lon="6.45541">
        <ele>1481.3</ele>
        <time>2013-02-19T09:15:26Z</time>
      </trkpt>
      <trkpt lat="45.8721" lon="6.45547">
        <ele>1482.3</ele>
        <time>2013-02-19T09:15:36Z</time>
      </trkpt>
      <trkpt lat="45.87203" lon="6.45553">
        <ele>1483.4</ele>
        <time>2013-02-19T09:15:46Z</time>
      </trkpt>
      <trkpt lat="45.87202" lon="6.45554">
        <ele>1483.5</ele>
        <time>2013-02-19T09:15:47Z</time>
      </trkpt>
      <trkpt lat="45.87187" lon="6.45564">
        <ele>1485.5</ele>
        <time>2013-02-19T09:16:06Z</time>
      </trkpt>
      <trkpt lat="45.8718" lon="6.45569">
        <ele>1486.3</ele>
        <time>2013-02-19T09:16:15Z</time>
      </trkpt>
      <trkpt lat="45.87171" lon="6.45575">
        <ele>1487.5</ele>
        <time>2013-02-19T09:16:25Z</time>
      </trkpt>
      <trkpt lat="45.87163" lon="6.45579">
        <ele>1488</ele>
        <time>2013-02-19T09:16:34Z</time>
      </trkpt>
      <trkpt lat="45.87156" lon="6.45585">
        <ele>1489</ele>
        <time>2013-02-19T09:16:43Z</time>
      </trkpt>
      <trkpt lat="45.87148" lon="6.4559">
        <ele>1489.9</ele>
        <time>2013-02-19T09:16:52Z</time>
      </trkpt>
      <trkpt lat="45.87148" lon="6.45591">
        <ele>1489.9</ele>
        <time>2013-02-19T09:16:53Z</time>
      </trkpt>
      <trkpt lat="45.87133" lon="6.45604">
        <ele>1492.8</ele>
        <time>2013-02-19T09:17:16Z</time>
      </trkpt>
      <trkpt lat="45.87126" lon="6.45611">
        <ele>1494</ele>
        <time>2013-02-19T09:17:27Z</time>
      </trkpt>
      <trkpt lat="45.87119" lon="6.45618">
        <ele>1495.4</ele>
        <time>2013-02-19T09:17:37Z</time>
      </trkpt>
      <trkpt lat="45.87113" lon="6.45625">
        <ele>1497.5</ele>
        <time>2013-02-19T09:17:49Z</time>
      </trkpt>
      <trkpt lat="45.87106" lon="6.45633">
        <ele>1499.8</ele>
        <time>2013-02-19T09:18:01Z</time>
      </trkpt>
      <trkpt lat="45.87105" lon="6.45633">
        <ele>1500</ele>
        <time>2013-02-19T09:18:02Z</time>
      </trkpt>
      <trkpt lat="45.87092" lon="6.45646">
        <ele>1503</ele>
        <time>2013-02-19T09:18:22Z</time>
      </trkpt>
      <trkpt lat="45.87085" lon="6.45653">
        <ele>1504.5</ele>
        <time>2013-02-19T09:18:32Z</time>
      </trkpt>
      <trkpt lat="45.87078" lon="6.45661">
        <ele>1506.1</ele>
        <time>2013-02-19T09:18:43Z</time>
      </trkpt>
      <trkpt lat="45.87072" lon="6.4567">
        <ele>1508.5</ele>
        <time>2013-02-19T09:18:54Z</time>
      </trkpt>
      <trkpt lat="45.87065" lon="6.45677">
        <ele>1510.8</ele>
        <time>2013-02-19T09:19:05Z</time>
      </trkpt>
      <trkpt lat="45.87065" lon="6.45678">
        <ele>1511</ele>
        <time>2013-02-19T09:19:06Z</time>
      </trkpt>
      <trkpt lat="45.87051" lon="6.45689">
        <ele>1513</ele>
        <time>2013-02-19T09:19:23Z</time>
      </trkpt>
      <trkpt lat="45.87044" lon="6.45696">
        <ele>1513</ele>
        <time>2013-02-19T09:19:31Z</time>
      </trkpt>
      <trkpt lat="45.87037" lon="6.45703">
        <ele>1515</ele>
        <time>2013-02-19T09:19:43Z</time>
      </trkpt>
      <trkpt lat="45.8703" lon="6.45712">
        <ele>1517.8</ele>
        <time>2013-02-19T09:19:57Z</time>
      </trkpt>
      <trkpt lat="45.87023" lon="6.45719">
        <ele>1520</ele>
        <time>2013-02-19T09:20:09Z</time>
      </trkpt>
      <trkpt lat="45.87022" lon="6.4572">
        <ele>1520.1</ele>
        <time>2013-02-19T09:20:10Z</time>
      </trkpt>
      <trkpt lat="45.87009" lon="6.45734">
        <ele>1523.8</ele>
        <time>2013-02-19T09:20:32Z</time>
      </trkpt>
      <trkpt lat="45.87002" lon="6.45741">
        <ele>1525.8</ele>
        <time>2013-02-19T09:20:44Z</time>
      </trkpt>
      <trkpt lat="45.86995" lon="6.45748">
        <ele>1528.4</ele>
        <time>2013-02-19T09:20:57Z</time>
      </trkpt>
      <trkpt lat="45.86988" lon="6.45756">
        <ele>1529.8</ele>
        <time>2013-02-19T09:21:08Z</time>
      </trkpt>
      <trkpt lat="45.86981" lon="6.45763">
        <ele>1531.4</ele>
        <time>2013-02-19T09:21:19Z</time>
      </trkpt>
      <trkpt lat="45.86981" lon="6.45764">
        <ele>1531.5</ele>
        <time>2013-02-19T09:21:20Z</time>
      </trkpt>
      <trkpt lat="45.86967" lon="6.45778">
        <ele>1535</ele>
        <time>2013-02-19T09:21:42Z</time>
      </trkpt>
      <trkpt lat="45.86961" lon="6.45786">
        <ele>1537.6</ele>
        <time>2013-02-19T09:21:56Z</time>
      </trkpt>
      <trkpt lat="45.86954" lon="6.45794">
        <ele>1540.5</ele>
        <time>2013-02-19T09:22:10Z</time>
      </trkpt>
      <trkpt lat="45.86948" lon="6.45803">
        <ele>1542.6</ele>
        <time>2013-02-19T09:22:22Z</time>
      </trkpt>
      <trkpt lat="45.86948" lon="6.45804">
        <ele>1542.9</ele>
        <time>2013-02-19T09:22:23Z</time>
      </trkpt>
      <trkpt lat="45.86933" lon="6.45816">
        <ele>1547.5</ele>
        <time>2013-02-19T09:22:49Z</time>
      </trkpt>
      <trkpt lat="45.86926" lon="6.45822">
        <ele>1549.1</ele>
        <time>2013-02-19T09:23:01Z</time>
      </trkpt>
      <trkpt lat="45.86921" lon="6.45812">
        <ele>1551.3</ele>
        <time>2013-02-19T09:23:17Z</time>
      </trkpt>
      <trkpt lat="45.86913" lon="6.45814">
        <ele>1554.5</ele>
        <time>2013-02-19T09:23:33Z</time>
      </trkpt>
      <trkpt lat="45.86912" lon="6.45815">
        <ele>1554.6</ele>
        <time>2013-02-19T09:23:34Z</time>
      </trkpt>
      <trkpt lat="45.86901" lon="6.45798">
        <ele>1559.5</ele>
        <time>2013-02-19T09:24:04Z</time>
      </trkpt>
      <trkpt lat="45.86897" lon="6.45788">
        <ele>1560.5</ele>
        <time>2013-02-19T09:24:15Z</time>
      </trkpt>
      <trkpt lat="45.86892" lon="6.45777">
        <ele>1561.8</ele>
        <time>2013-02-19T09:24:27Z</time>
      </trkpt>
      <trkpt lat="45.86888" lon="6.45766">
        <ele>1564.3</ele>
        <time>2013-02-19T09:24:39Z</time>
      </trkpt>
      <trkpt lat="45.86887" lon="6.45765">
        <ele>1564.5</ele>
        <time>2013-02-19T09:24:40Z</time>
      </trkpt>
      <trkpt lat="45.86879" lon="6.45744">
        <ele>1568.6</ele>
        <time>2013-02-19T09:25:03Z</time>
      </trkpt>
      <trkpt lat="45.86874" lon="6.45734">
        <ele>1570.9</ele>
        <time>2013-02-19T09:25:14Z</time>
      </trkpt>
      <trkpt lat="45.86869" lon="6.45724">
        <ele>1573.4</ele>
        <time>2013-02-19T09:25:26Z</time>
      </trkpt>
      <trkpt lat="45.86863" lon="6.45714">
        <ele>1575.5</ele>
        <time>2013-02-19T09:25:37Z</time>
      </trkpt>
      <trkpt lat="45.86858" lon="6.45704">
        <ele>1577.1</ele>
        <time>2013-02-19T09:25:49Z</time>
      </trkpt>
      <trkpt lat="45.86858" lon="6.45703">
        <ele>1577.4</ele>
        <time>2013-02-19T09:25:50Z</time>
      </trkpt>
      <trkpt lat="45.8685" lon="6.45683">
        <ele>1582</ele>
        <time>2013-02-19T09:26:12Z</time>
      </trkpt>
      <trkpt lat="45.86844" lon="6.45692">
        <ele>1585.6</ele>
        <time>2013-02-19T09:26:29Z</time>
      </trkpt>
      <trkpt lat="45.8684" lon="6.45703">
        <ele>1588.9</ele>
        <time>2013-02-19T09:26:41Z</time>
      </trkpt>
      <trkpt lat="45.86835" lon="6.45713">
        <ele>1591.6</ele>
        <time>2013-02-19T09:26:52Z</time>
      </trkpt>
      <trkpt lat="45.86835" lon="6.45714">
        <ele>1592</ele>
        <time>2013-02-19T09:26:53Z</time>
      </trkpt>
      <trkpt lat="45.86822" lon="6.45716">
        <ele>1598.6</ele>
        <time>2013-02-19T09:27:20Z</time>
      </trkpt>
      <trkpt lat="45.86818" lon="6.45705">
        <ele>1601.4</ele>
        <time>2013-02-19T09:27:32Z</time>
      </trkpt>
      <trkpt lat="45.86814" lon="6.45694">
        <ele>1603.8</ele>
        <time>2013-02-19T09:27:45Z</time>
      </trkpt>
      <trkpt lat="45.86811" lon="6.45683">
        <ele>1606.3</ele>
        <time>2013-02-19T09:27:57Z</time>
      </trkpt>
      <trkpt lat="45.86811" lon="6.45682">
        <ele>1606.5</ele>
        <time>2013-02-19T09:27:58Z</time>
      </trkpt>
      <trkpt lat="45.86797" lon="6.45695">
        <ele>1613.1</ele>
        <time>2013-02-19T09:28:29Z</time>
      </trkpt>
      <trkpt lat="45.8679" lon="6.45703">
        <ele>1616.1</ele>
        <time>2013-02-19T09:28:41Z</time>
      </trkpt>
      <trkpt lat="45.86783" lon="6.4571">
        <ele>1618.6</ele>
        <time>2013-02-19T09:28:52Z</time>
      </trkpt>
      <trkpt lat="45.86779" lon="6.45698">
        <ele>1623.9</ele>
        <time>2013-02-19T09:29:25Z</time>
      </trkpt>
      <trkpt lat="45.86779" lon="6.45697">
        <ele>1624.1</ele>
        <time>2013-02-19T09:29:26Z</time>
      </trkpt>
      <trkpt lat="45.86778" lon="6.45673">
        <ele>1629.8</ele>
        <time>2013-02-19T09:29:47Z</time>
      </trkpt>
      <trkpt lat="45.86769" lon="6.45675">
        <ele>1633.8</ele>
        <time>2013-02-19T09:30:04Z</time>
      </trkpt>
      <trkpt lat="45.86762" lon="6.45682">
        <ele>1636.5</ele>
        <time>2013-02-19T09:30:15Z</time>
      </trkpt>
      <trkpt lat="45.86755" lon="6.4569">
        <ele>1638.8</ele>
        <time>2013-02-19T09:30:26Z</time>
      </trkpt>
      <trkpt lat="45.86755" lon="6.4569">
        <ele>1639</ele>
        <time>2013-02-19T09:30:27Z</time>
      </trkpt>
      <trkpt lat="45.86752" lon="6.45666">
        <ele>1643.5</ele>
        <time>2013-02-19T09:30:52Z</time>
      </trkpt>
      <trkpt lat="45.86751" lon="6.45654">
        <ele>1645.6</ele>
        <time>2013-02-19T09:31:02Z</time>
      </trkpt>
      <trkpt lat="45.86743" lon="6.4566">
        <ele>1647.9</ele>
        <time>2013-02-19T09:31:16Z</time>
      </trkpt>
      <trkpt lat="45.86737" lon="6.45668">
        <ele>1649.9</ele>
        <time>2013-02-19T09:31:26Z</time>
      </trkpt>
      <trkpt lat="45.86729" lon="6.45664">
        <ele>1653.3</ele>
        <time>2013-02-19T09:31:53Z</time>
      </trkpt>
      <trkpt lat="45.86728" lon="6.45665">
        <ele>1653.4</ele>
        <time>2013-02-19T09:31:54Z</time>
      </trkpt>
      <trkpt lat="45.86713" lon="6.45665">
        <ele>1659.6</ele>
        <time>2013-02-19T09:32:24Z</time>
      </trkpt>
      <trkpt lat="45.86705" lon="6.45663">
        <ele>1663.5</ele>
        <time>2013-02-19T09:32:43Z</time>
      </trkpt>
      <trkpt lat="45.86698" lon="6.45671">
        <ele>1665.9</ele>
        <time>2013-02-19T09:32:55Z</time>
      </trkpt>
      <trkpt lat="45.86697" lon="6.45671">
        <ele>1666</ele>
        <time>2013-02-19T09:32:56Z</time>
      </trkpt>
      <trkpt lat="45.86698" lon="6.45647">
        <ele>1671.8</ele>
        <time>2013-02-19T09:33:23Z</time>
      </trkpt>
      <trkpt lat="45.86697" lon="6.45634">
        <ele>1673.6</ele>
        <time>2013-02-19T09:33:35Z</time>
      </trkpt>
      <trkpt lat="45.86689" lon="6.45629">
        <ele>1678.9</ele>
        <time>2013-02-19T09:33:58Z</time>
      </trkpt>
      <trkpt lat="45.86688" lon="6.45628">
        <ele>1679</ele>
        <time>2013-02-19T09:33:59Z</time>
      </trkpt>
      <trkpt lat="45.8668" lon="6.45621">
        <ele>1685</ele>
        <time>2013-02-19T09:34:29Z</time>
      </trkpt>
      <trkpt lat="45.86677" lon="6.45609">
        <ele>1688.4</ele>
        <time>2013-02-19T09:34:49Z</time>
      </trkpt>
      <trkpt lat="45.86669" lon="6.45612">
        <ele>1692.5</ele>
        <time>2013-02-19T09:35:08Z</time>
      </trkpt>
      <trkpt lat="45.86668" lon="6.45613">
        <ele>1692.8</ele>
        <time>2013-02-19T09:35:09Z</time>
      </trkpt>
      <trkpt lat="45.86657" lon="6.45605">
        <ele>1701.1</ele>
        <time>2013-02-19T09:35:50Z</time>
      </trkpt>
      <trkpt lat="45.86658" lon="6.45592">
        <ele>1703.9</ele>
        <time>2013-02-19T09:36:06Z</time>
      </trkpt>
      <trkpt lat="45.8665" lon="6.45597">
        <ele>1706.4</ele>
        <time>2013-02-19T09:36:22Z</time>
      </trkpt>
      <trkpt lat="45.86649" lon="6.45598">
        <ele>1706.6</ele>
        <time>2013-02-19T09:36:23Z</time>
      </trkpt>
      <trkpt lat="45.86648" lon="6.45573">
        <ele>1713.8</ele>
        <time>2013-02-19T09:37:00Z</time>
      </trkpt>
      <trkpt lat="45.86639" lon="6.45573">
        <ele>1717.8</ele>
        <time>2013-02-19T09:37:19Z</time>
      </trkpt>
      <trkpt lat="45.8663" lon="6.45575">
        <ele>1720.5</ele>
        <time>2013-02-19T09:37:32Z</time>
      </trkpt>
      <trkpt lat="45.8663" lon="6.45576">
        <ele>1720.6</ele>
        <time>2013-02-19T09:37:33Z</time>
      </trkpt>
      <trkpt lat="45.86629" lon="6.45551">
        <ele>1727.8</ele>
        <time>2013-02-19T09:38:27Z</time>
      </trkpt>
      <trkpt lat="45.8662" lon="6.45555">
        <ele>1731.1</ele>
        <time>2013-02-19T09:38:42Z</time>
      </trkpt>
      <trkpt lat="45.8662" lon="6.45556">
        <ele>1731.5</ele>
        <time>2013-02-19T09:38:43Z</time>
      </trkpt>
      <trkpt lat="45.86604" lon="6.45549">
        <ele>1739.3</ele>
        <time>2013-02-19T09:39:30Z</time>
      </trkpt>
      <trkpt lat="45.86596" lon="6.45543">
        <ele>1745.3</ele>
        <time>2013-02-19T09:40:02Z</time>
      </trkpt>
      <trkpt lat="45.86596" lon="6.45544">
        <ele>1745.5</ele>
        <time>2013-02-19T09:40:03Z</time>
      </trkpt>
      <trkpt lat="45.86581" lon="6.45535">
        <ele>1754.3</ele>
        <time>2013-02-19T09:41:11Z</time>
      </trkpt>
      <trkpt lat="45.8658" lon="6.45535">
        <ele>1754.5</ele>
        <time>2013-02-19T09:41:12Z</time>
      </trkpt>
      <trkpt lat="45.86574" lon="6.45532">
        <ele>1760.9</ele>
        <time>2013-02-19T09:41:38Z</time>
      </trkpt>
      <trkpt lat="45.86565" lon="6.45534">
        <ele>1769.5</ele>
        <time>2013-02-19T09:42:09Z</time>
      </trkpt>
      <trkpt lat="45.86563" lon="6.45522">
        <ele>1772.5</ele>
        <time>2013-02-19T09:42:28Z</time>
      </trkpt>
      <trkpt lat="45.86563" lon="6.45521">
        <ele>1772.6</ele>
        <time>2013-02-19T09:42:29Z</time>
      </trkpt>
      <trkpt lat="45.86546" lon="6.45526">
        <ele>1784.5</ele>
        <time>2013-02-19T09:43:25Z</time>
      </trkpt>
      <trkpt lat="45.86537" lon="6.45527">
        <ele>1788.9</ele>
        <time>2013-02-19T09:43:54Z</time>
      </trkpt>
      <trkpt lat="45.86537" lon="6.45526">
        <ele>1788.9</ele>
        <time>2013-02-19T09:43:55Z</time>
      </trkpt>
      <trkpt lat="45.86521" lon="6.45523">
        <ele>1798.1</ele>
        <time>2013-02-19T09:45:00Z</time>
      </trkpt>
      <trkpt lat="45.8652" lon="6.45523">
        <ele>1798.5</ele>
        <time>2013-02-19T09:45:01Z</time>
      </trkpt>
      <trkpt lat="45.86513" lon="6.45521">
        <ele>1803</ele>
        <time>2013-02-19T09:45:28Z</time>
      </trkpt>
      <trkpt lat="45.86504" lon="6.45521">
        <ele>1808.9</ele>
        <time>2013-02-19T09:46:03Z</time>
      </trkpt>
      <trkpt lat="45.86503" lon="6.45521">
        <ele>1809</ele>
        <time>2013-02-19T09:46:04Z</time>
      </trkpt>
      <trkpt lat="45.86487" lon="6.45513">
        <ele>1818.5</ele>
        <time>2013-02-19T09:47:04Z</time>
      </trkpt>
      <trkpt lat="45.86487" lon="6.45512">
        <ele>1818.8</ele>
        <time>2013-02-19T09:47:05Z</time>
      </trkpt>
      <trkpt lat="45.86471" lon="6.45501">
        <ele>1828.4</ele>
        <time>2013-02-19T09:48:06Z</time>
      </trkpt>
      <trkpt lat="45.86471" lon="6.45501">
        <ele>1828.5</ele>
        <time>2013-02-19T09:48:07Z</time>
      </trkpt>
      <trkpt lat="45.86454" lon="6.45496">
        <ele>1836.3</ele>
        <time>2013-02-19T09:49:01Z</time>
      </trkpt>
      <trkpt lat="45.86454" lon="6.45484">
        <ele>1839.9</ele>
        <time>2013-02-19T09:49:23Z</time>
      </trkpt>
      <trkpt lat="45.86453" lon="6.45483">
        <ele>1840</ele>
        <time>2013-02-19T09:49:24Z</time>
      </trkpt>
      <trkpt lat="45.86445" lon="6.45479">
        <ele>1844.3</ele>
        <time>2013-02-19T09:49:59Z</time>
      </trkpt>
      <trkpt lat="45.86436" lon="6.45478">
        <ele>1848.1</ele>
        <time>2013-02-19T09:50:45Z</time>
      </trkpt>
      <trkpt lat="45.86436" lon="6.45476">
        <ele>1848.4</ele>
        <time>2013-02-19T09:50:46Z</time>
      </trkpt>
      <trkpt lat="45.86419" lon="6.45479">
        <ele>1858</ele>
        <time>2013-02-19T09:51:42Z</time>
      </trkpt>
      <trkpt lat="45.86411" lon="6.45474">
        <ele>1863</ele>
        <time>2013-02-19T09:52:13Z</time>
      </trkpt>
      <trkpt lat="45.8641" lon="6.45475">
        <ele>1863</ele>
        <time>2013-02-19T09:52:14Z</time>
      </trkpt>
      <trkpt lat="45.86405" lon="6.45454">
        <ele>1871.6</ele>
        <time>2013-02-19T09:52:54Z</time>
      </trkpt>
      <trkpt lat="45.86397" lon="6.45459">
        <ele>1874.1</ele>
        <time>2013-02-19T09:53:13Z</time>
      </trkpt>
      <trkpt lat="45.86388" lon="6.45455">
        <ele>1880</ele>
        <time>2013-02-19T09:53:41Z</time>
      </trkpt>
      <trkpt lat="45.86388" lon="6.45455">
        <ele>1880.3</ele>
        <time>2013-02-19T09:53:42Z</time>
      </trkpt>
      <trkpt lat="45.86393" lon="6.45432">
        <ele>1885.9</ele>
        <time>2013-02-19T09:54:05Z</time>
      </trkpt>
      <trkpt lat="45.86397" lon="6.45421">
        <ele>1889</ele>
        <time>2013-02-19T09:54:17Z</time>
      </trkpt>
      <trkpt lat="45.86401" lon="6.4541">
        <ele>1892</ele>
        <time>2013-02-19T09:54:29Z</time>
      </trkpt>
      <trkpt lat="45.86393" lon="6.45413">
        <ele>1895.4</ele>
        <time>2013-02-19T09:54:44Z</time>
      </trkpt>
      <trkpt lat="45.86392" lon="6.45413">
        <ele>1895.5</ele>
        <time>2013-02-19T09:54:45Z</time>
      </trkpt>
      <trkpt lat="45.86377" lon="6.45422">
        <ele>1899.6</ele>
        <time>2013-02-19T09:55:05Z</time>
      </trkpt>
      <trkpt lat="45.86369" lon="6.45428">
        <ele>1900.5</ele>
        <time>2013-02-19T09:55:14Z</time>
      </trkpt>
      <trkpt lat="45.86363" lon="6.45436">
        <ele>1901.9</ele>
        <time>2013-02-19T09:55:25Z</time>
      </trkpt>
      <trkpt lat="45.86357" lon="6.45445">
        <ele>1904.5</ele>
        <time>2013-02-19T09:55:37Z</time>
      </trkpt>
      <trkpt lat="45.86348" lon="6.45441">
        <ele>1912.5</ele>
        <time>2013-02-19T09:56:06Z</time>
      </trkpt>
      <trkpt lat="45.86348" lon="6.4544">
        <ele>1912.6</ele>
        <time>2013-02-19T09:56:07Z</time>
      </trkpt>
      <trkpt lat="45.8634" lon="6.45447">
        <ele>1914.5</ele>
        <time>2013-02-19T09:57:19Z</time>
      </trkpt>
      <trkpt lat="45.86332" lon="6.45426">
        <ele>1924</ele>
        <time>2013-02-19T09:57:56Z</time>
      </trkpt>
      <trkpt lat="45.86325" lon="6.45434">
        <ele>1928.1</ele>
        <time>2013-02-19T09:58:16Z</time>
      </trkpt>
      <trkpt lat="45.86321" lon="6.45423">
        <ele>1931.6</ele>
        <time>2013-02-19T09:58:38Z</time>
      </trkpt>
      <trkpt lat="45.86321" lon="6.45422">
        <ele>1931.9</ele>
        <time>2013-02-19T09:58:39Z</time>
      </trkpt>
      <trkpt lat="45.86318" lon="6.45399">
        <ele>1938.4</ele>
        <time>2013-02-19T09:59:02Z</time>
      </trkpt>
      <trkpt lat="45.86318" lon="6.45388">
        <ele>1940.6</ele>
        <time>2013-02-19T09:59:14Z</time>
      </trkpt>
      <trkpt lat="45.86319" lon="6.45375">
        <ele>1943.5</ele>
        <time>2013-02-19T09:59:27Z</time>
      </trkpt>
      <trkpt lat="45.8631" lon="6.45376">
        <ele>1945.6</ele>
        <time>2013-02-19T09:59:49Z</time>
      </trkpt>
      <trkpt lat="45.86309" lon="6.45377">
        <ele>1946</ele>
        <time>2013-02-19T09:59:50Z</time>
      </trkpt>
      <trkpt lat="45.86295" lon="6.45365">
        <ele>1954.5</ele>
        <time>2013-02-19T10:00:46Z</time>
      </trkpt>
      <trkpt lat="45.86295" lon="6.45352">
        <ele>1960.5</ele>
        <time>2013-02-19T10:01:10Z</time>
      </trkpt>
      <trkpt lat="45.86295" lon="6.45351">
        <ele>1960.9</ele>
        <time>2013-02-19T10:01:11Z</time>
      </trkpt>
      <trkpt lat="45.86302" lon="6.4533">
        <ele>1968.3</ele>
        <time>2013-02-19T10:01:36Z</time>
      </trkpt>
      <trkpt lat="45.86305" lon="6.45318">
        <ele>1971.6</ele>
        <time>2013-02-19T10:01:50Z</time>
      </trkpt>
      <trkpt lat="45.86308" lon="6.45306">
        <ele>1976.3</ele>
        <time>2013-02-19T10:02:04Z</time>
      </trkpt>
      <trkpt lat="45.8631" lon="6.45295">
        <ele>1980.5</ele>
        <time>2013-02-19T10:02:23Z</time>
      </trkpt>
      <trkpt lat="45.86311" lon="6.45294">
        <ele>1980.8</ele>
        <time>2013-02-19T10:02:24Z</time>
      </trkpt>
      <trkpt lat="45.86305" lon="6.45278">
        <ele>1987</ele>
        <time>2013-02-19T10:03:02Z</time>
      </trkpt>
      <trkpt lat="45.86296" lon="6.45283">
        <ele>1988.5</ele>
        <time>2013-02-19T10:03:13Z</time>
      </trkpt>
      <trkpt lat="45.86295" lon="6.45271">
        <ele>1994.9</ele>
        <time>2013-02-19T10:03:40Z</time>
      </trkpt>
      <trkpt lat="45.86295" lon="6.45269">
        <ele>1995.3</ele>
        <time>2013-02-19T10:03:41Z</time>
      </trkpt>
      <trkpt lat="45.86289" lon="6.45259">
        <ele>2000</ele>
        <time>2013-02-19T10:04:13Z</time>
      </trkpt>
      <trkpt lat="45.86284" lon="6.4525">
        <ele>2002.5</ele>
        <time>2013-02-19T10:04:40Z</time>
      </trkpt>
      <trkpt lat="45.86276" lon="6.45246">
        <ele>2007.8</ele>
        <time>2013-02-19T10:05:06Z</time>
      </trkpt>
      <trkpt lat="45.86275" lon="6.45247">
        <ele>2008</ele>
        <time>2013-02-19T10:05:07Z</time>
      </trkpt>
      <trkpt lat="45.86262" lon="6.4526">
        <ele>2012.5</ele>
        <time>2013-02-19T10:05:26Z</time>
      </trkpt>
      <trkpt lat="45.8627" lon="6.45255">
        <ele>2026.5</ele>
        <time>2013-02-19T10:06:09Z</time>
      </trkpt>
      <trkpt lat="45.86271" lon="6.45253">
        <ele>2026.8</ele>
        <time>2013-02-19T10:06:10Z</time>
      </trkpt>
      <trkpt lat="45.86271" lon="6.4523">
        <ele>2031.3</ele>
        <time>2013-02-19T10:06:33Z</time>
      </trkpt>
      <trkpt lat="45.86263" lon="6.45231">
        <ele>2032.1</ele>
        <time>2013-02-19T10:06:51Z</time>
      </trkpt>
      <trkpt lat="45.86256" lon="6.45238">
        <ele>2034.4</ele>
        <time>2013-02-19T10:07:00Z</time>
      </trkpt>
      <trkpt lat="45.86247" lon="6.45236">
        <ele>2037</ele>
        <time>2013-02-19T10:07:26Z</time>
      </trkpt>
      <trkpt lat="45.86247" lon="6.45237">
        <ele>2037.3</ele>
        <time>2013-02-19T10:07:27Z</time>
      </trkpt>
      <trkpt lat="45.86234" lon="6.45251">
        <ele>2043.5</ele>
        <time>2013-02-19T10:07:49Z</time>
      </trkpt>
      <trkpt lat="45.86226" lon="6.45258">
        <ele>2046</ele>
        <time>2013-02-19T10:08:02Z</time>
      </trkpt>
      <trkpt lat="45.8622" lon="6.45249">
        <ele>2048</ele>
        <time>2013-02-19T10:08:29Z</time>
      </trkpt>
      <trkpt lat="45.8622" lon="6.45248">
        <ele>2048</ele>
        <time>2013-02-19T10:08:30Z</time>
      </trkpt>
      <trkpt lat="45.86221" lon="6.45224">
        <ele>2051.5</ele>
        <time>2013-02-19T10:08:55Z</time>
      </trkpt>
      <trkpt lat="45.8622" lon="6.45211">
        <ele>2054.3</ele>
        <time>2013-02-19T10:09:09Z</time>
      </trkpt>
      <trkpt lat="45.86212" lon="6.45214">
        <ele>2060.1</ele>
        <time>2013-02-19T10:09:35Z</time>
      </trkpt>
      <trkpt lat="45.86212" lon="6.45215">
        <ele>2060.6</ele>
        <time>2013-02-19T10:09:36Z</time>
      </trkpt>
      <trkpt lat="45.86199" lon="6.45229">
        <ele>2058.3</ele>
        <time>2013-02-19T10:10:11Z</time>
      </trkpt>
      <trkpt lat="45.86191" lon="6.45235">
        <ele>2057.3</ele>
        <time>2013-02-19T10:10:23Z</time>
      </trkpt>
      <trkpt lat="45.86183" lon="6.4524">
        <ele>2058</ele>
        <time>2013-02-19T10:10:34Z</time>
      </trkpt>
      <trkpt lat="45.86179" lon="6.4525">
        <ele>2059.1</ele>
        <time>2013-02-19T10:10:46Z</time>
      </trkpt>
      <trkpt lat="45.86179" lon="6.45251">
        <ele>2059.1</ele>
        <time>2013-02-19T10:10:47Z</time>
      </trkpt>
      <trkpt lat="45.86175" lon="6.45274">
        <ele>2062.3</ele>
        <time>2013-02-19T10:11:11Z</time>
      </trkpt>
      <trkpt lat="45.8617" lon="6.45263">
        <ele>2069.8</ele>
        <time>2013-02-19T10:11:33Z</time>
      </trkpt>
      <trkpt lat="45.86163" lon="6.45271">
        <ele>2074.6</ele>
        <time>2013-02-19T10:12:08Z</time>
      </trkpt>
      <trkpt lat="45.86163" lon="6.45272">
        <ele>2074.6</ele>
        <time>2013-02-19T10:12:09Z</time>
      </trkpt>
      <trkpt lat="45.86152" lon="6.45284">
        <ele>2110.6</ele>
        <time>2013-02-19T10:13:30Z</time>
      </trkpt>
      <trkpt lat="45.86152" lon="6.45283">
        <ele>2111</ele>
        <time>2013-02-19T10:13:31Z</time>
      </trkpt>
      <trkpt lat="45.86143" lon="6.45286">
        <ele>2143.1</ele>
        <time>2013-02-19T10:14:44Z</time>
      </trkpt>
      <trkpt lat="45.86129" lon="6.45274">
        <ele>2140.5</ele>
        <time>2013-02-19T10:15:55Z</time>
      </trkpt>
      <trkpt lat="45.86129" lon="6.45273">
        <ele>2140.3</ele>
        <time>2013-02-19T10:15:56Z</time>
      </trkpt>
      <trkpt lat="45.86115" lon="6.45285">
        <ele>2132.1</ele>
        <time>2013-02-19T10:16:37Z</time>
      </trkpt>
      <trkpt lat="45.86109" lon="6.45294">
        <ele>2129.8</ele>
        <time>2013-02-19T10:16:48Z</time>
      </trkpt>
      <trkpt lat="45.86105" lon="6.45305">
        <ele>2130.1</ele>
        <time>2013-02-19T10:17:01Z</time>
      </trkpt>
      <trkpt lat="45.86105" lon="6.45306">
        <ele>2130.3</ele>
        <time>2013-02-19T10:17:02Z</time>
      </trkpt>
      <trkpt lat="45.86097" lon="6.45283">
        <ele>2137.8</ele>
        <time>2013-02-19T10:17:38Z</time>
      </trkpt>
      <trkpt lat="45.86091" lon="6.45291">
        <ele>2141.6</ele>
        <time>2013-02-19T10:18:06Z</time>
      </trkpt>
      <trkpt lat="45.8609" lon="6.45292">
        <ele>2141.6</ele>
        <time>2013-02-19T10:18:07Z</time>
      </trkpt>
      <trkpt lat="45.86082" lon="6.45271">
        <ele>2152.1</ele>
        <time>2013-02-19T10:19:10Z</time>
      </trkpt>
      <trkpt lat="45.86082" lon="6.45271">
        <ele>2152.3</ele>
        <time>2013-02-19T10:19:11Z</time>
      </trkpt>
      <trkpt lat="45.86073" lon="6.45255">
        <ele>2170.5</ele>
        <time>2013-02-19T10:20:19Z</time>
      </trkpt>
      <trkpt lat="45.86072" lon="6.45254">
        <ele>2170.8</ele>
        <time>2013-02-19T10:20:20Z</time>
      </trkpt>
      <trkpt lat="45.86071" lon="6.45232">
        <ele>2182.1</ele>
        <time>2013-02-19T10:21:17Z</time>
      </trkpt>
      <trkpt lat="45.86074" lon="6.45221">
        <ele>2182.1</ele>
        <time>2013-02-19T10:21:22Z</time>
      </trkpt>
      <trkpt lat="45.86075" lon="6.4522">
        <ele>2182.1</ele>
        <time>2013-02-19T10:21:23Z</time>
      </trkpt>
      <trkpt lat="45.86086" lon="6.45203">
        <ele>2183.3</ele>
        <time>2013-02-19T10:21:43Z</time>
      </trkpt>
      <trkpt lat="45.8609" lon="6.45192">
        <ele>2184.5</ele>
        <time>2013-02-19T10:21:55Z</time>
      </trkpt>
      <trkpt lat="45.86094" lon="6.45181">
        <ele>2184.3</ele>
        <time>2013-02-19T10:22:03Z</time>
      </trkpt>
      <trkpt lat="45.86099" lon="6.45171">
        <ele>2183.1</ele>
        <time>2013-02-19T10:22:13Z</time>
      </trkpt>
      <trkpt lat="45.86103" lon="6.4516">
        <ele>2180.3</ele>
        <time>2013-02-19T10:22:25Z</time>
      </trkpt>
      <trkpt lat="45.86103" lon="6.4516">
        <ele>2180.3</ele>
        <time>2013-02-19T10:22:26Z</time>
      </trkpt>
      <trkpt lat="45.8609" lon="6.45176">
        <ele>2183.8</ele>
        <time>2013-02-19T10:23:07Z</time>
      </trkpt>
      <trkpt lat="45.86084" lon="6.45167">
        <ele>2191.3</ele>
        <time>2013-02-19T10:23:49Z</time>
      </trkpt>
      <trkpt lat="45.86083" lon="6.45167">
        <ele>2191.1</ele>
        <time>2013-02-19T10:23:50Z</time>
      </trkpt>
      <trkpt lat="45.86068" lon="6.45178">
        <ele>2201.8</ele>
        <time>2013-02-19T10:24:22Z</time>
      </trkpt>
      <trkpt lat="45.86063" lon="6.45187">
        <ele>2205.6</ele>
        <time>2013-02-19T10:24:27Z</time>
      </trkpt>
      <trkpt lat="45.86059" lon="6.45197">
        <ele>2210.5</ele>
        <time>2013-02-19T10:24:34Z</time>
      </trkpt>
      <trkpt lat="45.86058" lon="6.45185">
        <ele>2213.3</ele>
        <time>2013-02-19T10:24:54Z</time>
      </trkpt>
      <trkpt lat="45.86058" lon="6.45183">
        <ele>2213.5</ele>
        <time>2013-02-19T10:24:55Z</time>
      </trkpt>
      <trkpt lat="45.86045" lon="6.45198">
        <ele>2225.8</ele>
        <time>2013-02-19T10:25:53Z</time>
      </trkpt>
      <trkpt lat="45.86042" lon="6.452">
        <ele>2223.1</ele>
        <time>2013-02-19T10:26:01Z</time>
      </trkpt>
      <trkpt lat="45.86032" lon="6.45205">
        <ele>2224.8</ele>
        <time>2013-02-19T10:26:32Z</time>
      </trkpt>
      <trkpt lat="45.86027" lon="6.45195">
        <ele>2226.3</ele>
        <time>2013-02-19T10:26:47Z</time>
      </trkpt>
      <trkpt lat="45.86018" lon="6.45199">
        <ele>2237.5</ele>
        <time>2013-02-19T10:27:34Z</time>
      </trkpt>
      <trkpt lat="45.86018" lon="6.452">
        <ele>2237.8</ele>
        <time>2013-02-19T10:27:35Z</time>
      </trkpt>
      <trkpt lat="45.86003" lon="6.45213">
        <ele>2242</ele>
        <time>2013-02-19T10:27:58Z</time>
      </trkpt>
      <trkpt lat="45.85999" lon="6.45221">
        <ele>2242.5</ele>
        <time>2013-02-19T10:28:05Z</time>
      </trkpt>
      <trkpt lat="45.85994" lon="6.45211">
        <ele>2243.1</ele>
        <time>2013-02-19T10:28:26Z</time>
      </trkpt>
      <trkpt lat="45.85995" lon="6.45207">
        <ele>2243.6</ele>
        <time>2013-02-19T10:28:33Z</time>
      </trkpt>
      <trkpt lat="45.85987" lon="6.45221">
        <ele>2244.1</ele>
        <time>2013-02-19T10:29:00Z</time>
      </trkpt>
      <trkpt lat="45.85978" lon="6.45222">
        <ele>2243.6</ele>
        <time>2013-02-19T10:29:22Z</time>
      </trkpt>
      <trkpt lat="45.85973" lon="6.45212">
        <ele>2246.3</ele>
        <time>2013-02-19T10:29:56Z</time>
      </trkpt>
      <trkpt lat="45.85966" lon="6.45219">
        <ele>2251.8</ele>
        <time>2013-02-19T10:30:31Z</time>
      </trkpt>
      <trkpt lat="45.85966" lon="6.4522">
        <ele>2252.1</ele>
        <time>2013-02-19T10:30:32Z</time>
      </trkpt>
      <trkpt lat="45.85956" lon="6.45202">
        <ele>2266.5</ele>
        <time>2013-02-19T10:31:50Z</time>
      </trkpt>
      <trkpt lat="45.85955" lon="6.45202">
        <ele>2266.5</ele>
        <time>2013-02-19T10:31:51Z</time>
      </trkpt>
      <trkpt lat="45.85951" lon="6.45193">
        <ele>2256.6</ele>
        <time>2013-02-19T10:34:05Z</time>
      </trkpt>
      <trkpt lat="45.85951" lon="6.45193">
        <ele>2256.8</ele>
        <time>2013-02-19T10:34:06Z</time>
      </trkpt>
      <trkpt lat="45.85944" lon="6.45203">
        <ele>2241.8</ele>
        <time>2013-02-19T10:36:27Z</time>
      </trkpt>
      <trkpt lat="45.85929" lon="6.45211">
        <ele>2230.6</ele>
        <time>2013-02-19T10:36:50Z</time>
      </trkpt>
      <trkpt lat="45.85938" lon="6.45209">
        <ele>2242.8</ele>
        <time>2013-02-19T10:37:17Z</time>
      </trkpt>
      <trkpt lat="45.85944" lon="6.452">
        <ele>2248</ele>
        <time>2013-02-19T10:37:50Z</time>
      </trkpt>
      <trkpt lat="45.85944" lon="6.452">
        <ele>2248.6</ele>
        <time>2013-02-19T10:37:51Z</time>
      </trkpt>
      <trkpt lat="45.85952" lon="6.45196">
        <ele>2248.1</ele>
        <time>2013-02-19T10:41:40Z</time>
      </trkpt>
      <trkpt lat="45.85943" lon="6.45197">
        <ele>2236.3</ele>
        <time>2013-02-19T10:43:42Z</time>
      </trkpt>
      <trkpt lat="45.85937" lon="6.45205">
        <ele>2228.3</ele>
        <time>2013-02-19T10:48:06Z</time>
      </trkpt>
      <trkpt lat="45.85929" lon="6.45211">
        <ele>2235.5</ele>
        <time>2013-02-19T10:50:24Z</time>
      </trkpt>
      <trkpt lat="45.85915" lon="6.45215">
        <ele>2230.3</ele>
        <time>2013-02-19T10:50:55Z</time>
      </trkpt>
      <trkpt lat="45.85907" lon="6.45208">
        <ele>2228.5</ele>
        <time>2013-02-19T10:51:01Z</time>
      </trkpt>
      <trkpt lat="45.85908" lon="6.45197">
        <ele>2225</ele>
        <time>2013-02-19T10:51:07Z</time>
      </trkpt>
      <trkpt lat="45.85908" lon="6.45186">
        <ele>2224.1</ele>
        <time>2013-02-19T10:51:14Z</time>
      </trkpt>
      <trkpt lat="45.85908" lon="6.45173">
        <ele>2218.8</ele>
        <time>2013-02-19T10:51:20Z</time>
      </trkpt>
      <trkpt lat="45.85913" lon="6.45165">
        <ele>2217.3</ele>
        <time>2013-02-19T10:51:23Z</time>
      </trkpt>
      <trkpt lat="45.85907" lon="6.45157">
        <ele>2216.6</ele>
        <time>2013-02-19T10:51:30Z</time>
      </trkpt>
      <trkpt lat="45.85905" lon="6.45157">
        <ele>2216.3</ele>
        <time>2013-02-19T10:51:31Z</time>
      </trkpt>
      <trkpt lat="45.85891" lon="6.45151">
        <ele>2217.5</ele>
        <time>2013-02-19T10:51:39Z</time>
      </trkpt>
      <trkpt lat="45.85884" lon="6.45144">
        <ele>2218.1</ele>
        <time>2013-02-19T10:51:43Z</time>
      </trkpt>
      <trkpt lat="45.85879" lon="6.45138">
        <ele>2218</ele>
        <time>2013-02-19T10:51:45Z</time>
      </trkpt>
      <trkpt lat="45.85872" lon="6.4513">
        <ele>2218.3</ele>
        <time>2013-02-19T10:51:48Z</time>
      </trkpt>
      <trkpt lat="45.85869" lon="6.45123">
        <ele>2218.3</ele>
        <time>2013-02-19T10:51:51Z</time>
      </trkpt>
      <trkpt lat="45.85864" lon="6.45116">
        <ele>2217.6</ele>
        <time>2013-02-19T10:51:53Z</time>
      </trkpt>
      <trkpt lat="45.85859" lon="6.45109">
        <ele>2216.8</ele>
        <time>2013-02-19T10:51:55Z</time>
      </trkpt>
      <trkpt lat="45.85856" lon="6.45103">
        <ele>2216.3</ele>
        <time>2013-02-19T10:51:57Z</time>
      </trkpt>
      <trkpt lat="45.85853" lon="6.45092">
        <ele>2214.3</ele>
        <time>2013-02-19T10:51:59Z</time>
      </trkpt>
      <trkpt lat="45.85852" lon="6.45085">
        <ele>2212.8</ele>
        <time>2013-02-19T10:52:00Z</time>
      </trkpt>
      <trkpt lat="45.8585" lon="6.45073">
        <ele>2209.6</ele>
        <time>2013-02-19T10:52:02Z</time>
      </trkpt>
      <trkpt lat="45.85845" lon="6.45064">
        <ele>2207.1</ele>
        <time>2013-02-19T10:52:05Z</time>
      </trkpt>
      <trkpt lat="45.85839" lon="6.45057">
        <ele>2205.6</ele>
        <time>2013-02-19T10:52:08Z</time>
      </trkpt>
      <trkpt lat="45.85833" lon="6.45053">
        <ele>2204.3</ele>
        <time>2013-02-19T10:52:10Z</time>
      </trkpt>
      <trkpt lat="45.85825" lon="6.45047">
        <ele>2203.1</ele>
        <time>2013-02-19T10:52:12Z</time>
      </trkpt>
      <trkpt lat="45.85818" lon="6.4504">
        <ele>2201.8</ele>
        <time>2013-02-19T10:52:15Z</time>
      </trkpt>
      <trkpt lat="45.85813" lon="6.45036">
        <ele>2200.6</ele>
        <time>2013-02-19T10:52:17Z</time>
      </trkpt>
      <trkpt lat="45.85805" lon="6.4503">
        <ele>2198.8</ele>
        <time>2013-02-19T10:52:19Z</time>
      </trkpt>
      <trkpt lat="45.85799" lon="6.45023">
        <ele>2194.8</ele>
        <time>2013-02-19T10:52:21Z</time>
      </trkpt>
      <trkpt lat="45.85799" lon="6.45011">
        <ele>2189.6</ele>
        <time>2013-02-19T10:52:23Z</time>
      </trkpt>
      <trkpt lat="45.85796" lon="6.45">
        <ele>2185.1</ele>
        <time>2013-02-19T10:52:25Z</time>
      </trkpt>
      <trkpt lat="45.85797" lon="6.44989">
        <ele>2180.8</ele>
        <time>2013-02-19T10:52:27Z</time>
      </trkpt>
      <trkpt lat="45.85799" lon="6.44979">
        <ele>2175.5</ele>
        <time>2013-02-19T10:52:29Z</time>
      </trkpt>
      <trkpt lat="45.85799" lon="6.44968">
        <ele>2170.6</ele>
        <time>2013-02-19T10:52:31Z</time>
      </trkpt>
      <trkpt lat="45.85799" lon="6.44961">
        <ele>2168.3</ele>
        <time>2013-02-19T10:52:32Z</time>
      </trkpt>
      <trkpt lat="45.85802" lon="6.44945">
        <ele>2160.6</ele>
        <time>2013-02-19T10:52:35Z</time>
      </trkpt>
      <trkpt lat="45.85799" lon="6.44936">
        <ele>2157.3</ele>
        <time>2013-02-19T10:52:37Z</time>
      </trkpt>
      <trkpt lat="45.85795" lon="6.44925">
        <ele>2154</ele>
        <time>2013-02-19T10:52:40Z</time>
      </trkpt>
      <trkpt lat="45.85796" lon="6.44914">
        <ele>2148.8</ele>
        <time>2013-02-19T10:52:45Z</time>
      </trkpt>
      <trkpt lat="45.85804" lon="6.4491">
        <ele>2144.1</ele>
        <time>2013-02-19T10:52:47Z</time>
      </trkpt>
      <trkpt lat="45.85805" lon="6.44898">
        <ele>2138.5</ele>
        <time>2013-02-19T10:52:49Z</time>
      </trkpt>
      <trkpt lat="45.858" lon="6.44888">
        <ele>2135.6</ele>
        <time>2013-02-19T10:52:51Z</time>
      </trkpt>
      <trkpt lat="45.858" lon="6.44882">
        <ele>2134.1</ele>
        <time>2013-02-19T10:52:52Z</time>
      </trkpt>
      <trkpt lat="45.85803" lon="6.44876">
        <ele>2132.5</ele>
        <time>2013-02-19T10:52:53Z</time>
      </trkpt>
      <trkpt lat="45.85808" lon="6.44866">
        <ele>2131.1</ele>
        <time>2013-02-19T10:52:56Z</time>
      </trkpt>
      <trkpt lat="45.8581" lon="6.44853">
        <ele>2135.6</ele>
        <time>2013-02-19T10:53:34Z</time>
      </trkpt>
      <trkpt lat="45.8581" lon="6.44853">
        <ele>2136</ele>
        <time>2013-02-19T10:53:35Z</time>
      </trkpt>
      <trkpt lat="45.85806" lon="6.44835">
        <ele>2136.1</ele>
        <time>2013-02-19T10:53:44Z</time>
      </trkpt>
      <trkpt lat="45.85805" lon="6.44822">
        <ele>2133.1</ele>
        <time>2013-02-19T10:53:46Z</time>
      </trkpt>
      <trkpt lat="45.858" lon="6.44814">
        <ele>2131.3</ele>
        <time>2013-02-19T10:53:48Z</time>
      </trkpt>
      <trkpt lat="45.85795" lon="6.44806">
        <ele>2130.1</ele>
        <time>2013-02-19T10:53:50Z</time>
      </trkpt>
      <trkpt lat="45.85793" lon="6.44794">
        <ele>2126.1</ele>
        <time>2013-02-19T10:53:53Z</time>
      </trkpt>
      <trkpt lat="45.85791" lon="6.44785">
        <ele>2121.1</ele>
        <time>2013-02-19T10:53:55Z</time>
      </trkpt>
      <trkpt lat="45.85788" lon="6.44774">
        <ele>2115.8</ele>
        <time>2013-02-19T10:53:57Z</time>
      </trkpt>
      <trkpt lat="45.85787" lon="6.44762">
        <ele>2110.8</ele>
        <time>2013-02-19T10:53:59Z</time>
      </trkpt>
      <trkpt lat="45.85783" lon="6.44754">
        <ele>2107.1</ele>
        <time>2013-02-19T10:54:01Z</time>
      </trkpt>
      <trkpt lat="45.85782" lon="6.44744">
        <ele>2103.1</ele>
        <time>2013-02-19T10:54:03Z</time>
      </trkpt>
      <trkpt lat="45.85779" lon="6.44734">
        <ele>2099.1</ele>
        <time>2013-02-19T10:54:05Z</time>
      </trkpt>
      <trkpt lat="45.85775" lon="6.44727">
        <ele>2095.8</ele>
        <time>2013-02-19T10:54:07Z</time>
      </trkpt>
      <trkpt lat="45.85772" lon="6.44719">
        <ele>2091.8</ele>
        <time>2013-02-19T10:54:09Z</time>
      </trkpt>
      <trkpt lat="45.85768" lon="6.44711">
        <ele>2088.1</ele>
        <time>2013-02-19T10:54:11Z</time>
      </trkpt>
      <trkpt lat="45.85766" lon="6.447">
        <ele>2083.3</ele>
        <time>2013-02-19T10:54:13Z</time>
      </trkpt>
      <trkpt lat="45.85764" lon="6.44694">
        <ele>2080.8</ele>
        <time>2013-02-19T10:54:14Z</time>
      </trkpt>
      <trkpt lat="45.85763" lon="6.44687">
        <ele>2078.3</ele>
        <time>2013-02-19T10:54:15Z</time>
      </trkpt>
      <trkpt lat="45.8576" lon="6.44676">
        <ele>2074</ele>
        <time>2013-02-19T10:54:17Z</time>
      </trkpt>
      <trkpt lat="45.85756" lon="6.44666">
        <ele>2069.6</ele>
        <time>2013-02-19T10:54:19Z</time>
      </trkpt>
      <trkpt lat="45.85755" lon="6.44654">
        <ele>2064.1</ele>
        <time>2013-02-19T10:54:21Z</time>
      </trkpt>
      <trkpt lat="45.85751" lon="6.4465">
        <ele>2061.8</ele>
        <time>2013-02-19T10:54:22Z</time>
      </trkpt>
      <trkpt lat="45.85747" lon="6.44645">
        <ele>2059.8</ele>
        <time>2013-02-19T10:54:23Z</time>
      </trkpt>
      <trkpt lat="45.85743" lon="6.44639">
        <ele>2058</ele>
        <time>2013-02-19T10:54:24Z</time>
      </trkpt>
      <trkpt lat="45.8574" lon="6.44633">
        <ele>2056.1</ele>
        <time>2013-02-19T10:54:25Z</time>
      </trkpt>
      <trkpt lat="45.85736" lon="6.44627">
        <ele>2054.3</ele>
        <time>2013-02-19T10:54:26Z</time>
      </trkpt>
      <trkpt lat="45.85733" lon="6.4462">
        <ele>2052.6</ele>
        <time>2013-02-19T10:54:27Z</time>
      </trkpt>
      <trkpt lat="45.8573" lon="6.44614">
        <ele>2051.1</ele>
        <time>2013-02-19T10:54:28Z</time>
      </trkpt>
      <trkpt lat="45.85726" lon="6.44605">
        <ele>2049.6</ele>
        <time>2013-02-19T10:54:30Z</time>
      </trkpt>
      <trkpt lat="45.85721" lon="6.44595">
        <ele>2047.1</ele>
        <time>2013-02-19T10:54:33Z</time>
      </trkpt>
      <trkpt lat="45.85717" lon="6.44588">
        <ele>2045.3</ele>
        <time>2013-02-19T10:54:35Z</time>
      </trkpt>
      <trkpt lat="45.8571" lon="6.44581">
        <ele>2043.1</ele>
        <time>2013-02-19T10:54:37Z</time>
      </trkpt>
      <trkpt lat="45.85708" lon="6.44577">
        <ele>2041.6</ele>
        <time>2013-02-19T10:54:38Z</time>
      </trkpt>
      <trkpt lat="45.85705" lon="6.44561">
        <ele>2035</ele>
        <time>2013-02-19T10:54:41Z</time>
      </trkpt>
      <trkpt lat="45.85702" lon="6.4455">
        <ele>2029.5</ele>
        <time>2013-02-19T10:54:43Z</time>
      </trkpt>
      <trkpt lat="45.85702" lon="6.44542">
        <ele>2026.9</ele>
        <time>2013-02-19T10:54:44Z</time>
      </trkpt>
      <trkpt lat="45.85701" lon="6.4453">
        <ele>2021.5</ele>
        <time>2013-02-19T10:54:46Z</time>
      </trkpt>
      <trkpt lat="45.857" lon="6.44523">
        <ele>2019</ele>
        <time>2013-02-19T10:54:47Z</time>
      </trkpt>
      <trkpt lat="45.857" lon="6.44516">
        <ele>2016.3</ele>
        <time>2013-02-19T10:54:48Z</time>
      </trkpt>
      <trkpt lat="45.857" lon="6.44509">
        <ele>2013.1</ele>
        <time>2013-02-19T10:54:49Z</time>
      </trkpt>
      <trkpt lat="45.85695" lon="6.44498">
        <ele>2009.6</ele>
        <time>2013-02-19T10:54:51Z</time>
      </trkpt>
      <trkpt lat="45.85687" lon="6.44491">
        <ele>2005.4</ele>
        <time>2013-02-19T10:55:08Z</time>
      </trkpt>
      <trkpt lat="45.85682" lon="6.44483">
        <ele>2002.1</ele>
        <time>2013-02-19T10:55:10Z</time>
      </trkpt>
      <trkpt lat="45.85681" lon="6.44476">
        <ele>1999.8</ele>
        <time>2013-02-19T10:55:11Z</time>
      </trkpt>
      <trkpt lat="45.85678" lon="6.4447">
        <ele>1998</ele>
        <time>2013-02-19T10:55:12Z</time>
      </trkpt>
      <trkpt lat="45.85678" lon="6.44457">
        <ele>1993.4</ele>
        <time>2013-02-19T10:55:14Z</time>
      </trkpt>
      <trkpt lat="45.85677" lon="6.44451">
        <ele>1990.9</ele>
        <time>2013-02-19T10:55:15Z</time>
      </trkpt>
      <trkpt lat="45.85676" lon="6.44444">
        <ele>1988.5</ele>
        <time>2013-02-19T10:55:16Z</time>
      </trkpt>
      <trkpt lat="45.85676" lon="6.44437">
        <ele>1986.3</ele>
        <time>2013-02-19T10:55:17Z</time>
      </trkpt>
      <trkpt lat="45.85675" lon="6.44429">
        <ele>1983.9</ele>
        <time>2013-02-19T10:55:18Z</time>
      </trkpt>
      <trkpt lat="45.85673" lon="6.44423">
        <ele>1981.3</ele>
        <time>2013-02-19T10:55:19Z</time>
      </trkpt>
      <trkpt lat="45.85668" lon="6.44413">
        <ele>1978</ele>
        <time>2013-02-19T10:55:21Z</time>
      </trkpt>
      <trkpt lat="45.85664" lon="6.44402">
        <ele>1976</ele>
        <time>2013-02-19T10:55:24Z</time>
      </trkpt>
      <trkpt lat="45.85665" lon="6.44394">
        <ele>1974.4</ele>
        <time>2013-02-19T10:55:26Z</time>
      </trkpt>
      <trkpt lat="45.85665" lon="6.44384">
        <ele>1971.4</ele>
        <time>2013-02-19T10:55:28Z</time>
      </trkpt>
      <trkpt lat="45.85666" lon="6.44372">
        <ele>1966.5</ele>
        <time>2013-02-19T10:55:30Z</time>
      </trkpt>
      <trkpt lat="45.85663" lon="6.44361">
        <ele>1962.1</ele>
        <time>2013-02-19T10:55:32Z</time>
      </trkpt>
      <trkpt lat="45.85662" lon="6.44354">
        <ele>1960</ele>
        <time>2013-02-19T10:55:33Z</time>
      </trkpt>
      <trkpt lat="45.85661" lon="6.44346">
        <ele>1957.5</ele>
        <time>2013-02-19T10:55:34Z</time>
      </trkpt>
      <trkpt lat="45.85658" lon="6.44339">
        <ele>1955.5</ele>
        <time>2013-02-19T10:55:35Z</time>
      </trkpt>
      <trkpt lat="45.85654" lon="6.44332">
        <ele>1954</ele>
        <time>2013-02-19T10:55:36Z</time>
      </trkpt>
      <trkpt lat="45.8565" lon="6.44325">
        <ele>1952.5</ele>
        <time>2013-02-19T10:55:37Z</time>
      </trkpt>
      <trkpt lat="45.85647" lon="6.44318">
        <ele>1951.5</ele>
        <time>2013-02-19T10:55:38Z</time>
      </trkpt>
      <trkpt lat="45.85645" lon="6.44306">
        <ele>1948.6</ele>
        <time>2013-02-19T10:55:40Z</time>
      </trkpt>
      <trkpt lat="45.85643" lon="6.443">
        <ele>1947</ele>
        <time>2013-02-19T10:55:41Z</time>
      </trkpt>
      <trkpt lat="45.85639" lon="6.44282">
        <ele>1941.9</ele>
        <time>2013-02-19T10:55:44Z</time>
      </trkpt>
      <trkpt lat="45.85633" lon="6.44275">
        <ele>1940</ele>
        <time>2013-02-19T10:55:49Z</time>
      </trkpt>
      <trkpt lat="45.85628" lon="6.4427">
        <ele>1938.3</ele>
        <time>2013-02-19T10:56:09Z</time>
      </trkpt>
      <trkpt lat="45.85623" lon="6.44264">
        <ele>1936.6</ele>
        <time>2013-02-19T10:56:11Z</time>
      </trkpt>
      <trkpt lat="45.85616" lon="6.44259">
        <ele>1934.5</ele>
        <time>2013-02-19T10:56:13Z</time>
      </trkpt>
      <trkpt lat="45.85612" lon="6.44255">
        <ele>1933.1</ele>
        <time>2013-02-19T10:56:14Z</time>
      </trkpt>
      <trkpt lat="45.85608" lon="6.4425">
        <ele>1932</ele>
        <time>2013-02-19T10:56:15Z</time>
      </trkpt>
      <trkpt lat="45.85607" lon="6.44243">
        <ele>1930.3</ele>
        <time>2013-02-19T10:56:16Z</time>
      </trkpt>
      <trkpt lat="45.85606" lon="6.44235">
        <ele>1928.5</ele>
        <time>2013-02-19T10:56:17Z</time>
      </trkpt>
      <trkpt lat="45.85606" lon="6.44226">
        <ele>1926.4</ele>
        <time>2013-02-19T10:56:18Z</time>
      </trkpt>
      <trkpt lat="45.85605" lon="6.44218">
        <ele>1924.4</ele>
        <time>2013-02-19T10:56:19Z</time>
      </trkpt>
      <trkpt lat="45.85605" lon="6.44211">
        <ele>1922.5</ele>
        <time>2013-02-19T10:56:20Z</time>
      </trkpt>
      <trkpt lat="45.85603" lon="6.442">
        <ele>1920</ele>
        <time>2013-02-19T10:56:22Z</time>
      </trkpt>
      <trkpt lat="45.85602" lon="6.44194">
        <ele>1918.9</ele>
        <time>2013-02-19T10:56:23Z</time>
      </trkpt>
      <trkpt lat="45.856" lon="6.44187">
        <ele>1917.5</ele>
        <time>2013-02-19T10:56:24Z</time>
      </trkpt>
      <trkpt lat="45.85597" lon="6.44182">
        <ele>1916.5</ele>
        <time>2013-02-19T10:56:25Z</time>
      </trkpt>
      <trkpt lat="45.85593" lon="6.44176">
        <ele>1915.5</ele>
        <time>2013-02-19T10:56:26Z</time>
      </trkpt>
      <trkpt lat="45.85589" lon="6.44171">
        <ele>1914.5</ele>
        <time>2013-02-19T10:56:27Z</time>
      </trkpt>
      <trkpt lat="45.85586" lon="6.44165">
        <ele>1913.5</ele>
        <time>2013-02-19T10:56:28Z</time>
      </trkpt>
      <trkpt lat="45.85583" lon="6.44159">
        <ele>1912.5</ele>
        <time>2013-02-19T10:56:29Z</time>
      </trkpt>
      <trkpt lat="45.85579" lon="6.44153">
        <ele>1911.5</ele>
        <time>2013-02-19T10:56:30Z</time>
      </trkpt>
      <trkpt lat="45.85576" lon="6.44149">
        <ele>1910.5</ele>
        <time>2013-02-19T10:56:31Z</time>
      </trkpt>
      <trkpt lat="45.85572" lon="6.44145">
        <ele>1909.8</ele>
        <time>2013-02-19T10:56:32Z</time>
      </trkpt>
      <trkpt lat="45.85565" lon="6.44138">
        <ele>1908.1</ele>
        <time>2013-02-19T10:56:34Z</time>
      </trkpt>
      <trkpt lat="45.85561" lon="6.44134">
        <ele>1907</ele>
        <time>2013-02-19T10:56:35Z</time>
      </trkpt>
      <trkpt lat="45.85557" lon="6.4413">
        <ele>1906</ele>
        <time>2013-02-19T10:56:36Z</time>
      </trkpt>
      <trkpt lat="45.85553" lon="6.44125">
        <ele>1905</ele>
        <time>2013-02-19T10:56:37Z</time>
      </trkpt>
      <trkpt lat="45.85549" lon="6.44119">
        <ele>1904</ele>
        <time>2013-02-19T10:56:38Z</time>
      </trkpt>
      <trkpt lat="45.85545" lon="6.44114">
        <ele>1902.9</ele>
        <time>2013-02-19T10:56:39Z</time>
      </trkpt>
      <trkpt lat="45.85541" lon="6.44109">
        <ele>1901.5</ele>
        <time>2013-02-19T10:56:40Z</time>
      </trkpt>
      <trkpt lat="45.85537" lon="6.44105">
        <ele>1900.1</ele>
        <time>2013-02-19T10:56:41Z</time>
      </trkpt>
      <trkpt lat="45.85537" lon="6.44092">
        <ele>1896.5</ele>
        <time>2013-02-19T10:56:43Z</time>
      </trkpt>
      <trkpt lat="45.85536" lon="6.44084">
        <ele>1893.8</ele>
        <time>2013-02-19T10:56:44Z</time>
      </trkpt>
      <trkpt lat="45.85535" lon="6.44077">
        <ele>1891.1</ele>
        <time>2013-02-19T10:56:45Z</time>
      </trkpt>
      <trkpt lat="45.85536" lon="6.44069">
        <ele>1888</ele>
        <time>2013-02-19T10:56:46Z</time>
      </trkpt>
      <trkpt lat="45.85536" lon="6.44061">
        <ele>1884.8</ele>
        <time>2013-02-19T10:56:47Z</time>
      </trkpt>
      <trkpt lat="45.85534" lon="6.44054">
        <ele>1882.1</ele>
        <time>2013-02-19T10:56:48Z</time>
      </trkpt>
      <trkpt lat="45.85531" lon="6.44046">
        <ele>1880</ele>
        <time>2013-02-19T10:56:49Z</time>
      </trkpt>
      <trkpt lat="45.85531" lon="6.44039">
        <ele>1877.5</ele>
        <time>2013-02-19T10:56:50Z</time>
      </trkpt>
      <trkpt lat="45.85531" lon="6.44033">
        <ele>1875.1</ele>
        <time>2013-02-19T10:56:51Z</time>
      </trkpt>
      <trkpt lat="45.8553" lon="6.44024">
        <ele>1872.5</ele>
        <time>2013-02-19T10:56:52Z</time>
      </trkpt>
      <trkpt lat="45.85527" lon="6.44016">
        <ele>1870.1</ele>
        <time>2013-02-19T10:56:53Z</time>
      </trkpt>
      <trkpt lat="45.85523" lon="6.44007">
        <ele>1868.5</ele>
        <time>2013-02-19T10:56:54Z</time>
      </trkpt>
      <trkpt lat="45.8552" lon="6.44002">
        <ele>1867.5</ele>
        <time>2013-02-19T10:56:55Z</time>
      </trkpt>
      <trkpt lat="45.85514" lon="6.43993">
        <ele>1865.9</ele>
        <time>2013-02-19T10:56:57Z</time>
      </trkpt>
      <trkpt lat="45.85511" lon="6.43987">
        <ele>1864.4</ele>
        <time>2013-02-19T10:56:58Z</time>
      </trkpt>
      <trkpt lat="45.85508" lon="6.4398">
        <ele>1863</ele>
        <time>2013-02-19T10:56:59Z</time>
      </trkpt>
      <trkpt lat="45.85502" lon="6.43972">
        <ele>1861.1</ele>
        <time>2013-02-19T10:57:05Z</time>
      </trkpt>
      <trkpt lat="45.85498" lon="6.4396">
        <ele>1857</ele>
        <time>2013-02-19T10:57:16Z</time>
      </trkpt>
      <trkpt lat="45.855" lon="6.43948">
        <ele>1851.8</ele>
        <time>2013-02-19T10:57:18Z</time>
      </trkpt>
      <trkpt lat="45.85499" lon="6.43941">
        <ele>1849.3</ele>
        <time>2013-02-19T10:57:19Z</time>
      </trkpt>
      <trkpt lat="45.85499" lon="6.43933">
        <ele>1846.1</ele>
        <time>2013-02-19T10:57:20Z</time>
      </trkpt>
      <trkpt lat="45.855" lon="6.43926">
        <ele>1842.8</ele>
        <time>2013-02-19T10:57:21Z</time>
      </trkpt>
      <trkpt lat="45.855" lon="6.43918">
        <ele>1840</ele>
        <time>2013-02-19T10:57:22Z</time>
      </trkpt>
      <trkpt lat="45.85499" lon="6.43911">
        <ele>1837.5</ele>
        <time>2013-02-19T10:57:23Z</time>
      </trkpt>
      <trkpt lat="45.85498" lon="6.43904">
        <ele>1835.1</ele>
        <time>2013-02-19T10:57:24Z</time>
      </trkpt>
      <trkpt lat="45.85495" lon="6.43895">
        <ele>1832.5</ele>
        <time>2013-02-19T10:57:26Z</time>
      </trkpt>
      <trkpt lat="45.85493" lon="6.43888">
        <ele>1830.5</ele>
        <time>2013-02-19T10:57:28Z</time>
      </trkpt>
      <trkpt lat="45.8549" lon="6.43877">
        <ele>1827.9</ele>
        <time>2013-02-19T10:57:30Z</time>
      </trkpt>
      <trkpt lat="45.85486" lon="6.43871">
        <ele>1826.9</ele>
        <time>2013-02-19T10:57:32Z</time>
      </trkpt>
      <trkpt lat="45.8548" lon="6.43862">
        <ele>1825.3</ele>
        <time>2013-02-19T10:57:35Z</time>
      </trkpt>
      <trkpt lat="45.85486" lon="6.43854">
        <ele>1821.1</ele>
        <time>2013-02-19T10:57:51Z</time>
      </trkpt>
      <trkpt lat="45.85487" lon="6.4385">
        <ele>1819.5</ele>
        <time>2013-02-19T10:57:52Z</time>
      </trkpt>
      <trkpt lat="45.85491" lon="6.43834">
        <ele>1812.6</ele>
        <time>2013-02-19T10:58:00Z</time>
      </trkpt>
      <trkpt lat="45.85498" lon="6.43832">
        <ele>1810.6</ele>
        <time>2013-02-19T10:58:02Z</time>
      </trkpt>
      <trkpt lat="45.855" lon="6.4382">
        <ele>1805</ele>
        <time>2013-02-19T10:58:07Z</time>
      </trkpt>
      <trkpt lat="45.85502" lon="6.43811">
        <ele>1801.1</ele>
        <time>2013-02-19T10:58:09Z</time>
      </trkpt>
      <trkpt lat="45.85511" lon="6.43807">
        <ele>1798.1</ele>
        <time>2013-02-19T10:58:11Z</time>
      </trkpt>
      <trkpt lat="45.85511" lon="6.43796">
        <ele>1791.5</ele>
        <time>2013-02-19T10:58:17Z</time>
      </trkpt>
      <trkpt lat="45.85506" lon="6.43789">
        <ele>1789.4</ele>
        <time>2013-02-19T10:58:20Z</time>
      </trkpt>
      <trkpt lat="45.855" lon="6.43782">
        <ele>1787.3</ele>
        <time>2013-02-19T10:58:23Z</time>
      </trkpt>
      <trkpt lat="45.85495" lon="6.43774">
        <ele>1786</ele>
        <time>2013-02-19T10:58:25Z</time>
      </trkpt>
      <trkpt lat="45.8549" lon="6.43766">
        <ele>1784.4</ele>
        <time>2013-02-19T10:58:27Z</time>
      </trkpt>
      <trkpt lat="45.85487" lon="6.43758">
        <ele>1783</ele>
        <time>2013-02-19T10:58:29Z</time>
      </trkpt>
      <trkpt lat="45.85483" lon="6.4375">
        <ele>1781.5</ele>
        <time>2013-02-19T10:58:31Z</time>
      </trkpt>
      <trkpt lat="45.85479" lon="6.43739">
        <ele>1778.8</ele>
        <time>2013-02-19T10:58:33Z</time>
      </trkpt>
      <trkpt lat="45.85473" lon="6.43731">
        <ele>1775.9</ele>
        <time>2013-02-19T10:58:42Z</time>
      </trkpt>
      <trkpt lat="45.85467" lon="6.43722">
        <ele>1772.8</ele>
        <time>2013-02-19T10:58:46Z</time>
      </trkpt>
      <trkpt lat="45.85462" lon="6.43712">
        <ele>1768.3</ele>
        <time>2013-02-19T10:58:56Z</time>
      </trkpt>
      <trkpt lat="45.85461" lon="6.43711">
        <ele>1768.3</ele>
        <time>2013-02-19T10:58:57Z</time>
      </trkpt>
      <trkpt lat="45.85449" lon="6.43704">
        <ele>1764.3</ele>
        <time>2013-02-19T10:59:09Z</time>
      </trkpt>
      <trkpt lat="45.85441" lon="6.43699">
        <ele>1762.1</ele>
        <time>2013-02-19T10:59:12Z</time>
      </trkpt>
      <trkpt lat="45.85434" lon="6.43693">
        <ele>1760.3</ele>
        <time>2013-02-19T10:59:19Z</time>
      </trkpt>
      <trkpt lat="45.85429" lon="6.43687">
        <ele>1759.3</ele>
        <time>2013-02-19T10:59:21Z</time>
      </trkpt>
      <trkpt lat="45.85424" lon="6.43678">
        <ele>1758</ele>
        <time>2013-02-19T10:59:23Z</time>
      </trkpt>
      <trkpt lat="45.8542" lon="6.43673">
        <ele>1757.1</ele>
        <time>2013-02-19T10:59:24Z</time>
      </trkpt>
      <trkpt lat="45.85417" lon="6.43668">
        <ele>1756.1</ele>
        <time>2013-02-19T10:59:25Z</time>
      </trkpt>
      <trkpt lat="45.85413" lon="6.43663">
        <ele>1755</ele>
        <time>2013-02-19T10:59:26Z</time>
      </trkpt>
      <trkpt lat="45.85408" lon="6.43653">
        <ele>1753</ele>
        <time>2013-02-19T10:59:28Z</time>
      </trkpt>
      <trkpt lat="45.85404" lon="6.43643">
        <ele>1750.8</ele>
        <time>2013-02-19T10:59:30Z</time>
      </trkpt>
      <trkpt lat="45.85404" lon="6.43634">
        <ele>1749.5</ele>
        <time>2013-02-19T10:59:32Z</time>
      </trkpt>
      <trkpt lat="45.85401" lon="6.43622">
        <ele>1747.5</ele>
        <time>2013-02-19T10:59:37Z</time>
      </trkpt>
      <trkpt lat="45.85392" lon="6.43619">
        <ele>1742.9</ele>
        <time>2013-02-19T11:02:05Z</time>
      </trkpt>
      <trkpt lat="45.85392" lon="6.43619">
        <ele>1743</ele>
        <time>2013-02-19T11:02:06Z</time>
      </trkpt>
      <trkpt lat="45.85398" lon="6.4361">
        <ele>1757</ele>
        <time>2013-02-19T11:05:23Z</time>
      </trkpt>
      <trkpt lat="45.85381" lon="6.43606">
        <ele>1757.3</ele>
        <time>2013-02-19T11:06:31Z</time>
      </trkpt>
      <trkpt lat="45.8538" lon="6.43606">
        <ele>1757.5</ele>
        <time>2013-02-19T11:06:32Z</time>
      </trkpt>
      <trkpt lat="45.85365" lon="6.43596">
        <ele>1762.5</ele>
        <time>2013-02-19T11:06:58Z</time>
      </trkpt>
      <trkpt lat="45.85357" lon="6.43595">
        <ele>1764.6</ele>
        <time>2013-02-19T11:07:11Z</time>
      </trkpt>
      <trkpt lat="45.85348" lon="6.43594">
        <ele>1765.9</ele>
        <time>2013-02-19T11:07:27Z</time>
      </trkpt>
      <trkpt lat="45.85339" lon="6.43593">
        <ele>1767.5</ele>
        <time>2013-02-19T11:07:42Z</time>
      </trkpt>
      <trkpt lat="45.85339" lon="6.43593">
        <ele>1767.8</ele>
        <time>2013-02-19T11:07:43Z</time>
      </trkpt>
      <trkpt lat="45.85343" lon="6.43618">
        <ele>1773.1</ele>
        <time>2013-02-19T11:08:27Z</time>
      </trkpt>
      <trkpt lat="45.85342" lon="6.43631">
        <ele>1777.1</ele>
        <time>2013-02-19T11:08:45Z</time>
      </trkpt>
      <trkpt lat="45.85342" lon="6.43631">
        <ele>1777.4</ele>
        <time>2013-02-19T11:08:46Z</time>
      </trkpt>
      <trkpt lat="45.85325" lon="6.43627">
        <ele>1790.5</ele>
        <time>2013-02-19T11:10:02Z</time>
      </trkpt>
      <trkpt lat="45.85325" lon="6.43627">
        <ele>1790.4</ele>
        <time>2013-02-19T11:10:03Z</time>
      </trkpt>
      <trkpt lat="45.85317" lon="6.43637">
        <ele>1800.6</ele>
        <time>2013-02-19T11:11:02Z</time>
      </trkpt>
      <trkpt lat="45.85318" lon="6.4365">
        <ele>1801.8</ele>
        <time>2013-02-19T11:11:17Z</time>
      </trkpt>
      <trkpt lat="45.85318" lon="6.43651">
        <ele>1801.9</ele>
        <time>2013-02-19T11:11:18Z</time>
      </trkpt>
      <trkpt lat="45.85302" lon="6.43638">
        <ele>1813</ele>
        <time>2013-02-19T11:12:01Z</time>
      </trkpt>
      <trkpt lat="45.85299" lon="6.43651">
        <ele>1818.3</ele>
        <time>2013-02-19T11:12:30Z</time>
      </trkpt>
      <trkpt lat="45.85299" lon="6.43652">
        <ele>1818.4</ele>
        <time>2013-02-19T11:12:31Z</time>
      </trkpt>
      <trkpt lat="45.85292" lon="6.43663">
        <ele>1830.8</ele>
        <time>2013-02-19T11:13:26Z</time>
      </trkpt>
      <trkpt lat="45.85284" lon="6.43658">
        <ele>1833</ele>
        <time>2013-02-19T11:13:40Z</time>
      </trkpt>
      <trkpt lat="45.85283" lon="6.43658">
        <ele>1833.3</ele>
        <time>2013-02-19T11:13:41Z</time>
      </trkpt>
      <trkpt lat="45.85273" lon="6.43666">
        <ele>1838.6</ele>
        <time>2013-02-19T11:14:19Z</time>
      </trkpt>
      <trkpt lat="45.85266" lon="6.43673">
        <ele>1844.3</ele>
        <time>2013-02-19T11:14:51Z</time>
      </trkpt>
      <trkpt lat="45.85265" lon="6.43673">
        <ele>1844.5</ele>
        <time>2013-02-19T11:14:52Z</time>
      </trkpt>
      <trkpt lat="45.85252" lon="6.43659">
        <ele>1853.8</ele>
        <time>2013-02-19T11:15:23Z</time>
      </trkpt>
      <trkpt lat="45.85251" lon="6.43672">
        <ele>1863.8</ele>
        <time>2013-02-19T11:15:56Z</time>
      </trkpt>
      <trkpt lat="45.85251" lon="6.43673">
        <ele>1864</ele>
        <time>2013-02-19T11:15:57Z</time>
      </trkpt>
      <trkpt lat="45.85244" lon="6.43682">
        <ele>1869.9</ele>
        <time>2013-02-19T11:16:44Z</time>
      </trkpt>
      <trkpt lat="45.85239" lon="6.43692">
        <ele>1879.1</ele>
        <time>2013-02-19T11:17:23Z</time>
      </trkpt>
      <trkpt lat="45.85238" lon="6.43693">
        <ele>1879.4</ele>
        <time>2013-02-19T11:17:24Z</time>
      </trkpt>
      <trkpt lat="45.85228" lon="6.43675">
        <ele>1904.5</ele>
        <time>2013-02-19T11:18:37Z</time>
      </trkpt>
      <trkpt lat="45.85228" lon="6.43675">
        <ele>1904.9</ele>
        <time>2013-02-19T11:18:38Z</time>
      </trkpt>
      <trkpt lat="45.85229" lon="6.43687">
        <ele>1915.8</ele>
        <time>2013-02-19T11:19:35Z</time>
      </trkpt>
      <trkpt lat="45.85234" lon="6.43677">
        <ele>1927.9</ele>
        <time>2013-02-19T11:19:53Z</time>
      </trkpt>
      <trkpt lat="45.85233" lon="6.43676">
        <ele>1927.6</ele>
        <time>2013-02-19T11:19:54Z</time>
      </trkpt>
      <trkpt lat="45.85232" lon="6.43653">
        <ele>1952</ele>
        <time>2013-02-19T11:20:55Z</time>
      </trkpt>
      <trkpt lat="45.85232" lon="6.43653">
        <ele>1952.5</ele>
        <time>2013-02-19T11:20:56Z</time>
      </trkpt>
      <trkpt lat="45.85242" lon="6.43656">
        <ele>1966</ele>
        <time>2013-02-19T11:23:22Z</time>
      </trkpt>
      <trkpt lat="45.85238" lon="6.4366">
        <ele>1962.5</ele>
        <time>2013-02-19T11:26:17Z</time>
      </trkpt>
      <trkpt lat="45.85238" lon="6.4366">
        <ele>1962.5</ele>
        <time>2013-02-19T11:26:18Z</time>
      </trkpt>
      <trkpt lat="45.85223" lon="6.43668">
        <ele>1987.5</ele>
        <time>2013-02-19T11:28:31Z</time>
      </trkpt>
      <trkpt lat="45.85223" lon="6.43668">
        <ele>1987.5</ele>
        <time>2013-02-19T11:28:32Z</time>
      </trkpt>
      <trkpt lat="45.85214" lon="6.43669">
        <ele>2016.3</ele>
        <time>2013-02-19T11:30:22Z</time>
      </trkpt>
      <trkpt lat="45.85198" lon="6.43672">
        <ele>2010.3</ele>
        <time>2013-02-19T11:31:02Z</time>
      </trkpt>
      <trkpt lat="45.8519" lon="6.43678">
        <ele>2005.1</ele>
        <time>2013-02-19T11:31:22Z</time>
      </trkpt>
      <trkpt lat="45.85189" lon="6.43679">
        <ele>2004</ele>
        <time>2013-02-19T11:31:23Z</time>
      </trkpt>
      <trkpt lat="45.85173" lon="6.43682">
        <ele>1987.3</ele>
        <time>2013-02-19T11:31:42Z</time>
      </trkpt>
      <trkpt lat="45.85166" lon="6.43688">
        <ele>1985.5</ele>
        <time>2013-02-19T11:32:05Z</time>
      </trkpt>
      <trkpt lat="45.85159" lon="6.43694">
        <ele>1989.1</ele>
        <time>2013-02-19T11:32:45Z</time>
      </trkpt>
      <trkpt lat="45.85158" lon="6.43695">
        <ele>1988.1</ele>
        <time>2013-02-19T11:32:49Z</time>
      </trkpt>
      <trkpt lat="45.85149" lon="6.43714">
        <ele>2013</ele>
        <time>2013-02-19T11:34:30Z</time>
      </trkpt>
      <trkpt lat="45.85105" lon="6.43739">
        <ele>2002.5</ele>
        <time>2013-02-19T11:36:31Z</time>
      </trkpt>
      <trkpt lat="45.85086" lon="6.43752">
        <ele>1984.3</ele>
        <time>2013-02-19T11:36:57Z</time>
      </trkpt>
      <trkpt lat="45.85077" lon="6.43753">
        <ele>1986.6</ele>
        <time>2013-02-19T11:37:29Z</time>
      </trkpt>
      <trkpt lat="45.85075" lon="6.43741">
        <ele>1988.6</ele>
        <time>2013-02-19T11:37:48Z</time>
      </trkpt>
      <trkpt lat="45.85075" lon="6.4374">
        <ele>1988.3</ele>
        <time>2013-02-19T11:37:49Z</time>
      </trkpt>
      <trkpt lat="45.8507" lon="6.43768">
        <ele>1987</ele>
        <time>2013-02-19T11:38:41Z</time>
      </trkpt>
      <trkpt lat="45.85065" lon="6.43778">
        <ele>1990.5</ele>
        <time>2013-02-19T11:39:06Z</time>
      </trkpt>
      <trkpt lat="45.85064" lon="6.43778">
        <ele>1990.5</ele>
        <time>2013-02-19T11:39:07Z</time>
      </trkpt>
      <trkpt lat="45.85049" lon="6.43785">
        <ele>1986.1</ele>
        <time>2013-02-19T11:39:38Z</time>
      </trkpt>
      <trkpt lat="45.85042" lon="6.43793">
        <ele>1988.1</ele>
        <time>2013-02-19T11:40:08Z</time>
      </trkpt>
      <trkpt lat="45.85042" lon="6.43793">
        <ele>1988</ele>
        <time>2013-02-19T11:40:09Z</time>
      </trkpt>
      <trkpt lat="45.85025" lon="6.43799">
        <ele>1991</ele>
        <time>2013-02-19T11:41:41Z</time>
      </trkpt>
      <trkpt lat="45.85025" lon="6.43798">
        <ele>1992.6</ele>
        <time>2013-02-19T11:41:43Z</time>
      </trkpt>
      <trkpt lat="45.85006" lon="6.43799">
        <ele>1998</ele>
        <time>2013-02-19T11:42:34Z</time>
      </trkpt>
      <trkpt lat="45.84998" lon="6.43802">
        <ele>2000.5</ele>
        <time>2013-02-19T11:43:03Z</time>
      </trkpt>
      <trkpt lat="45.84998" lon="6.43803">
        <ele>2000.4</ele>
        <time>2013-02-19T11:43:04Z</time>
      </trkpt>
      <trkpt lat="45.8499" lon="6.43825">
        <ele>1990.9</ele>
        <time>2013-02-19T11:44:04Z</time>
      </trkpt>
      <trkpt lat="45.8499" lon="6.43825">
        <ele>1990.4</ele>
        <time>2013-02-19T11:44:05Z</time>
      </trkpt>
      <trkpt lat="45.84988" lon="6.43824">
        <ele>2033.4</ele>
        <time>2013-02-19T11:45:06Z</time>
      </trkpt>
      <trkpt lat="45.8499" lon="6.43823">
        <ele>2035.8</ele>
        <time>2013-02-19T11:45:07Z</time>
      </trkpt>
      <trkpt lat="45.85003" lon="6.4381">
        <ele>2070</ele>
        <time>2013-02-19T11:46:33Z</time>
      </trkpt>
      <trkpt lat="45.85003" lon="6.43809">
        <ele>2070.3</ele>
        <time>2013-02-19T11:46:34Z</time>
      </trkpt>
      <trkpt lat="45.85005" lon="6.43814">
        <ele>2061.8</ele>
        <time>2013-02-19T11:50:38Z</time>
      </trkpt>
      <trkpt lat="45.85005" lon="6.43814">
        <ele>2061.6</ele>
        <time>2013-02-19T11:50:39Z</time>
      </trkpt>
      <trkpt lat="45.84996" lon="6.43816">
        <ele>2074.1</ele>
        <time>2013-02-19T11:52:58Z</time>
      </trkpt>
      <trkpt lat="45.84981" lon="6.43825">
        <ele>2078.8</ele>
        <time>2013-02-19T11:54:03Z</time>
      </trkpt>
      <trkpt lat="45.8498" lon="6.43826">
        <ele>2078.8</ele>
        <time>2013-02-19T11:54:04Z</time>
      </trkpt>
      <trkpt lat="45.84973" lon="6.43832">
        <ele>2096.3</ele>
        <time>2013-02-19T11:55:35Z</time>
      </trkpt>
      <trkpt lat="45.84974" lon="6.43845">
        <ele>2120.1</ele>
        <time>2013-02-19T11:58:32Z</time>
      </trkpt>
      <trkpt lat="45.84979" lon="6.43856">
        <ele>2147</ele>
        <time>2013-02-19T12:00:40Z</time>
      </trkpt>
      <trkpt lat="45.84968" lon="6.43876">
        <ele>2150.6</ele>
        <time>2013-02-19T12:01:51Z</time>
      </trkpt>
      <trkpt lat="45.84968" lon="6.43876">
        <ele>2150.6</ele>
        <time>2013-02-19T12:01:52Z</time>
      </trkpt>
      <trkpt lat="45.84955" lon="6.43893">
        <ele>2148.6</ele>
        <time>2013-02-19T12:03:17Z</time>
      </trkpt>
      <trkpt lat="45.84955" lon="6.43894">
        <ele>2148.6</ele>
        <time>2013-02-19T12:03:18Z</time>
      </trkpt>
      <trkpt lat="45.84952" lon="6.43905">
        <ele>2156.5</ele>
        <time>2013-02-19T12:05:41Z</time>
      </trkpt>
      <trkpt lat="45.84953" lon="6.43918">
        <ele>2157.8</ele>
        <time>2013-02-19T12:06:44Z</time>
      </trkpt>
      <trkpt lat="45.84953" lon="6.43943">
        <ele>2164.3</ele>
        <time>2013-02-19T12:08:17Z</time>
      </trkpt>
      <trkpt lat="45.84953" lon="6.43943">
        <ele>2164.3</ele>
        <time>2013-02-19T12:08:18Z</time>
      </trkpt>
      <trkpt lat="45.84952" lon="6.43968">
        <ele>2188.3</ele>
        <time>2013-02-19T12:10:13Z</time>
      </trkpt>
      <trkpt lat="45.84952" lon="6.43968">
        <ele>2188.5</ele>
        <time>2013-02-19T12:10:14Z</time>
      </trkpt>
      <trkpt lat="45.84962" lon="6.43988">
        <ele>2197.8</ele>
        <time>2013-02-19T12:11:45Z</time>
      </trkpt>
      <trkpt lat="45.84962" lon="6.43989">
        <ele>2197.8</ele>
        <time>2013-02-19T12:11:46Z</time>
      </trkpt>
      <trkpt lat="45.84964" lon="6.43976">
        <ele>2201.5</ele>
        <time>2013-02-19T12:14:24Z</time>
      </trkpt>
      <trkpt lat="45.84966" lon="6.43989">
        <ele>2202.6</ele>
        <time>2013-02-19T12:15:25Z</time>
      </trkpt>
      <trkpt lat="45.84955" lon="6.44007">
        <ele>2215.6</ele>
        <time>2013-02-19T12:16:26Z</time>
      </trkpt>
      <trkpt lat="45.84954" lon="6.44007">
        <ele>2216</ele>
        <time>2013-02-19T12:16:27Z</time>
      </trkpt>
      <trkpt lat="45.8496" lon="6.43996">
        <ele>2210.8</ele>
        <time>2013-02-19T12:17:56Z</time>
      </trkpt>
      <trkpt lat="45.84945" lon="6.43985">
        <ele>2237.5</ele>
        <time>2013-02-19T12:19:26Z</time>
      </trkpt>
      <trkpt lat="45.84948" lon="6.43994">
        <ele>2229.6</ele>
        <time>2013-02-19T12:20:30Z</time>
      </trkpt>
      <trkpt lat="45.8495" lon="6.43996">
        <ele>2229.5</ele>
        <time>2013-02-19T12:20:34Z</time>
      </trkpt>
      <trkpt lat="45.8496" lon="6.43981">
        <ele>2216.1</ele>
        <time>2013-02-19T12:21:05Z</time>
      </trkpt>
      <trkpt lat="45.84968" lon="6.43983">
        <ele>2208.5</ele>
        <time>2013-02-19T12:21:19Z</time>
      </trkpt>
      <trkpt lat="45.84962" lon="6.43962">
        <ele>2210</ele>
        <time>2013-02-19T12:21:57Z</time>
      </trkpt>
      <trkpt lat="45.8496" lon="6.43957">
        <ele>2211.1</ele>
        <time>2013-02-19T12:22:02Z</time>
      </trkpt>
      <trkpt lat="45.84952" lon="6.43938">
        <ele>2213</ele>
        <time>2013-02-19T12:22:16Z</time>
      </trkpt>
      <trkpt lat="45.84947" lon="6.43928">
        <ele>2215.8</ele>
        <time>2013-02-19T12:22:27Z</time>
      </trkpt>
      <trkpt lat="45.84941" lon="6.43918">
        <ele>2218.1</ele>
        <time>2013-02-19T12:22:39Z</time>
      </trkpt>
      <trkpt lat="45.84936" lon="6.43909">
        <ele>2221.3</ele>
        <time>2013-02-19T12:22:47Z</time>
      </trkpt>
      <trkpt lat="45.84931" lon="6.43899">
        <ele>2225.3</ele>
        <time>2013-02-19T12:22:54Z</time>
      </trkpt>
      <trkpt lat="45.84936" lon="6.43909">
        <ele>2202.1</ele>
        <time>2013-02-19T12:24:04Z</time>
      </trkpt>
      <trkpt lat="45.84936" lon="6.4391">
        <ele>2201.3</ele>
        <time>2013-02-19T12:24:05Z</time>
      </trkpt>
      <trkpt lat="45.84946" lon="6.43928">
        <ele>2196.3</ele>
        <time>2013-02-19T12:24:21Z</time>
      </trkpt>
      <trkpt lat="45.8495" lon="6.43939">
        <ele>2198.3</ele>
        <time>2013-02-19T12:24:30Z</time>
      </trkpt>
      <trkpt lat="45.84953" lon="6.43951">
        <ele>2202.1</ele>
        <time>2013-02-19T12:24:39Z</time>
      </trkpt>
      <trkpt lat="45.84957" lon="6.43962">
        <ele>2205.1</ele>
        <time>2013-02-19T12:24:47Z</time>
      </trkpt>
      <trkpt lat="45.8496" lon="6.43973">
        <ele>2209.8</ele>
        <time>2013-02-19T12:24:56Z</time>
      </trkpt>
      <trkpt lat="45.84963" lon="6.43985">
        <ele>2214.6</ele>
        <time>2013-02-19T12:25:06Z</time>
      </trkpt>
      <trkpt lat="45.84964" lon="6.43989">
        <ele>2216.3</ele>
        <time>2013-02-19T12:25:10Z</time>
      </trkpt>
      <trkpt lat="45.84968" lon="6.44">
        <ele>2220.5</ele>
        <time>2013-02-19T12:25:22Z</time>
      </trkpt>
      <trkpt lat="45.84972" lon="6.4401">
        <ele>2222.1</ele>
        <time>2013-02-19T12:25:30Z</time>
      </trkpt>
      <trkpt lat="45.84972" lon="6.44022">
        <ele>2231.1</ele>
        <time>2013-02-19T12:25:57Z</time>
      </trkpt>
      <trkpt lat="45.84972" lon="6.44034">
        <ele>2257.5</ele>
        <time>2013-02-19T12:26:52Z</time>
      </trkpt>
      <trkpt lat="45.84972" lon="6.44035">
        <ele>2259</ele>
        <time>2013-02-19T12:26:53Z</time>
      </trkpt>
      <trkpt lat="45.84969" lon="6.44051">
        <ele>2274.6</ele>
        <time>2013-02-19T12:27:27Z</time>
      </trkpt>
      <trkpt lat="45.84969" lon="6.44063">
        <ele>2282</ele>
        <time>2013-02-19T12:27:31Z</time>
      </trkpt>
      <trkpt lat="45.8497" lon="6.44075">
        <ele>2289.3</ele>
        <time>2013-02-19T12:27:39Z</time>
      </trkpt>
      <trkpt lat="45.84973" lon="6.44085">
        <ele>2298.6</ele>
        <time>2013-02-19T12:27:52Z</time>
      </trkpt>
      <trkpt lat="45.84975" lon="6.4409">
        <ele>2302.8</ele>
        <time>2013-02-19T12:28:02Z</time>
      </trkpt>
      <trkpt lat="45.84972" lon="6.44086">
        <ele>2292.8</ele>
        <time>2013-02-19T12:28:44Z</time>
      </trkpt>
      <trkpt lat="45.84969" lon="6.44076">
        <ele>2280.6</ele>
        <time>2013-02-19T12:28:47Z</time>
      </trkpt>
      <trkpt lat="45.84967" lon="6.44066">
        <ele>2268.3</ele>
        <time>2013-02-19T12:28:50Z</time>
      </trkpt>
      <trkpt lat="45.84966" lon="6.44055">
        <ele>2258.1</ele>
        <time>2013-02-19T12:28:52Z</time>
      </trkpt>
      <trkpt lat="45.84965" lon="6.44044">
        <ele>2248.3</ele>
        <time>2013-02-19T12:28:54Z</time>
      </trkpt>
      <trkpt lat="45.84963" lon="6.44029">
        <ele>2209</ele>
        <time>2013-02-19T12:29:05Z</time>
      </trkpt>
      <trkpt lat="45.84964" lon="6.44027">
        <ele>2205.5</ele>
        <time>2013-02-19T12:29:07Z</time>
      </trkpt>
      <trkpt lat="45.84972" lon="6.44012">
        <ele>2151.3</ele>
        <time>2013-02-19T12:29:20Z</time>
      </trkpt>
      <trkpt lat="45.84972" lon="6.43999">
        <ele>2140.6</ele>
        <time>2013-02-19T12:29:23Z</time>
      </trkpt>
      <trkpt lat="45.84969" lon="6.43987">
        <ele>2140.3</ele>
        <time>2013-02-19T12:29:25Z</time>
      </trkpt>
      <trkpt lat="45.84968" lon="6.43982">
        <ele>2140</ele>
        <time>2013-02-19T12:29:26Z</time>
      </trkpt>
      <trkpt lat="45.84967" lon="6.4397">
        <ele>2139.6</ele>
        <time>2013-02-19T12:29:28Z</time>
      </trkpt>
      <trkpt lat="45.84967" lon="6.43959">
        <ele>2148.8</ele>
        <time>2013-02-19T12:29:36Z</time>
      </trkpt>
      <trkpt lat="45.84962" lon="6.43949">
        <ele>2160.6</ele>
        <time>2013-02-19T12:29:44Z</time>
      </trkpt>
      <trkpt lat="45.84957" lon="6.43941">
        <ele>2169.6</ele>
        <time>2013-02-19T12:29:52Z</time>
      </trkpt>
      <trkpt lat="45.84953" lon="6.43931">
        <ele>2172.3</ele>
        <time>2013-02-19T12:29:57Z</time>
      </trkpt>
      <trkpt lat="45.84947" lon="6.43923">
        <ele>2176</ele>
        <time>2013-02-19T12:30:08Z</time>
      </trkpt>
      <trkpt lat="45.84946" lon="6.43922">
        <ele>2176.6</ele>
        <time>2013-02-19T12:30:09Z</time>
      </trkpt>
      <trkpt lat="45.84939" lon="6.43934">
        <ele>2186</ele>
        <time>2013-02-19T12:31:04Z</time>
      </trkpt>
      <trkpt lat="45.8494" lon="6.43922">
        <ele>2179.5</ele>
        <time>2013-02-19T12:31:13Z</time>
      </trkpt>
      <trkpt lat="45.84939" lon="6.43915">
        <ele>2176.1</ele>
        <time>2013-02-19T12:31:14Z</time>
      </trkpt>
      <trkpt lat="45.84939" lon="6.43908">
        <ele>2173</ele>
        <time>2013-02-19T12:31:15Z</time>
      </trkpt>
      <trkpt lat="45.84939" lon="6.43895">
        <ele>2167.5</ele>
        <time>2013-02-19T12:31:17Z</time>
      </trkpt>
      <trkpt lat="45.84938" lon="6.43884">
        <ele>2162.8</ele>
        <time>2013-02-19T12:31:19Z</time>
      </trkpt>
      <trkpt lat="45.84937" lon="6.4387">
        <ele>2155.8</ele>
        <time>2013-02-19T12:31:22Z</time>
      </trkpt>
      <trkpt lat="45.84937" lon="6.43857">
        <ele>2148.1</ele>
        <time>2013-02-19T12:31:26Z</time>
      </trkpt>
      <trkpt lat="45.84937" lon="6.43869">
        <ele>2150.1</ele>
        <time>2013-02-19T12:31:57Z</time>
      </trkpt>
      <trkpt lat="45.84936" lon="6.43882">
        <ele>2157.6</ele>
        <time>2013-02-19T12:32:05Z</time>
      </trkpt>
      <trkpt lat="45.84936" lon="6.43894">
        <ele>2162.3</ele>
        <time>2013-02-19T12:32:20Z</time>
      </trkpt>
      <trkpt lat="45.84936" lon="6.43895">
        <ele>2162.3</ele>
        <time>2013-02-19T12:32:21Z</time>
      </trkpt>
      <trkpt lat="45.84942" lon="6.43916">
        <ele>2162.3</ele>
        <time>2013-02-19T12:32:38Z</time>
      </trkpt>
      <trkpt lat="45.84945" lon="6.43928">
        <ele>2169.8</ele>
        <time>2013-02-19T12:32:47Z</time>
      </trkpt>
      <trkpt lat="45.84945" lon="6.4394">
        <ele>2186.3</ele>
        <time>2013-02-19T12:33:06Z</time>
      </trkpt>
      <trkpt lat="45.84947" lon="6.43946">
        <ele>2191.1</ele>
        <time>2013-02-19T12:33:11Z</time>
      </trkpt>
      <trkpt lat="45.8495" lon="6.43958">
        <ele>2199.8</ele>
        <time>2013-02-19T12:33:22Z</time>
      </trkpt>
      <trkpt lat="45.8495" lon="6.43959">
        <ele>2200.6</ele>
        <time>2013-02-19T12:33:23Z</time>
      </trkpt>
      <trkpt lat="45.84959" lon="6.43976">
        <ele>2199.8</ele>
        <time>2013-02-19T12:34:32Z</time>
      </trkpt>
      <trkpt lat="45.84959" lon="6.43977">
        <ele>2199.5</ele>
        <time>2013-02-19T12:34:33Z</time>
      </trkpt>
      <trkpt lat="45.84946" lon="6.43964">
        <ele>2232.6</ele>
        <time>2013-02-19T12:35:28Z</time>
      </trkpt>
      <trkpt lat="45.84938" lon="6.43959">
        <ele>2246.5</ele>
        <time>2013-02-19T12:35:40Z</time>
      </trkpt>
      <trkpt lat="45.84937" lon="6.43959">
        <ele>2247</ele>
        <time>2013-02-19T12:35:41Z</time>
      </trkpt>
      <trkpt lat="45.84951" lon="6.43974">
        <ele>2222.8</ele>
        <time>2013-02-19T12:36:12Z</time>
      </trkpt>
      <trkpt lat="45.84957" lon="6.43984">
        <ele>2214.6</ele>
        <time>2013-02-19T12:36:23Z</time>
      </trkpt>
      <trkpt lat="45.84962" lon="6.43993">
        <ele>2207.8</ele>
        <time>2013-02-19T12:36:31Z</time>
      </trkpt>
      <trkpt lat="45.84967" lon="6.44004">
        <ele>2202.8</ele>
        <time>2013-02-19T12:36:43Z</time>
      </trkpt>
      <trkpt lat="45.84968" lon="6.44004">
        <ele>2202.8</ele>
        <time>2013-02-19T12:36:44Z</time>
      </trkpt>
      <trkpt lat="45.84965" lon="6.44006">
        <ele>2215.8</ele>
        <time>2013-02-19T12:37:32Z</time>
      </trkpt>
      <trkpt lat="45.84958" lon="6.44">
        <ele>2227.8</ele>
        <time>2013-02-19T12:37:51Z</time>
      </trkpt>
      <trkpt lat="45.84958" lon="6.43998">
        <ele>2227.8</ele>
        <time>2013-02-19T12:37:52Z</time>
      </trkpt>
      <trkpt lat="45.84955" lon="6.43978">
        <ele>2225.1</ele>
        <time>2013-02-19T12:38:11Z</time>
      </trkpt>
      <trkpt lat="45.84949" lon="6.4397">
        <ele>2230.3</ele>
        <time>2013-02-19T12:38:20Z</time>
      </trkpt>
      <trkpt lat="45.84942" lon="6.43964">
        <ele>2236.8</ele>
        <time>2013-02-19T12:38:25Z</time>
      </trkpt>
      <trkpt lat="45.84935" lon="6.4396">
        <ele>2244.5</ele>
        <time>2013-02-19T12:38:30Z</time>
      </trkpt>
      <trkpt lat="45.84943" lon="6.43954">
        <ele>2234.1</ele>
        <time>2013-02-19T12:39:35Z</time>
      </trkpt>
      <trkpt lat="45.84944" lon="6.43954">
        <ele>2234</ele>
        <time>2013-02-19T12:39:36Z</time>
      </trkpt>
      <trkpt lat="45.84957" lon="6.43964">
        <ele>2222</ele>
        <time>2013-02-19T12:40:12Z</time>
      </trkpt>
      <trkpt lat="45.84949" lon="6.43965">
        <ele>2227.5</ele>
        <time>2013-02-19T12:41:21Z</time>
      </trkpt>
      <trkpt lat="45.84947" lon="6.43964">
        <ele>2229.3</ele>
        <time>2013-02-19T12:41:22Z</time>
      </trkpt>
      <trkpt lat="45.84935" lon="6.43953">
        <ele>2239.6</ele>
        <time>2013-02-19T12:41:35Z</time>
      </trkpt>
      <trkpt lat="45.84927" lon="6.4395">
        <ele>2247.6</ele>
        <time>2013-02-19T12:41:45Z</time>
      </trkpt>
      <trkpt lat="45.8492" lon="6.43943">
        <ele>2255.8</ele>
        <time>2013-02-19T12:41:52Z</time>
      </trkpt>
      <trkpt lat="45.84913" lon="6.43938">
        <ele>2267.6</ele>
        <time>2013-02-19T12:42:19Z</time>
      </trkpt>
      <trkpt lat="45.84919" lon="6.43943">
        <ele>2264.3</ele>
        <time>2013-02-19T12:42:58Z</time>
      </trkpt>
      <trkpt lat="45.84921" lon="6.43945">
        <ele>2261.6</ele>
        <time>2013-02-19T12:42:59Z</time>
      </trkpt>
      <trkpt lat="45.84946" lon="6.43954">
        <ele>2230.3</ele>
        <time>2013-02-19T12:43:12Z</time>
      </trkpt>
      <trkpt lat="45.84954" lon="6.43959">
        <ele>2221.3</ele>
        <time>2013-02-19T12:43:24Z</time>
      </trkpt>
      <trkpt lat="45.8496" lon="6.43968">
        <ele>2235.8</ele>
        <time>2013-02-19T12:44:37Z</time>
      </trkpt>
      <trkpt lat="45.84961" lon="6.43969">
        <ele>2234.3</ele>
        <time>2013-02-19T12:44:40Z</time>
      </trkpt>
      <trkpt lat="45.84955" lon="6.43955">
        <ele>2205.3</ele>
        <time>2013-02-19T12:46:09Z</time>
      </trkpt>
      <trkpt lat="45.84957" lon="6.43933">
        <ele>2184.6</ele>
        <time>2013-02-19T12:46:40Z</time>
      </trkpt>
      <trkpt lat="45.84955" lon="6.43921">
        <ele>2179.8</ele>
        <time>2013-02-19T12:46:45Z</time>
      </trkpt>
      <trkpt lat="45.84956" lon="6.43909">
        <ele>2170.1</ele>
        <time>2013-02-19T12:46:53Z</time>
      </trkpt>
      <trkpt lat="45.84955" lon="6.43897">
        <ele>2155.6</ele>
        <time>2013-02-19T12:47:57Z</time>
      </trkpt>
      <trkpt lat="45.84956" lon="6.43896">
        <ele>2154.8</ele>
        <time>2013-02-19T12:47:58Z</time>
      </trkpt>
      <trkpt lat="45.84962" lon="6.4388">
        <ele>2145.1</ele>
        <time>2013-02-19T12:48:07Z</time>
      </trkpt>
      <trkpt lat="45.84963" lon="6.43869">
        <ele>2137.6</ele>
        <time>2013-02-19T12:48:16Z</time>
      </trkpt>
      <trkpt lat="45.84967" lon="6.43858">
        <ele>2130.3</ele>
        <time>2013-02-19T12:48:22Z</time>
      </trkpt>
      <trkpt lat="45.84971" lon="6.43848">
        <ele>2125.5</ele>
        <time>2013-02-19T12:48:47Z</time>
      </trkpt>
      <trkpt lat="45.84969" lon="6.43836">
        <ele>2120.5</ele>
        <time>2013-02-19T12:48:54Z</time>
      </trkpt>
      <trkpt lat="45.84973" lon="6.43825">
        <ele>2112</ele>
        <time>2013-02-19T12:49:02Z</time>
      </trkpt>
      <trkpt lat="45.84976" lon="6.43825">
        <ele>2110.3</ele>
        <time>2013-02-19T12:49:03Z</time>
      </trkpt>
      <trkpt lat="45.84987" lon="6.43816">
        <ele>2103.8</ele>
        <time>2013-02-19T12:49:18Z</time>
      </trkpt>
      <trkpt lat="45.84995" lon="6.43813">
        <ele>2099.3</ele>
        <time>2013-02-19T12:49:21Z</time>
      </trkpt>
      <trkpt lat="45.85003" lon="6.43811">
        <ele>2079</ele>
        <time>2013-02-19T12:51:43Z</time>
      </trkpt>
      <trkpt lat="45.85004" lon="6.43811">
        <ele>2078.5</ele>
        <time>2013-02-19T12:51:44Z</time>
      </trkpt>
      <trkpt lat="45.85016" lon="6.43803">
        <ele>2072.6</ele>
        <time>2013-02-19T12:51:55Z</time>
      </trkpt>
      <trkpt lat="45.85025" lon="6.43799">
        <ele>2066.1</ele>
        <time>2013-02-19T12:52:05Z</time>
      </trkpt>
      <trkpt lat="45.8503" lon="6.43809">
        <ele>2055.1</ele>
        <time>2013-02-19T12:52:32Z</time>
      </trkpt>
      <trkpt lat="45.85035" lon="6.43819">
        <ele>2048.3</ele>
        <time>2013-02-19T12:52:42Z</time>
      </trkpt>
      <trkpt lat="45.85042" lon="6.43815">
        <ele>2043.1</ele>
        <time>2013-02-19T12:53:02Z</time>
      </trkpt>
      <trkpt lat="45.85043" lon="6.43814">
        <ele>2043.4</ele>
        <time>2013-02-19T12:53:03Z</time>
      </trkpt>
      <trkpt lat="45.85044" lon="6.43792">
        <ele>2054.3</ele>
        <time>2013-02-19T12:53:16Z</time>
      </trkpt>
      <trkpt lat="45.85045" lon="6.43781">
        <ele>2070.1</ele>
        <time>2013-02-19T12:53:26Z</time>
      </trkpt>
      <trkpt lat="45.85052" lon="6.43773">
        <ele>2078.3</ele>
        <time>2013-02-19T12:53:35Z</time>
      </trkpt>
      <trkpt lat="45.85058" lon="6.43766">
        <ele>2100.8</ele>
        <time>2013-02-19T12:53:57Z</time>
      </trkpt>
      <trkpt lat="45.85067" lon="6.43761">
        <ele>2096.3</ele>
        <time>2013-02-19T12:54:14Z</time>
      </trkpt>
      <trkpt lat="45.85067" lon="6.4376">
        <ele>2095.1</ele>
        <time>2013-02-19T12:54:15Z</time>
      </trkpt>
      <trkpt lat="45.85071" lon="6.43743">
        <ele>2076.6</ele>
        <time>2013-02-19T12:54:34Z</time>
      </trkpt>
      <trkpt lat="45.85066" lon="6.43733">
        <ele>2073.3</ele>
        <time>2013-02-19T12:54:53Z</time>
      </trkpt>
      <trkpt lat="45.85072" lon="6.43725">
        <ele>2076.3</ele>
        <time>2013-02-19T12:55:16Z</time>
      </trkpt>
      <trkpt lat="45.85073" lon="6.43725">
        <ele>2075.5</ele>
        <time>2013-02-19T12:55:17Z</time>
      </trkpt>
      <trkpt lat="45.85091" lon="6.43725">
        <ele>2071.3</ele>
        <time>2013-02-19T12:55:42Z</time>
      </trkpt>
      <trkpt lat="45.85096" lon="6.43721">
        <ele>2061.1</ele>
        <time>2013-02-19T12:55:53Z</time>
      </trkpt>
      <trkpt lat="45.85103" lon="6.43717">
        <ele>2056.6</ele>
        <time>2013-02-19T12:56:20Z</time>
      </trkpt>
      <trkpt lat="45.85105" lon="6.43717">
        <ele>2056.6</ele>
        <time>2013-02-19T12:56:21Z</time>
      </trkpt>
      <trkpt lat="45.8512" lon="6.43712">
        <ele>2053.6</ele>
        <time>2013-02-19T12:56:32Z</time>
      </trkpt>
      <trkpt lat="45.85123" lon="6.43701">
        <ele>2042.5</ele>
        <time>2013-02-19T12:56:40Z</time>
      </trkpt>
      <trkpt lat="45.85127" lon="6.4369">
        <ele>2026.3</ele>
        <time>2013-02-19T12:56:54Z</time>
      </trkpt>
      <trkpt lat="45.85131" lon="6.43681">
        <ele>2020.9</ele>
        <time>2013-02-19T12:56:57Z</time>
      </trkpt>
      <trkpt lat="45.85138" lon="6.43673">
        <ele>2012.6</ele>
        <time>2013-02-19T12:57:02Z</time>
      </trkpt>
      <trkpt lat="45.85146" lon="6.43669">
        <ele>2003.5</ele>
        <time>2013-02-19T12:57:22Z</time>
      </trkpt>
      <trkpt lat="45.85146" lon="6.43668">
        <ele>2003.3</ele>
        <time>2013-02-19T12:57:23Z</time>
      </trkpt>
      <trkpt lat="45.85158" lon="6.43657">
        <ele>1996.1</ele>
        <time>2013-02-19T12:57:32Z</time>
      </trkpt>
      <trkpt lat="45.85166" lon="6.43655">
        <ele>1991</ele>
        <time>2013-02-19T12:57:35Z</time>
      </trkpt>
      <trkpt lat="45.85174" lon="6.43652">
        <ele>1986.1</ele>
        <time>2013-02-19T12:57:39Z</time>
      </trkpt>
      <trkpt lat="45.85182" lon="6.43658">
        <ele>1988.6</ele>
        <time>2013-02-19T12:57:53Z</time>
      </trkpt>
      <trkpt lat="45.85184" lon="6.4367">
        <ele>2007.6</ele>
        <time>2013-02-19T12:58:08Z</time>
      </trkpt>
      <trkpt lat="45.85185" lon="6.43683">
        <ele>2015.5</ele>
        <time>2013-02-19T12:58:48Z</time>
      </trkpt>
      <trkpt lat="45.85185" lon="6.43683">
        <ele>2015</ele>
        <time>2013-02-19T12:58:49Z</time>
      </trkpt>
      <trkpt lat="45.852" lon="6.43686">
        <ele>1994.8</ele>
        <time>2013-02-19T12:59:07Z</time>
      </trkpt>
      <trkpt lat="45.85206" lon="6.4368">
        <ele>1986.3</ele>
        <time>2013-02-19T12:59:11Z</time>
      </trkpt>
      <trkpt lat="45.85215" lon="6.43675">
        <ele>1975.3</ele>
        <time>2013-02-19T12:59:15Z</time>
      </trkpt>
      <trkpt lat="45.85222" lon="6.43677">
        <ele>1963.8</ele>
        <time>2013-02-19T12:59:19Z</time>
      </trkpt>
      <trkpt lat="45.85228" lon="6.43682">
        <ele>1958.3</ele>
        <time>2013-02-19T12:59:21Z</time>
      </trkpt>
      <trkpt lat="45.85234" lon="6.43686">
        <ele>1953</ele>
        <time>2013-02-19T12:59:23Z</time>
      </trkpt>
      <trkpt lat="45.85241" lon="6.4368">
        <ele>1939.8</ele>
        <time>2013-02-19T12:59:27Z</time>
      </trkpt>
      <trkpt lat="45.85249" lon="6.43676">
        <ele>1911.6</ele>
        <time>2013-02-19T12:59:42Z</time>
      </trkpt>
      <trkpt lat="45.85255" lon="6.4368">
        <ele>1907.5</ele>
        <time>2013-02-19T12:59:44Z</time>
      </trkpt>
      <trkpt lat="45.8526" lon="6.43674">
        <ele>1899.6</ele>
        <time>2013-02-19T12:59:47Z</time>
      </trkpt>
      <trkpt lat="45.85269" lon="6.43674">
        <ele>1893.1</ele>
        <time>2013-02-19T12:59:50Z</time>
      </trkpt>
      <trkpt lat="45.8527" lon="6.4367">
        <ele>1890.6</ele>
        <time>2013-02-19T12:59:51Z</time>
      </trkpt>
      <trkpt lat="45.85278" lon="6.43657">
        <ele>1878.5</ele>
        <time>2013-02-19T12:59:56Z</time>
      </trkpt>
      <trkpt lat="45.85287" lon="6.43658">
        <ele>1873</ele>
        <time>2013-02-19T12:59:59Z</time>
      </trkpt>
      <trkpt lat="45.85293" lon="6.43664">
        <ele>1870.5</ele>
        <time>2013-02-19T13:00:01Z</time>
      </trkpt>
      <trkpt lat="45.85298" lon="6.43657">
        <ele>1866.8</ele>
        <time>2013-02-19T13:00:14Z</time>
      </trkpt>
      <trkpt lat="45.853" lon="6.43645">
        <ele>1862.1</ele>
        <time>2013-02-19T13:00:17Z</time>
      </trkpt>
      <trkpt lat="45.85306" lon="6.4364">
        <ele>1856</ele>
        <time>2013-02-19T13:00:20Z</time>
      </trkpt>
      <trkpt lat="45.85314" lon="6.43636">
        <ele>1846.5</ele>
        <time>2013-02-19T13:00:25Z</time>
      </trkpt>
      <trkpt lat="45.85319" lon="6.43626">
        <ele>1799.6</ele>
        <time>2013-02-19T13:01:57Z</time>
      </trkpt>
      <trkpt lat="45.85321" lon="6.43621">
        <ele>1797.1</ele>
        <time>2013-02-19T13:01:58Z</time>
      </trkpt>
      <trkpt lat="45.8533" lon="6.43612">
        <ele>1787</ele>
        <time>2013-02-19T13:02:03Z</time>
      </trkpt>
      <trkpt lat="45.85336" lon="6.43614">
        <ele>1784</ele>
        <time>2013-02-19T13:02:05Z</time>
      </trkpt>
      <trkpt lat="45.85341" lon="6.43606">
        <ele>1778.3</ele>
        <time>2013-02-19T13:02:08Z</time>
      </trkpt>
      <trkpt lat="45.85338" lon="6.43596">
        <ele>1774.9</ele>
        <time>2013-02-19T13:02:10Z</time>
      </trkpt>
      <trkpt lat="45.85343" lon="6.43589">
        <ele>1770.4</ele>
        <time>2013-02-19T13:02:12Z</time>
      </trkpt>
      <trkpt lat="45.85344" lon="6.43578">
        <ele>1766</ele>
        <time>2013-02-19T13:02:14Z</time>
      </trkpt>
      <trkpt lat="45.8535" lon="6.43573">
        <ele>1761.5</ele>
        <time>2013-02-19T13:02:16Z</time>
      </trkpt>
      <trkpt lat="45.85352" lon="6.43564">
        <ele>1756.4</ele>
        <time>2013-02-19T13:02:18Z</time>
      </trkpt>
      <trkpt lat="45.85358" lon="6.43558">
        <ele>1751.3</ele>
        <time>2013-02-19T13:02:20Z</time>
      </trkpt>
      <trkpt lat="45.85361" lon="6.4355">
        <ele>1746.9</ele>
        <time>2013-02-19T13:02:22Z</time>
      </trkpt>
      <trkpt lat="45.85366" lon="6.43545">
        <ele>1742.4</ele>
        <time>2013-02-19T13:02:24Z</time>
      </trkpt>
      <trkpt lat="45.85375" lon="6.43545">
        <ele>1738.5</ele>
        <time>2013-02-19T13:02:33Z</time>
      </trkpt>
      <trkpt lat="45.8538" lon="6.43545">
        <ele>1736.5</ele>
        <time>2013-02-19T13:02:37Z</time>
      </trkpt>
      <trkpt lat="45.85388" lon="6.43544">
        <ele>1733.1</ele>
        <time>2013-02-19T13:02:39Z</time>
      </trkpt>
      <trkpt lat="45.85389" lon="6.43532">
        <ele>1728.8</ele>
        <time>2013-02-19T13:02:41Z</time>
      </trkpt>
      <trkpt lat="45.85393" lon="6.4353">
        <ele>1726.4</ele>
        <time>2013-02-19T13:02:42Z</time>
      </trkpt>
      <trkpt lat="45.85398" lon="6.43531">
        <ele>1724.8</ele>
        <time>2013-02-19T13:02:43Z</time>
      </trkpt>
      <trkpt lat="45.85403" lon="6.4353">
        <ele>1722.5</ele>
        <time>2013-02-19T13:02:44Z</time>
      </trkpt>
      <trkpt lat="45.85407" lon="6.43525">
        <ele>1719.5</ele>
        <time>2013-02-19T13:02:45Z</time>
      </trkpt>
      <trkpt lat="45.85416" lon="6.43525">
        <ele>1716.5</ele>
        <time>2013-02-19T13:02:47Z</time>
      </trkpt>
      <trkpt lat="45.85423" lon="6.43528">
        <ele>1714.6</ele>
        <time>2013-02-19T13:02:49Z</time>
      </trkpt>
      <trkpt lat="45.85431" lon="6.43533">
        <ele>1712.6</ele>
        <time>2013-02-19T13:02:51Z</time>
      </trkpt>
      <trkpt lat="45.85438" lon="6.43539">
        <ele>1710.8</ele>
        <time>2013-02-19T13:02:53Z</time>
      </trkpt>
      <trkpt lat="45.85445" lon="6.43545">
        <ele>1706.5</ele>
        <time>2013-02-19T13:03:49Z</time>
      </trkpt>
      <trkpt lat="45.85447" lon="6.43545">
        <ele>1705.9</ele>
        <time>2013-02-19T13:03:50Z</time>
      </trkpt>
      <trkpt lat="45.85456" lon="6.43536">
        <ele>1700.4</ele>
        <time>2013-02-19T13:03:54Z</time>
      </trkpt>
      <trkpt lat="45.85463" lon="6.43529">
        <ele>1696.1</ele>
        <time>2013-02-19T13:03:56Z</time>
      </trkpt>
      <trkpt lat="45.85468" lon="6.43529">
        <ele>1694.3</ele>
        <time>2013-02-19T13:03:57Z</time>
      </trkpt>
      <trkpt lat="45.85472" lon="6.43526">
        <ele>1691.8</ele>
        <time>2013-02-19T13:03:58Z</time>
      </trkpt>
      <trkpt lat="45.85476" lon="6.4352">
        <ele>1689</ele>
        <time>2013-02-19T13:03:59Z</time>
      </trkpt>
      <trkpt lat="45.85482" lon="6.43519">
        <ele>1687</ele>
        <time>2013-02-19T13:04:00Z</time>
      </trkpt>
      <trkpt lat="45.85487" lon="6.43521">
        <ele>1685.1</ele>
        <time>2013-02-19T13:04:01Z</time>
      </trkpt>
      <trkpt lat="45.85491" lon="6.43525">
        <ele>1684</ele>
        <time>2013-02-19T13:04:02Z</time>
      </trkpt>
      <trkpt lat="45.85497" lon="6.43533">
        <ele>1682.5</ele>
        <time>2013-02-19T13:04:04Z</time>
      </trkpt>
      <trkpt lat="45.85503" lon="6.43542">
        <ele>1681.5</ele>
        <time>2013-02-19T13:04:08Z</time>
      </trkpt>
      <trkpt lat="45.85507" lon="6.43546">
        <ele>1680.4</ele>
        <time>2013-02-19T13:04:10Z</time>
      </trkpt>
      <trkpt lat="45.85511" lon="6.4355">
        <ele>1679</ele>
        <time>2013-02-19T13:04:11Z</time>
      </trkpt>
      <trkpt lat="45.85516" lon="6.43554">
        <ele>1677.4</ele>
        <time>2013-02-19T13:04:12Z</time>
      </trkpt>
      <trkpt lat="45.85522" lon="6.43559">
        <ele>1675.5</ele>
        <time>2013-02-19T13:04:13Z</time>
      </trkpt>
      <trkpt lat="45.85527" lon="6.43564">
        <ele>1674.1</ele>
        <time>2013-02-19T13:04:14Z</time>
      </trkpt>
      <trkpt lat="45.85532" lon="6.43566">
        <ele>1673.4</ele>
        <time>2013-02-19T13:04:15Z</time>
      </trkpt>
      <trkpt lat="45.85538" lon="6.43568">
        <ele>1672.1</ele>
        <time>2013-02-19T13:04:16Z</time>
      </trkpt>
      <trkpt lat="45.85543" lon="6.43568">
        <ele>1671.5</ele>
        <time>2013-02-19T13:04:17Z</time>
      </trkpt>
      <trkpt lat="45.85549" lon="6.43568">
        <ele>1670.9</ele>
        <time>2013-02-19T13:04:18Z</time>
      </trkpt>
      <trkpt lat="45.85555" lon="6.43567">
        <ele>1669.9</ele>
        <time>2013-02-19T13:04:19Z</time>
      </trkpt>
      <trkpt lat="45.85562" lon="6.43567">
        <ele>1669</ele>
        <time>2013-02-19T13:04:20Z</time>
      </trkpt>
      <trkpt lat="45.85568" lon="6.43564">
        <ele>1668</ele>
        <time>2013-02-19T13:04:21Z</time>
      </trkpt>
      <trkpt lat="45.85575" lon="6.43561">
        <ele>1667.3</ele>
        <time>2013-02-19T13:04:22Z</time>
      </trkpt>
      <trkpt lat="45.85581" lon="6.43559">
        <ele>1666.8</ele>
        <time>2013-02-19T13:04:23Z</time>
      </trkpt>
      <trkpt lat="45.85589" lon="6.43557">
        <ele>1667</ele>
        <time>2013-02-19T13:04:28Z</time>
      </trkpt>
      <trkpt lat="45.85596" lon="6.43552">
        <ele>1666.5</ele>
        <time>2013-02-19T13:04:34Z</time>
      </trkpt>
      <trkpt lat="45.85592" lon="6.43541">
        <ele>1670.3</ele>
        <time>2013-02-19T13:05:22Z</time>
      </trkpt>
      <trkpt lat="45.8559" lon="6.4354">
        <ele>1670.1</ele>
        <time>2013-02-19T13:05:23Z</time>
      </trkpt>
      <trkpt lat="45.85597" lon="6.43553">
        <ele>1661.4</ele>
        <time>2013-02-19T13:16:26Z</time>
      </trkpt>
      <trkpt lat="45.85611" lon="6.43563">
        <ele>1663.9</ele>
        <time>2013-02-19T13:16:44Z</time>
      </trkpt>
      <trkpt lat="45.85619" lon="6.43568">
        <ele>1666.6</ele>
        <time>2013-02-19T13:16:55Z</time>
      </trkpt>
      <trkpt lat="45.85626" lon="6.43574">
        <ele>1669</ele>
        <time>2013-02-19T13:17:05Z</time>
      </trkpt>
      <trkpt lat="45.85634" lon="6.43579">
        <ele>1671.4</ele>
        <time>2013-02-19T13:17:15Z</time>
      </trkpt>
      <trkpt lat="45.85643" lon="6.43583">
        <ele>1672.9</ele>
        <time>2013-02-19T13:17:33Z</time>
      </trkpt>
      <trkpt lat="45.85644" lon="6.43583">
        <ele>1673</ele>
        <time>2013-02-19T13:17:34Z</time>
      </trkpt>
      <trkpt lat="45.85653" lon="6.43603">
        <ele>1678</ele>
        <time>2013-02-19T13:17:58Z</time>
      </trkpt>
      <trkpt lat="45.85657" lon="6.43614">
        <ele>1681.4</ele>
        <time>2013-02-19T13:18:27Z</time>
      </trkpt>
      <trkpt lat="45.85662" lon="6.43625">
        <ele>1685.3</ele>
        <time>2013-02-19T13:18:39Z</time>
      </trkpt>
      <trkpt lat="45.85662" lon="6.43626">
        <ele>1685.5</ele>
        <time>2013-02-19T13:18:40Z</time>
      </trkpt>
      <trkpt lat="45.85671" lon="6.43646">
        <ele>1689.5</ele>
        <time>2013-02-19T13:19:02Z</time>
      </trkpt>
      <trkpt lat="45.85673" lon="6.43658">
        <ele>1694.9</ele>
        <time>2013-02-19T13:19:22Z</time>
      </trkpt>
      <trkpt lat="45.85678" lon="6.43669">
        <ele>1698.5</ele>
        <time>2013-02-19T13:19:36Z</time>
      </trkpt>
      <trkpt lat="45.85685" lon="6.43676">
        <ele>1699.3</ele>
        <time>2013-02-19T13:19:50Z</time>
      </trkpt>
      <trkpt lat="45.85686" lon="6.43676">
        <ele>1699.6</ele>
        <time>2013-02-19T13:19:51Z</time>
      </trkpt>
      <trkpt lat="45.85702" lon="6.43682">
        <ele>1704.9</ele>
        <time>2013-02-19T13:20:12Z</time>
      </trkpt>
      <trkpt lat="45.85709" lon="6.4369">
        <ele>1706.3</ele>
        <time>2013-02-19T13:20:24Z</time>
      </trkpt>
      <trkpt lat="45.85712" lon="6.43701">
        <ele>1706</ele>
        <time>2013-02-19T13:20:36Z</time>
      </trkpt>
      <trkpt lat="45.85706" lon="6.4371">
        <ele>1708.1</ele>
        <time>2013-02-19T13:20:53Z</time>
      </trkpt>
      <trkpt lat="45.85705" lon="6.4371">
        <ele>1708.3</ele>
        <time>2013-02-19T13:20:54Z</time>
      </trkpt>
      <trkpt lat="45.85698" lon="6.43727">
        <ele>1712</ele>
        <time>2013-02-19T13:21:32Z</time>
      </trkpt>
      <trkpt lat="45.85702" lon="6.43737">
        <ele>1712.5</ele>
        <time>2013-02-19T13:21:44Z</time>
      </trkpt>
      <trkpt lat="45.85706" lon="6.43748">
        <ele>1714</ele>
        <time>2013-02-19T13:21:55Z</time>
      </trkpt>
      <trkpt lat="45.85706" lon="6.43749">
        <ele>1714</ele>
        <time>2013-02-19T13:21:56Z</time>
      </trkpt>
      <trkpt lat="45.85719" lon="6.43765">
        <ele>1724.3</ele>
        <time>2013-02-19T13:22:51Z</time>
      </trkpt>
      <trkpt lat="45.85727" lon="6.43766">
        <ele>1730.4</ele>
        <time>2013-02-19T13:23:16Z</time>
      </trkpt>
      <trkpt lat="45.85728" lon="6.43766">
        <ele>1730.5</ele>
        <time>2013-02-19T13:23:17Z</time>
      </trkpt>
      <trkpt lat="45.85738" lon="6.43774">
        <ele>1735.1</ele>
        <time>2013-02-19T13:23:46Z</time>
      </trkpt>
      <trkpt lat="45.85737" lon="6.43786">
        <ele>1736.4</ele>
        <time>2013-02-19T13:23:58Z</time>
      </trkpt>
      <trkpt lat="45.85736" lon="6.43798">
        <ele>1737.1</ele>
        <time>2013-02-19T13:24:09Z</time>
      </trkpt>
      <trkpt lat="45.85733" lon="6.4381">
        <ele>1738.5</ele>
        <time>2013-02-19T13:24:22Z</time>
      </trkpt>
      <trkpt lat="45.85733" lon="6.43811">
        <ele>1739</ele>
        <time>2013-02-19T13:24:23Z</time>
      </trkpt>
      <trkpt lat="45.85735" lon="6.43828">
        <ele>1742.4</ele>
        <time>2013-02-19T13:24:50Z</time>
      </trkpt>
      <trkpt lat="45.85743" lon="6.43831">
        <ele>1744.8</ele>
        <time>2013-02-19T13:25:01Z</time>
      </trkpt>
      <trkpt lat="45.85752" lon="6.43827">
        <ele>1748</ele>
        <time>2013-02-19T13:25:13Z</time>
      </trkpt>
      <trkpt lat="45.8576" lon="6.43831">
        <ele>1752.4</ele>
        <time>2013-02-19T13:26:14Z</time>
      </trkpt>
      <trkpt lat="45.8576" lon="6.43832">
        <ele>1752.4</ele>
        <time>2013-02-19T13:26:15Z</time>
      </trkpt>
      <trkpt lat="45.85757" lon="6.43855">
        <ele>1750.5</ele>
        <time>2013-02-19T13:26:36Z</time>
      </trkpt>
      <trkpt lat="45.85751" lon="6.43864">
        <ele>1753.8</ele>
        <time>2013-02-19T13:26:47Z</time>
      </trkpt>
      <trkpt lat="45.85755" lon="6.43874">
        <ele>1763</ele>
        <time>2013-02-19T13:27:17Z</time>
      </trkpt>
      <trkpt lat="45.85755" lon="6.43875">
        <ele>1763.5</ele>
        <time>2013-02-19T13:27:18Z</time>
      </trkpt>
      <trkpt lat="45.8575" lon="6.43894">
        <ele>1768.5</ele>
        <time>2013-02-19T13:27:49Z</time>
      </trkpt>
      <trkpt lat="45.85755" lon="6.43903">
        <ele>1772</ele>
        <time>2013-02-19T13:28:11Z</time>
      </trkpt>
      <trkpt lat="45.85764" lon="6.43906">
        <ele>1776</ele>
        <time>2013-02-19T13:28:24Z</time>
      </trkpt>
      <trkpt lat="45.85764" lon="6.43905">
        <ele>1776.5</ele>
        <time>2013-02-19T13:28:25Z</time>
      </trkpt>
      <trkpt lat="45.85763" lon="6.4393">
        <ele>1780</ele>
        <time>2013-02-19T13:28:58Z</time>
      </trkpt>
      <trkpt lat="45.85771" lon="6.43935">
        <ele>1781.9</ele>
        <time>2013-02-19T13:29:10Z</time>
      </trkpt>
      <trkpt lat="45.85764" lon="6.43942">
        <ele>1781.8</ele>
        <time>2013-02-19T13:29:51Z</time>
      </trkpt>
      <trkpt lat="45.85764" lon="6.43943">
        <ele>1782</ele>
        <time>2013-02-19T13:29:52Z</time>
      </trkpt>
      <trkpt lat="45.85774" lon="6.43962">
        <ele>1795.8</ele>
        <time>2013-02-19T13:30:51Z</time>
      </trkpt>
      <trkpt lat="45.85777" lon="6.43974">
        <ele>1797.1</ele>
        <time>2013-02-19T13:31:16Z</time>
      </trkpt>
      <trkpt lat="45.85777" lon="6.43975">
        <ele>1797.3</ele>
        <time>2013-02-19T13:31:17Z</time>
      </trkpt>
      <trkpt lat="45.85776" lon="6.43994">
        <ele>1805.6</ele>
        <time>2013-02-19T13:32:33Z</time>
      </trkpt>
      <trkpt lat="45.85775" lon="6.43994">
        <ele>1806</ele>
        <time>2013-02-19T13:32:34Z</time>
      </trkpt>
      <trkpt lat="45.8578" lon="6.44017">
        <ele>1815.1</ele>
        <time>2013-02-19T13:33:29Z</time>
      </trkpt>
      <trkpt lat="45.85789" lon="6.44021">
        <ele>1817.5</ele>
        <time>2013-02-19T13:33:42Z</time>
      </trkpt>
      <trkpt lat="45.85789" lon="6.4402">
        <ele>1817.6</ele>
        <time>2013-02-19T13:33:43Z</time>
      </trkpt>
      <trkpt lat="45.85782" lon="6.44029">
        <ele>1821.6</ele>
        <time>2013-02-19T13:36:42Z</time>
      </trkpt>
      <trkpt lat="45.85765" lon="6.44027">
        <ele>1830.5</ele>
        <time>2013-02-19T13:37:12Z</time>
      </trkpt>
      <trkpt lat="45.85757" lon="6.44026">
        <ele>1834.4</ele>
        <time>2013-02-19T13:37:23Z</time>
      </trkpt>
      <trkpt lat="45.85748" lon="6.44025">
        <ele>1838.6</ele>
        <time>2013-02-19T13:37:36Z</time>
      </trkpt>
      <trkpt lat="45.85746" lon="6.44037">
        <ele>1841.8</ele>
        <time>2013-02-19T13:37:51Z</time>
      </trkpt>
      <trkpt lat="45.85746" lon="6.44038">
        <ele>1841.9</ele>
        <time>2013-02-19T13:37:52Z</time>
      </trkpt>
      <trkpt lat="45.85754" lon="6.44059">
        <ele>1843.4</ele>
        <time>2013-02-19T13:38:18Z</time>
      </trkpt>
      <trkpt lat="45.85756" lon="6.44071">
        <ele>1839.9</ele>
        <time>2013-02-19T13:39:03Z</time>
      </trkpt>
      <trkpt lat="45.85757" lon="6.44072">
        <ele>1840</ele>
        <time>2013-02-19T13:39:04Z</time>
      </trkpt>
      <trkpt lat="45.85769" lon="6.44088">
        <ele>1842.3</ele>
        <time>2013-02-19T13:39:23Z</time>
      </trkpt>
      <trkpt lat="45.85775" lon="6.44096">
        <ele>1842.5</ele>
        <time>2013-02-19T13:39:32Z</time>
      </trkpt>
      <trkpt lat="45.85783" lon="6.44103">
        <ele>1843.6</ele>
        <time>2013-02-19T13:39:42Z</time>
      </trkpt>
      <trkpt lat="45.85791" lon="6.44105">
        <ele>1852.1</ele>
        <time>2013-02-19T13:40:49Z</time>
      </trkpt>
      <trkpt lat="45.85792" lon="6.44106">
        <ele>1852.1</ele>
        <time>2013-02-19T13:40:50Z</time>
      </trkpt>
      <trkpt lat="45.85806" lon="6.44119">
        <ele>1852.6</ele>
        <time>2013-02-19T13:41:09Z</time>
      </trkpt>
      <trkpt lat="45.85814" lon="6.44118">
        <ele>1854.3</ele>
        <time>2013-02-19T13:41:21Z</time>
      </trkpt>
      <trkpt lat="45.85819" lon="6.44128">
        <ele>1861.1</ele>
        <time>2013-02-19T13:42:48Z</time>
      </trkpt>
      <trkpt lat="45.85819" lon="6.44129">
        <ele>1861.3</ele>
        <time>2013-02-19T13:42:49Z</time>
      </trkpt>
      <trkpt lat="45.85811" lon="6.4415">
        <ele>1866.3</ele>
        <time>2013-02-19T13:43:31Z</time>
      </trkpt>
      <trkpt lat="45.85805" lon="6.44159">
        <ele>1868.8</ele>
        <time>2013-02-19T13:43:43Z</time>
      </trkpt>
      <trkpt lat="45.85796" lon="6.44162">
        <ele>1871.8</ele>
        <time>2013-02-19T13:44:20Z</time>
      </trkpt>
      <trkpt lat="45.85795" lon="6.44162">
        <ele>1872</ele>
        <time>2013-02-19T13:44:21Z</time>
      </trkpt>
      <trkpt lat="45.85798" lon="6.44185">
        <ele>1872.9</ele>
        <time>2013-02-19T13:44:48Z</time>
      </trkpt>
      <trkpt lat="45.85806" lon="6.44192">
        <ele>1874.5</ele>
        <time>2013-02-19T13:45:01Z</time>
      </trkpt>
      <trkpt lat="45.85814" lon="6.44195">
        <ele>1877.1</ele>
        <time>2013-02-19T13:45:13Z</time>
      </trkpt>
      <trkpt lat="45.85822" lon="6.44196">
        <ele>1880.6</ele>
        <time>2013-02-19T13:45:24Z</time>
      </trkpt>
      <trkpt lat="45.85823" lon="6.44195">
        <ele>1881</ele>
        <time>2013-02-19T13:45:25Z</time>
      </trkpt>
      <trkpt lat="45.85838" lon="6.44188">
        <ele>1897.5</ele>
        <time>2013-02-19T13:47:38Z</time>
      </trkpt>
      <trkpt lat="45.85839" lon="6.44188">
        <ele>1897.9</ele>
        <time>2013-02-19T13:47:39Z</time>
      </trkpt>
      <trkpt lat="45.85834" lon="6.4421">
        <ele>1898.9</ele>
        <time>2013-02-19T13:48:13Z</time>
      </trkpt>
      <trkpt lat="45.85828" lon="6.44219">
        <ele>1898.4</ele>
        <time>2013-02-19T13:48:24Z</time>
      </trkpt>
      <trkpt lat="45.85823" lon="6.44229">
        <ele>1898.5</ele>
        <time>2013-02-19T13:48:35Z</time>
      </trkpt>
      <trkpt lat="45.85815" lon="6.44234">
        <ele>1900</ele>
        <time>2013-02-19T13:48:47Z</time>
      </trkpt>
      <trkpt lat="45.85814" lon="6.44235">
        <ele>1900</ele>
        <time>2013-02-19T13:48:48Z</time>
      </trkpt>
      <trkpt lat="45.85801" lon="6.44248">
        <ele>1904.1</ele>
        <time>2013-02-19T13:49:33Z</time>
      </trkpt>
      <trkpt lat="45.85795" lon="6.44257">
        <ele>1906.5</ele>
        <time>2013-02-19T13:49:45Z</time>
      </trkpt>
      <trkpt lat="45.85803" lon="6.4426">
        <ele>1911.3</ele>
        <time>2013-02-19T13:50:03Z</time>
      </trkpt>
      <trkpt lat="45.85804" lon="6.4426">
        <ele>1911.5</ele>
        <time>2013-02-19T13:50:04Z</time>
      </trkpt>
      <trkpt lat="45.8582" lon="6.44261">
        <ele>1915.4</ele>
        <time>2013-02-19T13:50:24Z</time>
      </trkpt>
      <trkpt lat="45.85829" lon="6.44262">
        <ele>1916.5</ele>
        <time>2013-02-19T13:50:34Z</time>
      </trkpt>
      <trkpt lat="45.85837" lon="6.44264">
        <ele>1917.4</ele>
        <time>2013-02-19T13:50:44Z</time>
      </trkpt>
      <trkpt lat="45.85846" lon="6.44264">
        <ele>1919.3</ele>
        <time>2013-02-19T13:50:56Z</time>
      </trkpt>
      <trkpt lat="45.85854" lon="6.44262">
        <ele>1921</ele>
        <time>2013-02-19T13:51:08Z</time>
      </trkpt>
      <trkpt lat="45.85855" lon="6.44262">
        <ele>1921.1</ele>
        <time>2013-02-19T13:51:09Z</time>
      </trkpt>
      <trkpt lat="45.85863" lon="6.44273">
        <ele>1924</ele>
        <time>2013-02-19T13:52:28Z</time>
      </trkpt>
      <trkpt lat="45.85863" lon="6.44274">
        <ele>1924.3</ele>
        <time>2013-02-19T13:52:29Z</time>
      </trkpt>
      <trkpt lat="45.8585" lon="6.44291">
        <ele>1931</ele>
        <time>2013-02-19T13:52:53Z</time>
      </trkpt>
      <trkpt lat="45.85844" lon="6.44299">
        <ele>1933.5</ele>
        <time>2013-02-19T13:53:04Z</time>
      </trkpt>
      <trkpt lat="45.85838" lon="6.44308">
        <ele>1936.5</ele>
        <time>2013-02-19T13:53:16Z</time>
      </trkpt>
      <trkpt lat="45.85832" lon="6.44316">
        <ele>1938.9</ele>
        <time>2013-02-19T13:53:28Z</time>
      </trkpt>
      <trkpt lat="45.85827" lon="6.44326">
        <ele>1940.5</ele>
        <time>2013-02-19T13:53:39Z</time>
      </trkpt>
      <trkpt lat="45.85827" lon="6.44327">
        <ele>1940.5</ele>
        <time>2013-02-19T13:53:40Z</time>
      </trkpt>
      <trkpt lat="45.8582" lon="6.44348">
        <ele>1943</ele>
        <time>2013-02-19T13:53:58Z</time>
      </trkpt>
      <trkpt lat="45.85818" lon="6.4436">
        <ele>1943</ele>
        <time>2013-02-19T13:54:46Z</time>
      </trkpt>
      <trkpt lat="45.85818" lon="6.44361">
        <ele>1943</ele>
        <time>2013-02-19T13:54:47Z</time>
      </trkpt>
      <trkpt lat="45.85833" lon="6.44369">
        <ele>1947.1</ele>
        <time>2013-02-19T13:55:25Z</time>
      </trkpt>
      <trkpt lat="45.85833" lon="6.44382">
        <ele>1949</ele>
        <time>2013-02-19T13:55:39Z</time>
      </trkpt>
      <trkpt lat="45.8583" lon="6.44394">
        <ele>1951.8</ele>
        <time>2013-02-19T13:55:53Z</time>
      </trkpt>
      <trkpt lat="45.8583" lon="6.44394">
        <ele>1951.9</ele>
        <time>2013-02-19T13:55:54Z</time>
      </trkpt>
      <trkpt lat="45.85821" lon="6.44396">
        <ele>1952.3</ele>
        <time>2013-02-19T14:00:57Z</time>
      </trkpt>
      <trkpt lat="45.85829" lon="6.44389">
        <ele>1934.6</ele>
        <time>2013-02-19T14:03:16Z</time>
      </trkpt>
      <trkpt lat="45.85827" lon="6.44403">
        <ele>1950.3</ele>
        <time>2013-02-19T14:04:43Z</time>
      </trkpt>
      <trkpt lat="45.85822" lon="6.44426">
        <ele>1955.5</ele>
        <time>2013-02-19T14:05:06Z</time>
      </trkpt>
      <trkpt lat="45.85819" lon="6.44437">
        <ele>1958.4</ele>
        <time>2013-02-19T14:05:18Z</time>
      </trkpt>
      <trkpt lat="45.85827" lon="6.44438">
        <ele>1962</ele>
        <time>2013-02-19T14:05:33Z</time>
      </trkpt>
      <trkpt lat="45.85836" lon="6.44437">
        <ele>1962.8</ele>
        <time>2013-02-19T14:05:42Z</time>
      </trkpt>
      <trkpt lat="45.85844" lon="6.44433">
        <ele>1965.9</ele>
        <time>2013-02-19T14:05:53Z</time>
      </trkpt>
      <trkpt lat="45.85845" lon="6.44432">
        <ele>1966.1</ele>
        <time>2013-02-19T14:05:54Z</time>
      </trkpt>
      <trkpt lat="45.85861" lon="6.44427">
        <ele>1970.8</ele>
        <time>2013-02-19T14:06:14Z</time>
      </trkpt>
      <trkpt lat="45.8587" lon="6.44425">
        <ele>1972.9</ele>
        <time>2013-02-19T14:06:25Z</time>
      </trkpt>
      <trkpt lat="45.85878" lon="6.44423">
        <ele>1975.9</ele>
        <time>2013-02-19T14:06:36Z</time>
      </trkpt>
      <trkpt lat="45.85887" lon="6.44421">
        <ele>1978.5</ele>
        <time>2013-02-19T14:06:46Z</time>
      </trkpt>
      <trkpt lat="45.85895" lon="6.44418">
        <ele>1981.3</ele>
        <time>2013-02-19T14:06:57Z</time>
      </trkpt>
      <trkpt lat="45.85896" lon="6.44418">
        <ele>1981.6</ele>
        <time>2013-02-19T14:06:58Z</time>
      </trkpt>
      <trkpt lat="45.859" lon="6.44434">
        <ele>1988.3</ele>
        <time>2013-02-19T14:07:30Z</time>
      </trkpt>
      <trkpt lat="45.85895" lon="6.44444">
        <ele>1989.5</ele>
        <time>2013-02-19T14:07:43Z</time>
      </trkpt>
      <trkpt lat="45.85891" lon="6.44455">
        <ele>1992.6</ele>
        <time>2013-02-19T14:07:57Z</time>
      </trkpt>
      <trkpt lat="45.8589" lon="6.44456">
        <ele>1993.3</ele>
        <time>2013-02-19T14:07:59Z</time>
      </trkpt>
      <trkpt lat="45.85881" lon="6.44475">
        <ele>1997.5</ele>
        <time>2013-02-19T14:08:55Z</time>
      </trkpt>
      <trkpt lat="45.85879" lon="6.44487">
        <ele>1997.8</ele>
        <time>2013-02-19T14:09:07Z</time>
      </trkpt>
      <trkpt lat="45.85878" lon="6.44487">
        <ele>1997.9</ele>
        <time>2013-02-19T14:09:08Z</time>
      </trkpt>
      <trkpt lat="45.85874" lon="6.4451">
        <ele>2000.6</ele>
        <time>2013-02-19T14:09:30Z</time>
      </trkpt>
      <trkpt lat="45.85873" lon="6.44522">
        <ele>2001.8</ele>
        <time>2013-02-19T14:09:41Z</time>
      </trkpt>
      <trkpt lat="45.85871" lon="6.44534">
        <ele>2003</ele>
        <time>2013-02-19T14:09:52Z</time>
      </trkpt>
      <trkpt lat="45.8587" lon="6.44546">
        <ele>2004</ele>
        <time>2013-02-19T14:10:04Z</time>
      </trkpt>
      <trkpt lat="45.85871" lon="6.44559">
        <ele>2005.3</ele>
        <time>2013-02-19T14:10:15Z</time>
      </trkpt>
      <trkpt lat="45.85871" lon="6.4456">
        <ele>2005.5</ele>
        <time>2013-02-19T14:10:16Z</time>
      </trkpt>
      <trkpt lat="45.85872" lon="6.44583">
        <ele>2000.6</ele>
        <time>2013-02-19T14:11:05Z</time>
      </trkpt>
      <trkpt lat="45.85876" lon="6.44595">
        <ele>1991.5</ele>
        <time>2013-02-19T14:11:33Z</time>
      </trkpt>
      <trkpt lat="45.85876" lon="6.44595">
        <ele>1991.4</ele>
        <time>2013-02-19T14:11:34Z</time>
      </trkpt>
      <trkpt lat="45.85881" lon="6.44609">
        <ele>2005.3</ele>
        <time>2013-02-19T14:12:28Z</time>
      </trkpt>
      <trkpt lat="45.85873" lon="6.44614">
        <ele>2012.6</ele>
        <time>2013-02-19T14:12:42Z</time>
      </trkpt>
      <trkpt lat="45.85872" lon="6.44614">
        <ele>2013</ele>
        <time>2013-02-19T14:12:43Z</time>
      </trkpt>
      <trkpt lat="45.85876" lon="6.44622">
        <ele>2026</ele>
        <time>2013-02-19T14:13:32Z</time>
      </trkpt>
      <trkpt lat="45.85867" lon="6.44625">
        <ele>2029</ele>
        <time>2013-02-19T14:13:45Z</time>
      </trkpt>
      <trkpt lat="45.85867" lon="6.44625">
        <ele>2029.3</ele>
        <time>2013-02-19T14:13:46Z</time>
      </trkpt>
      <trkpt lat="45.8585" lon="6.44625">
        <ele>2052.8</ele>
        <time>2013-02-19T14:15:00Z</time>
      </trkpt>
      <trkpt lat="45.8585" lon="6.44625">
        <ele>2053.1</ele>
        <time>2013-02-19T14:15:01Z</time>
      </trkpt>
      <trkpt lat="45.85843" lon="6.44645">
        <ele>2048.6</ele>
        <time>2013-02-19T14:15:24Z</time>
      </trkpt>
      <trkpt lat="45.85838" lon="6.44656">
        <ele>2037.6</ele>
        <time>2013-02-19T14:15:41Z</time>
      </trkpt>
      <trkpt lat="45.85832" lon="6.44665">
        <ele>2033.1</ele>
        <time>2013-02-19T14:16:01Z</time>
      </trkpt>
      <trkpt lat="45.85832" lon="6.44666">
        <ele>2033.1</ele>
        <time>2013-02-19T14:16:02Z</time>
      </trkpt>
      <trkpt lat="45.85842" lon="6.44685">
        <ele>2039.6</ele>
        <time>2013-02-19T14:16:26Z</time>
      </trkpt>
      <trkpt lat="45.85842" lon="6.44697">
        <ele>2049.3</ele>
        <time>2013-02-19T14:16:46Z</time>
      </trkpt>
      <trkpt lat="45.85851" lon="6.44701">
        <ele>2057.1</ele>
        <time>2013-02-19T14:17:13Z</time>
      </trkpt>
      <trkpt lat="45.85851" lon="6.44701">
        <ele>2057.3</ele>
        <time>2013-02-19T14:17:14Z</time>
      </trkpt>
      <trkpt lat="45.85867" lon="6.44711">
        <ele>2066.5</ele>
        <time>2013-02-19T14:17:53Z</time>
      </trkpt>
      <trkpt lat="45.85865" lon="6.44723">
        <ele>2068.1</ele>
        <time>2013-02-19T14:18:12Z</time>
      </trkpt>
      <trkpt lat="45.85862" lon="6.44725">
        <ele>2068.6</ele>
        <time>2013-02-19T14:18:16Z</time>
      </trkpt>
      <trkpt lat="45.85856" lon="6.44739">
        <ele>2069.5</ele>
        <time>2013-02-19T14:18:34Z</time>
      </trkpt>
      <trkpt lat="45.85859" lon="6.4475">
        <ele>2063.8</ele>
        <time>2013-02-19T14:19:38Z</time>
      </trkpt>
      <trkpt lat="45.8586" lon="6.4475">
        <ele>2064.1</ele>
        <time>2013-02-19T14:19:39Z</time>
      </trkpt>
      <trkpt lat="45.85868" lon="6.44751">
        <ele>2068.1</ele>
        <time>2013-02-19T14:19:50Z</time>
      </trkpt>
      <trkpt lat="45.85868" lon="6.44787">
        <ele>2087.5</ele>
        <time>2013-02-19T14:20:58Z</time>
      </trkpt>
      <trkpt lat="45.85877" lon="6.4479">
        <ele>2085.8</ele>
        <time>2013-02-19T14:21:11Z</time>
      </trkpt>
      <trkpt lat="45.85883" lon="6.44789">
        <ele>2086.5</ele>
        <time>2013-02-19T14:21:21Z</time>
      </trkpt>
      <trkpt lat="45.85889" lon="6.44792">
        <ele>2080.8</ele>
        <time>2013-02-19T14:21:58Z</time>
      </trkpt>
      <trkpt lat="45.85883" lon="6.44808">
        <ele>2080.8</ele>
        <time>2013-02-19T14:22:17Z</time>
      </trkpt>
      <trkpt lat="45.85883" lon="6.4481">
        <ele>2082.1</ele>
        <time>2013-02-19T14:22:20Z</time>
      </trkpt>
      <trkpt lat="45.85878" lon="6.44821">
        <ele>2093.3</ele>
        <time>2013-02-19T14:22:38Z</time>
      </trkpt>
      <trkpt lat="45.85874" lon="6.44831">
        <ele>2098.5</ele>
        <time>2013-02-19T14:22:51Z</time>
      </trkpt>
      <trkpt lat="45.85882" lon="6.44833">
        <ele>2102.1</ele>
        <time>2013-02-19T14:23:07Z</time>
      </trkpt>
      <trkpt lat="45.8589" lon="6.44838">
        <ele>2094.8</ele>
        <time>2013-02-19T14:23:46Z</time>
      </trkpt>
      <trkpt lat="45.85891" lon="6.44838">
        <ele>2095</ele>
        <time>2013-02-19T14:23:47Z</time>
      </trkpt>
      <trkpt lat="45.85888" lon="6.44871">
        <ele>2088.3</ele>
        <time>2013-02-19T14:25:19Z</time>
      </trkpt>
      <trkpt lat="45.85887" lon="6.4487">
        <ele>2087.8</ele>
        <time>2013-02-19T14:25:31Z</time>
      </trkpt>
      <trkpt lat="45.85883" lon="6.4489">
        <ele>2096.6</ele>
        <time>2013-02-19T14:25:57Z</time>
      </trkpt>
      <trkpt lat="45.8588" lon="6.44902">
        <ele>2106.1</ele>
        <time>2013-02-19T14:26:14Z</time>
      </trkpt>
      <trkpt lat="45.85874" lon="6.44911">
        <ele>2114.3</ele>
        <time>2013-02-19T14:26:30Z</time>
      </trkpt>
      <trkpt lat="45.85874" lon="6.44911">
        <ele>2115.1</ele>
        <time>2013-02-19T14:26:31Z</time>
      </trkpt>
      <trkpt lat="45.85882" lon="6.4493">
        <ele>2108.8</ele>
        <time>2013-02-19T14:29:35Z</time>
      </trkpt>
      <trkpt lat="45.85882" lon="6.44931">
        <ele>2106.5</ele>
        <time>2013-02-19T14:29:36Z</time>
      </trkpt>
      <trkpt lat="45.85891" lon="6.44925">
        <ele>2114.1</ele>
        <time>2013-02-19T14:30:43Z</time>
      </trkpt>
      <trkpt lat="45.85901" lon="6.44924">
        <ele>2120.6</ele>
        <time>2013-02-19T14:31:00Z</time>
      </trkpt>
      <trkpt lat="45.85901" lon="6.44923">
        <ele>2123</ele>
        <time>2013-02-19T14:32:26Z</time>
      </trkpt>
      <trkpt lat="45.85881" lon="6.44967">
        <ele>2120.1</ele>
        <time>2013-02-19T14:33:30Z</time>
      </trkpt>
      <trkpt lat="45.85888" lon="6.44972">
        <ele>2119.3</ele>
        <time>2013-02-19T14:33:42Z</time>
      </trkpt>
      <trkpt lat="45.85897" lon="6.44972">
        <ele>2122.1</ele>
        <time>2013-02-19T14:33:56Z</time>
      </trkpt>
      <trkpt lat="45.85897" lon="6.44985">
        <ele>2123.3</ele>
        <time>2013-02-19T14:34:34Z</time>
      </trkpt>
      <trkpt lat="45.85896" lon="6.44986">
        <ele>2123.3</ele>
        <time>2013-02-19T14:34:35Z</time>
      </trkpt>
      <trkpt lat="45.85897" lon="6.45005">
        <ele>2135.8</ele>
        <time>2013-02-19T14:35:25Z</time>
      </trkpt>
      <trkpt lat="45.85905" lon="6.45006">
        <ele>2138.6</ele>
        <time>2013-02-19T14:35:38Z</time>
      </trkpt>
      <trkpt lat="45.85906" lon="6.45006">
        <ele>2138.6</ele>
        <time>2013-02-19T14:35:39Z</time>
      </trkpt>
      <trkpt lat="45.85917" lon="6.45016">
        <ele>2148.1</ele>
        <time>2013-02-19T14:36:45Z</time>
      </trkpt>
      <trkpt lat="45.85917" lon="6.45017">
        <ele>2148.5</ele>
        <time>2013-02-19T14:36:46Z</time>
      </trkpt>
      <trkpt lat="45.85909" lon="6.45037">
        <ele>2153.3</ele>
        <time>2013-02-19T14:37:10Z</time>
      </trkpt>
      <trkpt lat="45.85917" lon="6.45041">
        <ele>2163.3</ele>
        <time>2013-02-19T14:38:04Z</time>
      </trkpt>
      <trkpt lat="45.85917" lon="6.45041">
        <ele>2163.6</ele>
        <time>2013-02-19T14:38:05Z</time>
      </trkpt>
      <trkpt lat="45.85934" lon="6.45036">
        <ele>2166</ele>
        <time>2013-02-19T14:39:01Z</time>
      </trkpt>
      <trkpt lat="45.85934" lon="6.45049">
        <ele>2168.8</ele>
        <time>2013-02-19T14:39:29Z</time>
      </trkpt>
      <trkpt lat="45.85934" lon="6.4505">
        <ele>2168.8</ele>
        <time>2013-02-19T14:39:30Z</time>
      </trkpt>
      <trkpt lat="45.85925" lon="6.4507">
        <ele>2170.3</ele>
        <time>2013-02-19T14:39:53Z</time>
      </trkpt>
      <trkpt lat="45.8592" lon="6.45079">
        <ele>2170.8</ele>
        <time>2013-02-19T14:40:05Z</time>
      </trkpt>
      <trkpt lat="45.85913" lon="6.45086">
        <ele>2172.3</ele>
        <time>2013-02-19T14:40:17Z</time>
      </trkpt>
      <trkpt lat="45.85906" lon="6.45093">
        <ele>2174</ele>
        <time>2013-02-19T14:40:29Z</time>
      </trkpt>
      <trkpt lat="45.85914" lon="6.45092">
        <ele>2187.6</ele>
        <time>2013-02-19T14:41:20Z</time>
      </trkpt>
      <trkpt lat="45.85915" lon="6.45092">
        <ele>2188</ele>
        <time>2013-02-19T14:41:21Z</time>
      </trkpt>
      <trkpt lat="45.85931" lon="6.45093">
        <ele>2193.8</ele>
        <time>2013-02-19T14:41:46Z</time>
      </trkpt>
      <trkpt lat="45.85939" lon="6.45093">
        <ele>2195.8</ele>
        <time>2013-02-19T14:41:59Z</time>
      </trkpt>
      <trkpt lat="45.85938" lon="6.45105">
        <ele>2193</ele>
        <time>2013-02-19T14:42:57Z</time>
      </trkpt>
      <trkpt lat="45.85937" lon="6.45106">
        <ele>2193</ele>
        <time>2013-02-19T14:42:58Z</time>
      </trkpt>
      <trkpt lat="45.85926" lon="6.45123">
        <ele>2195.6</ele>
        <time>2013-02-19T14:43:25Z</time>
      </trkpt>
      <trkpt lat="45.85932" lon="6.45132">
        <ele>2212.3</ele>
        <time>2013-02-19T14:44:49Z</time>
      </trkpt>
      <trkpt lat="45.85933" lon="6.45132">
        <ele>2212.6</ele>
        <time>2013-02-19T14:44:50Z</time>
      </trkpt>
      <trkpt lat="45.85938" lon="6.45145">
        <ele>2220.1</ele>
        <time>2013-02-19T14:45:31Z</time>
      </trkpt>
      <trkpt lat="45.85933" lon="6.45154">
        <ele>2219.5</ele>
        <time>2013-02-19T14:46:07Z</time>
      </trkpt>
      <trkpt lat="45.85932" lon="6.45155">
        <ele>2219.6</ele>
        <time>2013-02-19T14:46:08Z</time>
      </trkpt>
      <trkpt lat="45.85936" lon="6.45164">
        <ele>2232.8</ele>
        <time>2013-02-19T14:46:55Z</time>
      </trkpt>
      <trkpt lat="45.85928" lon="6.45171">
        <ele>2235.3</ele>
        <time>2013-02-19T14:47:08Z</time>
      </trkpt>
      <trkpt lat="45.85934" lon="6.45181">
        <ele>2247.3</ele>
        <time>2013-02-19T14:48:06Z</time>
      </trkpt>
      <trkpt lat="45.85934" lon="6.45181">
        <ele>2247.5</ele>
        <time>2013-02-19T14:48:07Z</time>
      </trkpt>
      <trkpt lat="45.85948" lon="6.45194">
        <ele>2261</ele>
        <time>2013-02-19T14:49:20Z</time>
      </trkpt>
      <trkpt lat="45.85948" lon="6.45194">
        <ele>2261</ele>
        <time>2013-02-19T14:49:21Z</time>
      </trkpt>
      <trkpt lat="45.85943" lon="6.45206">
        <ele>2263.3</ele>
        <time>2013-02-19T14:54:04Z</time>
      </trkpt>
      <trkpt lat="45.85943" lon="6.45209">
        <ele>2254</ele>
        <time>2013-02-19T14:55:53Z</time>
      </trkpt>
      <trkpt lat="45.85944" lon="6.45205">
        <ele>2254.3</ele>
        <time>2013-02-19T14:55:54Z</time>
      </trkpt>
      <trkpt lat="45.85943" lon="6.45209">
        <ele>2254.6</ele>
        <time>2013-02-19T15:00:06Z</time>
      </trkpt>
      <trkpt lat="45.85943" lon="6.45209">
        <ele>2254.1</ele>
        <time>2013-02-19T15:00:07Z</time>
      </trkpt>
      <trkpt lat="45.85946" lon="6.45221">
        <ele>2240.5</ele>
        <time>2013-02-19T15:01:11Z</time>
      </trkpt>
      <trkpt lat="45.85945" lon="6.45202">
        <ele>2257.3</ele>
        <time>2013-02-19T15:03:51Z</time>
      </trkpt>
      <trkpt lat="45.85945" lon="6.45202">
        <ele>2257.1</ele>
        <time>2013-02-19T15:03:52Z</time>
      </trkpt>
      <trkpt lat="45.85954" lon="6.45199">
        <ele>2254.5</ele>
        <time>2013-02-19T15:07:30Z</time>
      </trkpt>
      <trkpt lat="45.85964" lon="6.45206">
        <ele>2250.1</ele>
        <time>2013-02-19T15:08:32Z</time>
      </trkpt>
      <trkpt lat="45.85965" lon="6.4521">
        <ele>2249.3</ele>
        <time>2013-02-19T15:08:33Z</time>
      </trkpt>
      <trkpt lat="45.85979" lon="6.45213">
        <ele>2241.3</ele>
        <time>2013-02-19T15:08:41Z</time>
      </trkpt>
      <trkpt lat="45.85986" lon="6.45214">
        <ele>2236.6</ele>
        <time>2013-02-19T15:08:47Z</time>
      </trkpt>
      <trkpt lat="45.85993" lon="6.45212">
        <ele>2231.8</ele>
        <time>2013-02-19T15:08:51Z</time>
      </trkpt>
      <trkpt lat="45.86" lon="6.45214">
        <ele>2228.5</ele>
        <time>2013-02-19T15:08:55Z</time>
      </trkpt>
      <trkpt lat="45.86006" lon="6.45224">
        <ele>2222</ele>
        <time>2013-02-19T15:09:00Z</time>
      </trkpt>
      <trkpt lat="45.86013" lon="6.4522">
        <ele>2219.5</ele>
        <time>2013-02-19T15:09:04Z</time>
      </trkpt>
      <trkpt lat="45.86021" lon="6.45222">
        <ele>2217.1</ele>
        <time>2013-02-19T15:09:09Z</time>
      </trkpt>
      <trkpt lat="45.86027" lon="6.4523">
        <ele>2218.6</ele>
        <time>2013-02-19T15:09:16Z</time>
      </trkpt>
      <trkpt lat="45.86033" lon="6.4523">
        <ele>2221.6</ele>
        <time>2013-02-19T15:09:20Z</time>
      </trkpt>
      <trkpt lat="45.86037" lon="6.45242">
        <ele>2221.3</ele>
        <time>2013-02-19T15:09:24Z</time>
      </trkpt>
      <trkpt lat="45.86043" lon="6.45234">
        <ele>2219.8</ele>
        <time>2013-02-19T15:09:27Z</time>
      </trkpt>
      <trkpt lat="45.86049" lon="6.45242">
        <ele>2214</ele>
        <time>2013-02-19T15:09:32Z</time>
      </trkpt>
      <trkpt lat="45.86057" lon="6.45247">
        <ele>2212</ele>
        <time>2013-02-19T15:09:47Z</time>
      </trkpt>
      <trkpt lat="45.86058" lon="6.45252">
        <ele>2212.5</ele>
        <time>2013-02-19T15:09:48Z</time>
      </trkpt>
      <trkpt lat="45.86058" lon="6.45265">
        <ele>2213.8</ele>
        <time>2013-02-19T15:09:51Z</time>
      </trkpt>
      <trkpt lat="45.8606" lon="6.45276">
        <ele>2215.1</ele>
        <time>2013-02-19T15:09:54Z</time>
      </trkpt>
      <trkpt lat="45.86065" lon="6.45285">
        <ele>2217.1</ele>
        <time>2013-02-19T15:09:56Z</time>
      </trkpt>
      <trkpt lat="45.86069" lon="6.45294">
        <ele>2221.3</ele>
        <time>2013-02-19T15:09:58Z</time>
      </trkpt>
      <trkpt lat="45.86075" lon="6.45301">
        <ele>2227</ele>
        <time>2013-02-19T15:10:00Z</time>
      </trkpt>
      <trkpt lat="45.86079" lon="6.45305">
        <ele>2230.6</ele>
        <time>2013-02-19T15:10:01Z</time>
      </trkpt>
      <trkpt lat="45.86083" lon="6.4531">
        <ele>2234.8</ele>
        <time>2013-02-19T15:10:02Z</time>
      </trkpt>
      <trkpt lat="45.86087" lon="6.45315">
        <ele>2239.3</ele>
        <time>2013-02-19T15:10:03Z</time>
      </trkpt>
      <trkpt lat="45.86092" lon="6.4532">
        <ele>2244.1</ele>
        <time>2013-02-19T15:10:04Z</time>
      </trkpt>
      <trkpt lat="45.86096" lon="6.45324">
        <ele>2247.8</ele>
        <time>2013-02-19T15:10:05Z</time>
      </trkpt>
      <trkpt lat="45.86101" lon="6.45328">
        <ele>2250.8</ele>
        <time>2013-02-19T15:10:06Z</time>
      </trkpt>
      <trkpt lat="45.86106" lon="6.45332">
        <ele>2253</ele>
        <time>2013-02-19T15:10:07Z</time>
      </trkpt>
      <trkpt lat="45.86111" lon="6.45332">
        <ele>2254.1</ele>
        <time>2013-02-19T15:10:08Z</time>
      </trkpt>
      <trkpt lat="45.86116" lon="6.45329">
        <ele>2255</ele>
        <time>2013-02-19T15:10:09Z</time>
      </trkpt>
      <trkpt lat="45.86122" lon="6.45327">
        <ele>2255.3</ele>
        <time>2013-02-19T15:10:10Z</time>
      </trkpt>
      <trkpt lat="45.86129" lon="6.45329">
        <ele>2255.8</ele>
        <time>2013-02-19T15:10:11Z</time>
      </trkpt>
      <trkpt lat="45.86135" lon="6.45333">
        <ele>2256.6</ele>
        <time>2013-02-19T15:10:12Z</time>
      </trkpt>
      <trkpt lat="45.86142" lon="6.45338">
        <ele>2257.8</ele>
        <time>2013-02-19T15:10:13Z</time>
      </trkpt>
      <trkpt lat="45.86149" lon="6.45341">
        <ele>2258.6</ele>
        <time>2013-02-19T15:10:14Z</time>
      </trkpt>
      <trkpt lat="45.86156" lon="6.45338">
        <ele>2258.8</ele>
        <time>2013-02-19T15:10:15Z</time>
      </trkpt>
      <trkpt lat="45.86164" lon="6.45336">
        <ele>2258.3</ele>
        <time>2013-02-19T15:10:16Z</time>
      </trkpt>
      <trkpt lat="45.86177" lon="6.45335">
        <ele>2256.1</ele>
        <time>2013-02-19T15:10:18Z</time>
      </trkpt>
      <trkpt lat="45.86185" lon="6.4533">
        <ele>2236.3</ele>
        <time>2013-02-19T15:10:29Z</time>
      </trkpt>
      <trkpt lat="45.86184" lon="6.4532">
        <ele>2229.6</ele>
        <time>2013-02-19T15:10:31Z</time>
      </trkpt>
      <trkpt lat="45.8619" lon="6.45312">
        <ele>2189.6</ele>
        <time>2013-02-19T15:10:40Z</time>
      </trkpt>
      <trkpt lat="45.86181" lon="6.45309">
        <ele>2153.1</ele>
        <time>2013-02-19T15:10:50Z</time>
      </trkpt>
      <trkpt lat="45.8618" lon="6.4531">
        <ele>2151.3</ele>
        <time>2013-02-19T15:10:51Z</time>
      </trkpt>
      <trkpt lat="45.86182" lon="6.45289">
        <ele>2129.6</ele>
        <time>2013-02-19T15:10:59Z</time>
      </trkpt>
      <trkpt lat="45.8619" lon="6.4529">
        <ele>2116.5</ele>
        <time>2013-02-19T15:11:04Z</time>
      </trkpt>
      <trkpt lat="45.86197" lon="6.45283">
        <ele>2090.5</ele>
        <time>2013-02-19T15:11:28Z</time>
      </trkpt>
      <trkpt lat="45.86199" lon="6.45274">
        <ele>2088.3</ele>
        <time>2013-02-19T15:11:30Z</time>
      </trkpt>
      <trkpt lat="45.86207" lon="6.45272">
        <ele>2082.3</ele>
        <time>2013-02-19T15:11:33Z</time>
      </trkpt>
      <trkpt lat="45.86209" lon="6.45263">
        <ele>2077.6</ele>
        <time>2013-02-19T15:11:35Z</time>
      </trkpt>
      <trkpt lat="45.86218" lon="6.45262">
        <ele>2069.5</ele>
        <time>2013-02-19T15:11:39Z</time>
      </trkpt>
      <trkpt lat="45.86224" lon="6.45255">
        <ele>2062.8</ele>
        <time>2013-02-19T15:11:44Z</time>
      </trkpt>
      <trkpt lat="45.86228" lon="6.45244">
        <ele>2060.1</ele>
        <time>2013-02-19T15:11:46Z</time>
      </trkpt>
      <trkpt lat="45.86233" lon="6.45234">
        <ele>2058.1</ele>
        <time>2013-02-19T15:11:48Z</time>
      </trkpt>
      <trkpt lat="45.86238" lon="6.45239">
        <ele>2052.8</ele>
        <time>2013-02-19T15:11:52Z</time>
      </trkpt>
      <trkpt lat="45.86239" lon="6.45243">
        <ele>2051.1</ele>
        <time>2013-02-19T15:11:53Z</time>
      </trkpt>
      <trkpt lat="45.86246" lon="6.4525">
        <ele>2041.1</ele>
        <time>2013-02-19T15:12:00Z</time>
      </trkpt>
      <trkpt lat="45.86253" lon="6.45252">
        <ele>2026.9</ele>
        <time>2013-02-19T15:12:14Z</time>
      </trkpt>
      <trkpt lat="45.86257" lon="6.45258">
        <ele>2022.9</ele>
        <time>2013-02-19T15:12:16Z</time>
      </trkpt>
      <trkpt lat="45.86264" lon="6.45256">
        <ele>2019.1</ele>
        <time>2013-02-19T15:12:18Z</time>
      </trkpt>
      <trkpt lat="45.86271" lon="6.4526">
        <ele>2013.6</ele>
        <time>2013-02-19T15:12:21Z</time>
      </trkpt>
      <trkpt lat="45.86279" lon="6.45261">
        <ele>2006.8</ele>
        <time>2013-02-19T15:12:25Z</time>
      </trkpt>
      <trkpt lat="45.86287" lon="6.4526">
        <ele>2001.8</ele>
        <time>2013-02-19T15:12:32Z</time>
      </trkpt>
      <trkpt lat="45.86287" lon="6.4527">
        <ele>1999.1</ele>
        <time>2013-02-19T15:12:34Z</time>
      </trkpt>
      <trkpt lat="45.86284" lon="6.45281">
        <ele>1996.6</ele>
        <time>2013-02-19T15:12:36Z</time>
      </trkpt>
      <trkpt lat="45.86281" lon="6.45292">
        <ele>1994</ele>
        <time>2013-02-19T15:12:38Z</time>
      </trkpt>
      <trkpt lat="45.86276" lon="6.45303">
        <ele>1990.4</ele>
        <time>2013-02-19T15:12:44Z</time>
      </trkpt>
      <trkpt lat="45.86276" lon="6.45311">
        <ele>1988.1</ele>
        <time>2013-02-19T15:12:48Z</time>
      </trkpt>
      <trkpt lat="45.86273" lon="6.45322">
        <ele>1985.1</ele>
        <time>2013-02-19T15:12:50Z</time>
      </trkpt>
      <trkpt lat="45.86275" lon="6.45333">
        <ele>1980.3</ele>
        <time>2013-02-19T15:12:53Z</time>
      </trkpt>
      <trkpt lat="45.86278" lon="6.45337">
        <ele>1978</ele>
        <time>2013-02-19T15:12:54Z</time>
      </trkpt>
      <trkpt lat="45.8628" lon="6.45355">
        <ele>1972.1</ele>
        <time>2013-02-19T15:12:57Z</time>
      </trkpt>
      <trkpt lat="45.86289" lon="6.45356">
        <ele>1968.1</ele>
        <time>2013-02-19T15:12:59Z</time>
      </trkpt>
      <trkpt lat="45.86292" lon="6.45361">
        <ele>1966</ele>
        <time>2013-02-19T15:13:00Z</time>
      </trkpt>
      <trkpt lat="45.86295" lon="6.45367">
        <ele>1964.8</ele>
        <time>2013-02-19T15:13:01Z</time>
      </trkpt>
      <trkpt lat="45.86299" lon="6.45373">
        <ele>1963.8</ele>
        <time>2013-02-19T15:13:02Z</time>
      </trkpt>
      <trkpt lat="45.86306" lon="6.45374">
        <ele>1963.4</ele>
        <time>2013-02-19T15:13:04Z</time>
      </trkpt>
      <trkpt lat="45.86319" lon="6.45371">
        <ele>1977.5</ele>
        <time>2013-02-19T15:13:11Z</time>
      </trkpt>
      <trkpt lat="45.8638" lon="6.45398">
        <ele>1998.5</ele>
        <time>2013-02-19T15:13:33Z</time>
      </trkpt>
      <trkpt lat="45.86385" lon="6.45402">
        <ele>1997.8</ele>
        <time>2013-02-19T15:13:34Z</time>
      </trkpt>
      <trkpt lat="45.86388" lon="6.45407">
        <ele>1996.1</ele>
        <time>2013-02-19T15:13:35Z</time>
      </trkpt>
      <trkpt lat="45.86395" lon="6.45413">
        <ele>1990</ele>
        <time>2013-02-19T15:13:37Z</time>
      </trkpt>
      <trkpt lat="45.86388" lon="6.45415">
        <ele>1959.5</ele>
        <time>2013-02-19T15:13:53Z</time>
      </trkpt>
      <trkpt lat="45.86385" lon="6.45425">
        <ele>1947.9</ele>
        <time>2013-02-19T15:13:59Z</time>
      </trkpt>
      <trkpt lat="45.86385" lon="6.45431">
        <ele>1945.3</ele>
        <time>2013-02-19T15:14:00Z</time>
      </trkpt>
      <trkpt lat="45.86394" lon="6.45444">
        <ele>1928.1</ele>
        <time>2013-02-19T15:14:05Z</time>
      </trkpt>
      <trkpt lat="45.86401" lon="6.45451">
        <ele>1917.3</ele>
        <time>2013-02-19T15:14:08Z</time>
      </trkpt>
      <trkpt lat="45.86407" lon="6.45459">
        <ele>1893.4</ele>
        <time>2013-02-19T15:14:21Z</time>
      </trkpt>
      <trkpt lat="45.86408" lon="6.45467">
        <ele>1891</ele>
        <time>2013-02-19T15:14:22Z</time>
      </trkpt>
      <trkpt lat="45.86409" lon="6.45474">
        <ele>1888.9</ele>
        <time>2013-02-19T15:14:23Z</time>
      </trkpt>
      <trkpt lat="45.86412" lon="6.45481">
        <ele>1886.8</ele>
        <time>2013-02-19T15:14:24Z</time>
      </trkpt>
      <trkpt lat="45.86413" lon="6.45492">
        <ele>1883.6</ele>
        <time>2013-02-19T15:14:26Z</time>
      </trkpt>
      <trkpt lat="45.86417" lon="6.45501">
        <ele>1871.5</ele>
        <time>2013-02-19T15:14:46Z</time>
      </trkpt>
      <trkpt lat="45.86423" lon="6.45505">
        <ele>1867.4</ele>
        <time>2013-02-19T15:14:48Z</time>
      </trkpt>
      <trkpt lat="45.86429" lon="6.45506">
        <ele>1863.3</ele>
        <time>2013-02-19T15:14:50Z</time>
      </trkpt>
      <trkpt lat="45.86436" lon="6.45509">
        <ele>1859</ele>
        <time>2013-02-19T15:14:52Z</time>
      </trkpt>
      <trkpt lat="45.86441" lon="6.45514">
        <ele>1854.6</ele>
        <time>2013-02-19T15:14:54Z</time>
      </trkpt>
      <trkpt lat="45.86449" lon="6.45514">
        <ele>1849.4</ele>
        <time>2013-02-19T15:14:56Z</time>
      </trkpt>
      <trkpt lat="45.86456" lon="6.45519">
        <ele>1842.6</ele>
        <time>2013-02-19T15:14:58Z</time>
      </trkpt>
      <trkpt lat="45.86463" lon="6.45523">
        <ele>1836.1</ele>
        <time>2013-02-19T15:15:00Z</time>
      </trkpt>
      <trkpt lat="45.86463" lon="6.45534">
        <ele>1833</ele>
        <time>2013-02-19T15:15:02Z</time>
      </trkpt>
      <trkpt lat="45.86463" lon="6.4554">
        <ele>1831.5</ele>
        <time>2013-02-19T15:15:03Z</time>
      </trkpt>
      <trkpt lat="45.86463" lon="6.45548">
        <ele>1830</ele>
        <time>2013-02-19T15:15:04Z</time>
      </trkpt>
      <trkpt lat="45.86462" lon="6.45556">
        <ele>1828.5</ele>
        <time>2013-02-19T15:15:05Z</time>
      </trkpt>
      <trkpt lat="45.86461" lon="6.45563">
        <ele>1827.3</ele>
        <time>2013-02-19T15:15:06Z</time>
      </trkpt>
      <trkpt lat="45.8646" lon="6.45576">
        <ele>1825.4</ele>
        <time>2013-02-19T15:15:08Z</time>
      </trkpt>
      <trkpt lat="45.86459" lon="6.45587">
        <ele>1823.3</ele>
        <time>2013-02-19T15:15:15Z</time>
      </trkpt>
      <trkpt lat="45.86455" lon="6.45592">
        <ele>1821.5</ele>
        <time>2013-02-19T15:15:17Z</time>
      </trkpt>
      <trkpt lat="45.8645" lon="6.45601">
        <ele>1819</ele>
        <time>2013-02-19T15:15:19Z</time>
      </trkpt>
      <trkpt lat="45.86448" lon="6.45611">
        <ele>1817</ele>
        <time>2013-02-19T15:15:21Z</time>
      </trkpt>
      <trkpt lat="45.86446" lon="6.45622">
        <ele>1815.5</ele>
        <time>2013-02-19T15:15:23Z</time>
      </trkpt>
      <trkpt lat="45.86444" lon="6.45634">
        <ele>1814.1</ele>
        <time>2013-02-19T15:15:32Z</time>
      </trkpt>
      <trkpt lat="45.86445" lon="6.45642">
        <ele>1812.8</ele>
        <time>2013-02-19T15:15:35Z</time>
      </trkpt>
      <trkpt lat="45.86447" lon="6.45654">
        <ele>1810.8</ele>
        <time>2013-02-19T15:15:37Z</time>
      </trkpt>
      <trkpt lat="45.86454" lon="6.45653">
        <ele>1808</ele>
        <time>2013-02-19T15:15:39Z</time>
      </trkpt>
      <trkpt lat="45.86459" lon="6.45659">
        <ele>1805.1</ele>
        <time>2013-02-19T15:15:41Z</time>
      </trkpt>
      <trkpt lat="45.86461" lon="6.45665">
        <ele>1804</ele>
        <time>2013-02-19T15:15:42Z</time>
      </trkpt>
      <trkpt lat="45.86463" lon="6.4567">
        <ele>1803.3</ele>
        <time>2013-02-19T15:15:43Z</time>
      </trkpt>
      <trkpt lat="45.86466" lon="6.45675">
        <ele>1802.3</ele>
        <time>2013-02-19T15:15:44Z</time>
      </trkpt>
      <trkpt lat="45.86473" lon="6.45681">
        <ele>1800</ele>
        <time>2013-02-19T15:15:46Z</time>
      </trkpt>
      <trkpt lat="45.86482" lon="6.45677">
        <ele>1790.9</ele>
        <time>2013-02-19T15:15:54Z</time>
      </trkpt>
      <trkpt lat="45.86487" lon="6.45671">
        <ele>1788.5</ele>
        <time>2013-02-19T15:15:58Z</time>
      </trkpt>
      <trkpt lat="45.86491" lon="6.4566">
        <ele>1784.5</ele>
        <time>2013-02-19T15:16:05Z</time>
      </trkpt>
      <trkpt lat="45.86491" lon="6.45659">
        <ele>1784.5</ele>
        <time>2013-02-19T15:16:06Z</time>
      </trkpt>
      <trkpt lat="45.86491" lon="6.45642">
        <ele>1787.5</ele>
        <time>2013-02-19T15:17:12Z</time>
      </trkpt>
      <trkpt lat="45.86495" lon="6.45644">
        <ele>1786.3</ele>
        <time>2013-02-19T15:17:13Z</time>
      </trkpt>
      <trkpt lat="45.86497" lon="6.45658">
        <ele>1782.6</ele>
        <time>2013-02-19T15:17:16Z</time>
      </trkpt>
      <trkpt lat="45.86503" lon="6.4566">
        <ele>1780.4</ele>
        <time>2013-02-19T15:17:18Z</time>
      </trkpt>
      <trkpt lat="45.8651" lon="6.45656">
        <ele>1777.5</ele>
        <time>2013-02-19T15:17:20Z</time>
      </trkpt>
      <trkpt lat="45.86514" lon="6.45668">
        <ele>1772</ele>
        <time>2013-02-19T15:17:31Z</time>
      </trkpt>
      <trkpt lat="45.86518" lon="6.45678">
        <ele>1767.6</ele>
        <time>2013-02-19T15:17:40Z</time>
      </trkpt>
      <trkpt lat="45.86524" lon="6.45679">
        <ele>1765.1</ele>
        <time>2013-02-19T15:17:42Z</time>
      </trkpt>
      <trkpt lat="45.8653" lon="6.45672">
        <ele>1762.8</ele>
        <time>2013-02-19T15:17:44Z</time>
      </trkpt>
      <trkpt lat="45.86538" lon="6.45677">
        <ele>1756.3</ele>
        <time>2013-02-19T15:17:47Z</time>
      </trkpt>
      <trkpt lat="45.8654" lon="6.45687">
        <ele>1752.9</ele>
        <time>2013-02-19T15:17:49Z</time>
      </trkpt>
      <trkpt lat="45.86546" lon="6.45687">
        <ele>1749.5</ele>
        <time>2013-02-19T15:17:51Z</time>
      </trkpt>
      <trkpt lat="45.86554" lon="6.45687">
        <ele>1744.9</ele>
        <time>2013-02-19T15:17:54Z</time>
      </trkpt>
      <trkpt lat="45.86556" lon="6.45696">
        <ele>1743.3</ele>
        <time>2013-02-19T15:17:57Z</time>
      </trkpt>
      <trkpt lat="45.86562" lon="6.45698">
        <ele>1740.8</ele>
        <time>2013-02-19T15:17:59Z</time>
      </trkpt>
      <trkpt lat="45.86571" lon="6.45695">
        <ele>1736.5</ele>
        <time>2013-02-19T15:18:02Z</time>
      </trkpt>
      <trkpt lat="45.86575" lon="6.45703">
        <ele>1733.8</ele>
        <time>2013-02-19T15:18:04Z</time>
      </trkpt>
      <trkpt lat="45.86581" lon="6.45698">
        <ele>1730.8</ele>
        <time>2013-02-19T15:18:06Z</time>
      </trkpt>
      <trkpt lat="45.86588" lon="6.457">
        <ele>1725</ele>
        <time>2013-02-19T15:18:09Z</time>
      </trkpt>
      <trkpt lat="45.86596" lon="6.45697">
        <ele>1720.9</ele>
        <time>2013-02-19T15:18:12Z</time>
      </trkpt>
      <trkpt lat="45.86604" lon="6.45696">
        <ele>1714.3</ele>
        <time>2013-02-19T15:18:33Z</time>
      </trkpt>
      <trkpt lat="45.86605" lon="6.45699">
        <ele>1713.4</ele>
        <time>2013-02-19T15:18:34Z</time>
      </trkpt>
      <trkpt lat="45.86613" lon="6.45701">
        <ele>1710.5</ele>
        <time>2013-02-19T15:18:37Z</time>
      </trkpt>
      <trkpt lat="45.86622" lon="6.45699">
        <ele>1706.3</ele>
        <time>2013-02-19T15:18:40Z</time>
      </trkpt>
      <trkpt lat="45.8663" lon="6.45697">
        <ele>1702</ele>
        <time>2013-02-19T15:18:43Z</time>
      </trkpt>
      <trkpt lat="45.86636" lon="6.4569">
        <ele>1699</ele>
        <time>2013-02-19T15:18:45Z</time>
      </trkpt>
      <trkpt lat="45.86642" lon="6.45696">
        <ele>1695</ele>
        <time>2013-02-19T15:18:47Z</time>
      </trkpt>
      <trkpt lat="45.86648" lon="6.45691">
        <ele>1691.1</ele>
        <time>2013-02-19T15:18:49Z</time>
      </trkpt>
      <trkpt lat="45.86655" lon="6.45697">
        <ele>1686</ele>
        <time>2013-02-19T15:18:52Z</time>
      </trkpt>
      <trkpt lat="45.86661" lon="6.45707">
        <ele>1679.6</ele>
        <time>2013-02-19T15:19:16Z</time>
      </trkpt>
      <trkpt lat="45.86669" lon="6.45712">
        <ele>1676.1</ele>
        <time>2013-02-19T15:19:46Z</time>
      </trkpt>
      <trkpt lat="45.86672" lon="6.45708">
        <ele>1675.5</ele>
        <time>2013-02-19T15:19:47Z</time>
      </trkpt>
      <trkpt lat="45.86683" lon="6.45704">
        <ele>1669.8</ele>
        <time>2013-02-19T15:19:50Z</time>
      </trkpt>
      <trkpt lat="45.86688" lon="6.45712">
        <ele>1666.6</ele>
        <time>2013-02-19T15:19:52Z</time>
      </trkpt>
      <trkpt lat="45.86695" lon="6.45706">
        <ele>1663.9</ele>
        <time>2013-02-19T15:19:54Z</time>
      </trkpt>
      <trkpt lat="45.86704" lon="6.45707">
        <ele>1659.3</ele>
        <time>2013-02-19T15:19:57Z</time>
      </trkpt>
      <trkpt lat="45.86711" lon="6.45707">
        <ele>1655.5</ele>
        <time>2013-02-19T15:19:59Z</time>
      </trkpt>
      <trkpt lat="45.86718" lon="6.45711">
        <ele>1650.5</ele>
        <time>2013-02-19T15:20:01Z</time>
      </trkpt>
      <trkpt lat="45.86723" lon="6.45704">
        <ele>1648.1</ele>
        <time>2013-02-19T15:20:03Z</time>
      </trkpt>
      <trkpt lat="45.86729" lon="6.45696">
        <ele>1645.8</ele>
        <time>2013-02-19T15:20:05Z</time>
      </trkpt>
      <trkpt lat="45.86737" lon="6.45688">
        <ele>1643.4</ele>
        <time>2013-02-19T15:20:07Z</time>
      </trkpt>
      <trkpt lat="45.86742" lon="6.45681">
        <ele>1641.5</ele>
        <time>2013-02-19T15:20:09Z</time>
      </trkpt>
      <trkpt lat="45.86746" lon="6.45677">
        <ele>1640.1</ele>
        <time>2013-02-19T15:20:10Z</time>
      </trkpt>
      <trkpt lat="45.86752" lon="6.45674">
        <ele>1638.4</ele>
        <time>2013-02-19T15:20:11Z</time>
      </trkpt>
      <trkpt lat="45.86756" lon="6.45677">
        <ele>1636</ele>
        <time>2013-02-19T15:20:12Z</time>
      </trkpt>
      <trkpt lat="45.86763" lon="6.45684">
        <ele>1631.5</ele>
        <time>2013-02-19T15:20:14Z</time>
      </trkpt>
      <trkpt lat="45.8677" lon="6.45677">
        <ele>1628.5</ele>
        <time>2013-02-19T15:20:16Z</time>
      </trkpt>
      <trkpt lat="45.86775" lon="6.45666">
        <ele>1625.5</ele>
        <time>2013-02-19T15:20:30Z</time>
      </trkpt>
      <trkpt lat="45.86779" lon="6.45675">
        <ele>1623.5</ele>
        <time>2013-02-19T15:20:34Z</time>
      </trkpt>
      <trkpt lat="45.86781" lon="6.45685">
        <ele>1621.1</ele>
        <time>2013-02-19T15:20:36Z</time>
      </trkpt>
      <trkpt lat="45.86785" lon="6.45697">
        <ele>1618.3</ele>
        <time>2013-02-19T15:20:38Z</time>
      </trkpt>
      <trkpt lat="45.8679" lon="6.45697">
        <ele>1616.9</ele>
        <time>2013-02-19T15:20:39Z</time>
      </trkpt>
      <trkpt lat="45.86798" lon="6.45698">
        <ele>1614</ele>
        <time>2013-02-19T15:20:41Z</time>
      </trkpt>
      <trkpt lat="45.868" lon="6.45704">
        <ele>1612</ele>
        <time>2013-02-19T15:20:42Z</time>
      </trkpt>
      <trkpt lat="45.86808" lon="6.45705">
        <ele>1608.5</ele>
        <time>2013-02-19T15:20:44Z</time>
      </trkpt>
      <trkpt lat="45.86815" lon="6.457">
        <ele>1606</ele>
        <time>2013-02-19T15:20:46Z</time>
      </trkpt>
      <trkpt lat="45.86823" lon="6.457">
        <ele>1602.1</ele>
        <time>2013-02-19T15:20:48Z</time>
      </trkpt>
      <trkpt lat="45.86827" lon="6.45698">
        <ele>1600.1</ele>
        <time>2013-02-19T15:20:49Z</time>
      </trkpt>
      <trkpt lat="45.86839" lon="6.45707">
        <ele>1595.3</ele>
        <time>2013-02-19T15:21:01Z</time>
      </trkpt>
      <trkpt lat="45.86843" lon="6.457">
        <ele>1593.4</ele>
        <time>2013-02-19T15:21:03Z</time>
      </trkpt>
      <trkpt lat="45.86847" lon="6.45689">
        <ele>1590.9</ele>
        <time>2013-02-19T15:21:05Z</time>
      </trkpt>
      <trkpt lat="45.8685" lon="6.45682">
        <ele>1589.4</ele>
        <time>2013-02-19T15:21:06Z</time>
      </trkpt>
      <trkpt lat="45.86853" lon="6.45675">
        <ele>1588</ele>
        <time>2013-02-19T15:21:07Z</time>
      </trkpt>
      <trkpt lat="45.86856" lon="6.45669">
        <ele>1586.5</ele>
        <time>2013-02-19T15:21:08Z</time>
      </trkpt>
      <trkpt lat="45.86858" lon="6.45663">
        <ele>1585.5</ele>
        <time>2013-02-19T15:21:09Z</time>
      </trkpt>
      <trkpt lat="45.86862" lon="6.45653">
        <ele>1583.6</ele>
        <time>2013-02-19T15:21:11Z</time>
      </trkpt>
      <trkpt lat="45.86865" lon="6.45645">
        <ele>1582</ele>
        <time>2013-02-19T15:21:13Z</time>
      </trkpt>
      <trkpt lat="45.86869" lon="6.45634">
        <ele>1580.1</ele>
        <time>2013-02-19T15:21:15Z</time>
      </trkpt>
      <trkpt lat="45.86878" lon="6.45631">
        <ele>1576.5</ele>
        <time>2013-02-19T15:21:17Z</time>
      </trkpt>
      <trkpt lat="45.86883" lon="6.4563">
        <ele>1574</ele>
        <time>2013-02-19T15:21:18Z</time>
      </trkpt>
      <trkpt lat="45.86886" lon="6.45624">
        <ele>1571.9</ele>
        <time>2013-02-19T15:21:19Z</time>
      </trkpt>
      <trkpt lat="45.86889" lon="6.45617">
        <ele>1570.1</ele>
        <time>2013-02-19T15:21:20Z</time>
      </trkpt>
      <trkpt lat="45.86892" lon="6.45605">
        <ele>1567.8</ele>
        <time>2013-02-19T15:21:22Z</time>
      </trkpt>
      <trkpt lat="45.86898" lon="6.45608">
        <ele>1563.4</ele>
        <time>2013-02-19T15:21:31Z</time>
      </trkpt>
      <trkpt lat="45.86904" lon="6.45615">
        <ele>1560.9</ele>
        <time>2013-02-19T15:21:33Z</time>
      </trkpt>
      <trkpt lat="45.86912" lon="6.45611">
        <ele>1557.3</ele>
        <time>2013-02-19T15:21:35Z</time>
      </trkpt>
      <trkpt lat="45.86918" lon="6.45611">
        <ele>1555.4</ele>
        <time>2013-02-19T15:21:36Z</time>
      </trkpt>
      <trkpt lat="45.86922" lon="6.45607">
        <ele>1553.3</ele>
        <time>2013-02-19T15:21:37Z</time>
      </trkpt>
      <trkpt lat="45.86925" lon="6.456">
        <ele>1551.5</ele>
        <time>2013-02-19T15:21:38Z</time>
      </trkpt>
      <trkpt lat="45.86927" lon="6.45593">
        <ele>1550</ele>
        <time>2013-02-19T15:21:39Z</time>
      </trkpt>
      <trkpt lat="45.86929" lon="6.45586">
        <ele>1548.4</ele>
        <time>2013-02-19T15:21:40Z</time>
      </trkpt>
      <trkpt lat="45.86934" lon="6.45582">
        <ele>1546.8</ele>
        <time>2013-02-19T15:21:41Z</time>
      </trkpt>
      <trkpt lat="45.8694" lon="6.45581">
        <ele>1544.5</ele>
        <time>2013-02-19T15:21:42Z</time>
      </trkpt>
      <trkpt lat="45.86946" lon="6.45576">
        <ele>1542.5</ele>
        <time>2013-02-19T15:21:43Z</time>
      </trkpt>
      <trkpt lat="45.86951" lon="6.45571">
        <ele>1540.5</ele>
        <time>2013-02-19T15:21:44Z</time>
      </trkpt>
      <trkpt lat="45.86957" lon="6.45568">
        <ele>1538.5</ele>
        <time>2013-02-19T15:21:45Z</time>
      </trkpt>
      <trkpt lat="45.86964" lon="6.45566">
        <ele>1536.6</ele>
        <time>2013-02-19T15:21:46Z</time>
      </trkpt>
      <trkpt lat="45.86972" lon="6.45563">
        <ele>1534.8</ele>
        <time>2013-02-19T15:21:47Z</time>
      </trkpt>
      <trkpt lat="45.8698" lon="6.4556">
        <ele>1533</ele>
        <time>2013-02-19T15:21:48Z</time>
      </trkpt>
      <trkpt lat="45.86987" lon="6.45557">
        <ele>1531.5</ele>
        <time>2013-02-19T15:21:49Z</time>
      </trkpt>
      <trkpt lat="45.86992" lon="6.45552">
        <ele>1530.9</ele>
        <time>2013-02-19T15:21:50Z</time>
      </trkpt>
      <trkpt lat="45.86998" lon="6.45544">
        <ele>1529.9</ele>
        <time>2013-02-19T15:22:00Z</time>
      </trkpt>
      <trkpt lat="45.87003" lon="6.45542">
        <ele>1529</ele>
        <time>2013-02-19T15:22:02Z</time>
      </trkpt>
      <trkpt lat="45.87012" lon="6.4554">
        <ele>1527.6</ele>
        <time>2013-02-19T15:22:04Z</time>
      </trkpt>
      <trkpt lat="45.87016" lon="6.45539">
        <ele>1526.9</ele>
        <time>2013-02-19T15:22:05Z</time>
      </trkpt>
      <trkpt lat="45.87021" lon="6.45536">
        <ele>1525.9</ele>
        <time>2013-02-19T15:22:06Z</time>
      </trkpt>
      <trkpt lat="45.87025" lon="6.45533">
        <ele>1525</ele>
        <time>2013-02-19T15:22:07Z</time>
      </trkpt>
      <trkpt lat="45.8703" lon="6.45529">
        <ele>1524</ele>
        <time>2013-02-19T15:22:08Z</time>
      </trkpt>
      <trkpt lat="45.87035" lon="6.45524">
        <ele>1522.9</ele>
        <time>2013-02-19T15:22:09Z</time>
      </trkpt>
      <trkpt lat="45.8704" lon="6.4552">
        <ele>1521.5</ele>
        <time>2013-02-19T15:22:10Z</time>
      </trkpt>
      <trkpt lat="45.87046" lon="6.45516">
        <ele>1520</ele>
        <time>2013-02-19T15:22:11Z</time>
      </trkpt>
      <trkpt lat="45.87052" lon="6.45511">
        <ele>1518.5</ele>
        <time>2013-02-19T15:22:12Z</time>
      </trkpt>
      <trkpt lat="45.87059" lon="6.45506">
        <ele>1516.8</ele>
        <time>2013-02-19T15:22:13Z</time>
      </trkpt>
      <trkpt lat="45.87066" lon="6.455">
        <ele>1514.8</ele>
        <time>2013-02-19T15:22:14Z</time>
      </trkpt>
      <trkpt lat="45.87074" lon="6.45494">
        <ele>1512.5</ele>
        <time>2013-02-19T15:22:15Z</time>
      </trkpt>
      <trkpt lat="45.87081" lon="6.45487">
        <ele>1510.8</ele>
        <time>2013-02-19T15:22:16Z</time>
      </trkpt>
      <trkpt lat="45.87087" lon="6.45479">
        <ele>1509.3</ele>
        <time>2013-02-19T15:22:17Z</time>
      </trkpt>
      <trkpt lat="45.87092" lon="6.45473">
        <ele>1508.1</ele>
        <time>2013-02-19T15:22:18Z</time>
      </trkpt>
      <trkpt lat="45.87097" lon="6.45468">
        <ele>1507</ele>
        <time>2013-02-19T15:22:19Z</time>
      </trkpt>
      <trkpt lat="45.87103" lon="6.45465">
        <ele>1505.6</ele>
        <time>2013-02-19T15:22:20Z</time>
      </trkpt>
      <trkpt lat="45.87109" lon="6.45462">
        <ele>1504</ele>
        <time>2013-02-19T15:22:21Z</time>
      </trkpt>
      <trkpt lat="45.87116" lon="6.45458">
        <ele>1502.8</ele>
        <time>2013-02-19T15:22:22Z</time>
      </trkpt>
      <trkpt lat="45.87122" lon="6.45455">
        <ele>1501.8</ele>
        <time>2013-02-19T15:22:23Z</time>
      </trkpt>
      <trkpt lat="45.87128" lon="6.45452">
        <ele>1500.6</ele>
        <time>2013-02-19T15:22:24Z</time>
      </trkpt>
      <trkpt lat="45.87134" lon="6.45449">
        <ele>1499.5</ele>
        <time>2013-02-19T15:22:25Z</time>
      </trkpt>
      <trkpt lat="45.87141" lon="6.45444">
        <ele>1498.4</ele>
        <time>2013-02-19T15:22:26Z</time>
      </trkpt>
      <trkpt lat="45.87147" lon="6.45441">
        <ele>1497</ele>
        <time>2013-02-19T15:22:27Z</time>
      </trkpt>
      <trkpt lat="45.87154" lon="6.45437">
        <ele>1495.9</ele>
        <time>2013-02-19T15:22:28Z</time>
      </trkpt>
      <trkpt lat="45.8716" lon="6.45433">
        <ele>1494.6</ele>
        <time>2013-02-19T15:22:29Z</time>
      </trkpt>
      <trkpt lat="45.87165" lon="6.45429">
        <ele>1493.5</ele>
        <time>2013-02-19T15:22:30Z</time>
      </trkpt>
      <trkpt lat="45.87171" lon="6.4542">
        <ele>1495</ele>
        <time>2013-02-19T15:22:41Z</time>
      </trkpt>
      <trkpt lat="45.87176" lon="6.4543">
        <ele>1494.9</ele>
        <time>2013-02-19T15:22:48Z</time>
      </trkpt>
      <trkpt lat="45.87182" lon="6.45437">
        <ele>1493.4</ele>
        <time>2013-02-19T15:22:50Z</time>
      </trkpt>
      <trkpt lat="45.87185" lon="6.45436">
        <ele>1492.9</ele>
        <time>2013-02-19T15:22:51Z</time>
      </trkpt>
      <trkpt lat="45.87194" lon="6.45442">
        <ele>1490</ele>
        <time>2013-02-19T15:23:00Z</time>
      </trkpt>
      <trkpt lat="45.87202" lon="6.45442">
        <ele>1487.8</ele>
        <time>2013-02-19T15:23:05Z</time>
      </trkpt>
      <trkpt lat="45.8721" lon="6.4544">
        <ele>1485.6</ele>
        <time>2013-02-19T15:23:08Z</time>
      </trkpt>
      <trkpt lat="45.87218" lon="6.45438">
        <ele>1484</ele>
        <time>2013-02-19T15:23:10Z</time>
      </trkpt>
      <trkpt lat="45.87225" lon="6.45433">
        <ele>1482.8</ele>
        <time>2013-02-19T15:23:19Z</time>
      </trkpt>
      <trkpt lat="45.87231" lon="6.45427">
        <ele>1482.4</ele>
        <time>2013-02-19T15:23:23Z</time>
      </trkpt>
      <trkpt lat="45.87237" lon="6.45422">
        <ele>1481</ele>
        <time>2013-02-19T15:23:25Z</time>
      </trkpt>
      <trkpt lat="45.87242" lon="6.45419">
        <ele>1480</ele>
        <time>2013-02-19T15:23:26Z</time>
      </trkpt>
      <trkpt lat="45.87247" lon="6.45416">
        <ele>1478.5</ele>
        <time>2013-02-19T15:23:27Z</time>
      </trkpt>
      <trkpt lat="45.87253" lon="6.45411">
        <ele>1477.1</ele>
        <time>2013-02-19T15:23:28Z</time>
      </trkpt>
      <trkpt lat="45.87258" lon="6.45405">
        <ele>1475.5</ele>
        <time>2013-02-19T15:23:29Z</time>
      </trkpt>
      <trkpt lat="45.87263" lon="6.45398">
        <ele>1474.4</ele>
        <time>2013-02-19T15:23:30Z</time>
      </trkpt>
      <trkpt lat="45.87268" lon="6.45393">
        <ele>1473</ele>
        <time>2013-02-19T15:23:31Z</time>
      </trkpt>
      <trkpt lat="45.87274" lon="6.45389">
        <ele>1471.4</ele>
        <time>2013-02-19T15:23:32Z</time>
      </trkpt>
      <trkpt lat="45.87279" lon="6.45385">
        <ele>1469.5</ele>
        <time>2013-02-19T15:23:33Z</time>
      </trkpt>
      <trkpt lat="45.87285" lon="6.45385">
        <ele>1467.8</ele>
        <time>2013-02-19T15:23:34Z</time>
      </trkpt>
      <trkpt lat="45.8729" lon="6.45381">
        <ele>1466</ele>
        <time>2013-02-19T15:23:35Z</time>
      </trkpt>
      <trkpt lat="45.87294" lon="6.45376">
        <ele>1464.6</ele>
        <time>2013-02-19T15:23:36Z</time>
      </trkpt>
      <trkpt lat="45.87299" lon="6.4537">
        <ele>1463.1</ele>
        <time>2013-02-19T15:23:37Z</time>
      </trkpt>
      <trkpt lat="45.87304" lon="6.45364">
        <ele>1461.5</ele>
        <time>2013-02-19T15:23:38Z</time>
      </trkpt>
      <trkpt lat="45.87311" lon="6.4536">
        <ele>1459.6</ele>
        <time>2013-02-19T15:23:39Z</time>
      </trkpt>
      <trkpt lat="45.87318" lon="6.45358">
        <ele>1457.5</ele>
        <time>2013-02-19T15:23:40Z</time>
      </trkpt>
      <trkpt lat="45.87324" lon="6.45352">
        <ele>1455.6</ele>
        <time>2013-02-19T15:23:41Z</time>
      </trkpt>
      <trkpt lat="45.8733" lon="6.45345">
        <ele>1453.9</ele>
        <time>2013-02-19T15:23:42Z</time>
      </trkpt>
      <trkpt lat="45.87336" lon="6.45343">
        <ele>1451.9</ele>
        <time>2013-02-19T15:23:43Z</time>
      </trkpt>
      <trkpt lat="45.87343" lon="6.45338">
        <ele>1450</ele>
        <time>2013-02-19T15:23:44Z</time>
      </trkpt>
      <trkpt lat="45.87349" lon="6.45333">
        <ele>1448</ele>
        <time>2013-02-19T15:23:45Z</time>
      </trkpt>
      <trkpt lat="45.87356" lon="6.4533">
        <ele>1446</ele>
        <time>2013-02-19T15:23:46Z</time>
      </trkpt>
      <trkpt lat="45.87364" lon="6.45327">
        <ele>1444.1</ele>
        <time>2013-02-19T15:23:47Z</time>
      </trkpt>
      <trkpt lat="45.8737" lon="6.45322">
        <ele>1442.1</ele>
        <time>2013-02-19T15:23:48Z</time>
      </trkpt>
      <trkpt lat="45.87377" lon="6.45317">
        <ele>1440.3</ele>
        <time>2013-02-19T15:23:49Z</time>
      </trkpt>
      <trkpt lat="45.87385" lon="6.45313">
        <ele>1438.1</ele>
        <time>2013-02-19T15:23:50Z</time>
      </trkpt>
      <trkpt lat="45.87394" lon="6.45309">
        <ele>1436.1</ele>
        <time>2013-02-19T15:23:51Z</time>
      </trkpt>
      <trkpt lat="45.87403" lon="6.45304">
        <ele>1434</ele>
        <time>2013-02-19T15:23:52Z</time>
      </trkpt>
      <trkpt lat="45.87412" lon="6.45298">
        <ele>1432</ele>
        <time>2013-02-19T15:23:53Z</time>
      </trkpt>
      <trkpt lat="45.8742" lon="6.45293">
        <ele>1430.3</ele>
        <time>2013-02-19T15:23:54Z</time>
      </trkpt>
      <trkpt lat="45.87429" lon="6.45289">
        <ele>1428.6</ele>
        <time>2013-02-19T15:23:55Z</time>
      </trkpt>
      <trkpt lat="45.87436" lon="6.45284">
        <ele>1427.5</ele>
        <time>2013-02-19T15:23:56Z</time>
      </trkpt>
      <trkpt lat="45.8744" lon="6.45278">
        <ele>1426.5</ele>
        <time>2013-02-19T15:23:57Z</time>
      </trkpt>
      <trkpt lat="45.87443" lon="6.45273">
        <ele>1425.6</ele>
        <time>2013-02-19T15:23:58Z</time>
      </trkpt>
      <trkpt lat="45.87447" lon="6.45269">
        <ele>1425</ele>
        <time>2013-02-19T15:23:59Z</time>
      </trkpt>
      <trkpt lat="45.87452" lon="6.45265">
        <ele>1424.3</ele>
        <time>2013-02-19T15:24:00Z</time>
      </trkpt>
      <trkpt lat="45.87456" lon="6.45262">
        <ele>1423.8</ele>
        <time>2013-02-19T15:24:01Z</time>
      </trkpt>
      <trkpt lat="45.87464" lon="6.45258">
        <ele>1423</ele>
        <time>2013-02-19T15:24:03Z</time>
      </trkpt>
      <trkpt lat="45.87469" lon="6.45251">
        <ele>1422.3</ele>
        <time>2013-02-19T15:24:05Z</time>
      </trkpt>
      <trkpt lat="45.87471" lon="6.45239">
        <ele>1420.5</ele>
        <time>2013-02-19T15:24:09Z</time>
      </trkpt>
      <trkpt lat="45.87473" lon="6.45227">
        <ele>1415.5</ele>
        <time>2013-02-19T15:24:19Z</time>
      </trkpt>
      <trkpt lat="45.87475" lon="6.45215">
        <ele>1406.3</ele>
        <time>2013-02-19T15:24:51Z</time>
      </trkpt>
      <trkpt lat="45.87475" lon="6.45203">
        <ele>1407.5</ele>
        <time>2013-02-19T15:25:04Z</time>
      </trkpt>
      <trkpt lat="45.87475" lon="6.452">
        <ele>1407.5</ele>
        <time>2013-02-19T15:25:05Z</time>
      </trkpt>
      <trkpt lat="45.87478" lon="6.45183">
        <ele>1404.6</ele>
        <time>2013-02-19T15:25:10Z</time>
      </trkpt>
      <trkpt lat="45.8748" lon="6.45178">
        <ele>1403.5</ele>
        <time>2013-02-19T15:25:11Z</time>
      </trkpt>
      <trkpt lat="45.87484" lon="6.45172">
        <ele>1403</ele>
        <time>2013-02-19T15:25:12Z</time>
      </trkpt>
      <trkpt lat="45.87487" lon="6.45166">
        <ele>1401.9</ele>
        <time>2013-02-19T15:25:13Z</time>
      </trkpt>
      <trkpt lat="45.8749" lon="6.45158">
        <ele>1401</ele>
        <time>2013-02-19T15:25:14Z</time>
      </trkpt>
      <trkpt lat="45.87493" lon="6.45151">
        <ele>1400.4</ele>
        <time>2013-02-19T15:25:15Z</time>
      </trkpt>
      <trkpt lat="45.87496" lon="6.45145">
        <ele>1399.5</ele>
        <time>2013-02-19T15:25:16Z</time>
      </trkpt>
      <trkpt lat="45.875" lon="6.45139">
        <ele>1398.5</ele>
        <time>2013-02-19T15:25:17Z</time>
      </trkpt>
      <trkpt lat="45.87505" lon="6.45131">
        <ele>1397.9</ele>
        <time>2013-02-19T15:25:18Z</time>
      </trkpt>
      <trkpt lat="45.87509" lon="6.45124">
        <ele>1397</ele>
        <time>2013-02-19T15:25:19Z</time>
      </trkpt>
      <trkpt lat="45.87515" lon="6.45118">
        <ele>1396.4</ele>
        <time>2013-02-19T15:25:20Z</time>
      </trkpt>
      <trkpt lat="45.87521" lon="6.45111">
        <ele>1395.5</ele>
        <time>2013-02-19T15:25:21Z</time>
      </trkpt>
      <trkpt lat="45.87527" lon="6.45105">
        <ele>1395</ele>
        <time>2013-02-19T15:25:22Z</time>
      </trkpt>
      <trkpt lat="45.87532" lon="6.45099">
        <ele>1394.5</ele>
        <time>2013-02-19T15:25:23Z</time>
      </trkpt>
      <trkpt lat="45.87538" lon="6.45093">
        <ele>1393.9</ele>
        <time>2013-02-19T15:25:24Z</time>
      </trkpt>
      <trkpt lat="45.87543" lon="6.45086">
        <ele>1393.3</ele>
        <time>2013-02-19T15:25:25Z</time>
      </trkpt>
      <trkpt lat="45.87549" lon="6.45079">
        <ele>1392.8</ele>
        <time>2013-02-19T15:25:26Z</time>
      </trkpt>
      <trkpt lat="45.87555" lon="6.45073">
        <ele>1392</ele>
        <time>2013-02-19T15:25:27Z</time>
      </trkpt>
      <trkpt lat="45.87561" lon="6.45065">
        <ele>1391.4</ele>
        <time>2013-02-19T15:25:28Z</time>
      </trkpt>
      <trkpt lat="45.87566" lon="6.45059">
        <ele>1390.8</ele>
        <time>2013-02-19T15:25:29Z</time>
      </trkpt>
      <trkpt lat="45.87573" lon="6.45054">
        <ele>1390.1</ele>
        <time>2013-02-19T15:25:30Z</time>
      </trkpt>
      <trkpt lat="45.87578" lon="6.45048">
        <ele>1389.5</ele>
        <time>2013-02-19T15:25:31Z</time>
      </trkpt>
      <trkpt lat="45.87583" lon="6.45041">
        <ele>1389</ele>
        <time>2013-02-19T15:25:32Z</time>
      </trkpt>
      <trkpt lat="45.87588" lon="6.45035">
        <ele>1388.4</ele>
        <time>2013-02-19T15:25:33Z</time>
      </trkpt>
      <trkpt lat="45.87593" lon="6.45031">
        <ele>1387.5</ele>
        <time>2013-02-19T15:25:34Z</time>
      </trkpt>
      <trkpt lat="45.87599" lon="6.45028">
        <ele>1386.1</ele>
        <time>2013-02-19T15:25:35Z</time>
      </trkpt>
      <trkpt lat="45.87605" lon="6.45023">
        <ele>1384.6</ele>
        <time>2013-02-19T15:25:36Z</time>
      </trkpt>
      <trkpt lat="45.87611" lon="6.45017">
        <ele>1383.1</ele>
        <time>2013-02-19T15:25:37Z</time>
      </trkpt>
      <trkpt lat="45.87617" lon="6.4501">
        <ele>1381.8</ele>
        <time>2013-02-19T15:25:38Z</time>
      </trkpt>
      <trkpt lat="45.87621" lon="6.45001">
        <ele>1380.5</ele>
        <time>2013-02-19T15:25:39Z</time>
      </trkpt>
      <trkpt lat="45.87625" lon="6.44991">
        <ele>1379.3</ele>
        <time>2013-02-19T15:25:40Z</time>
      </trkpt>
      <trkpt lat="45.87629" lon="6.44982">
        <ele>1378.5</ele>
        <time>2013-02-19T15:25:41Z</time>
      </trkpt>
      <trkpt lat="45.87632" lon="6.44971">
        <ele>1378.3</ele>
        <time>2013-02-19T15:25:43Z</time>
      </trkpt>
      <trkpt lat="45.87634" lon="6.4496">
        <ele>1377.4</ele>
        <time>2013-02-19T15:25:45Z</time>
      </trkpt>
      <trkpt lat="45.87638" lon="6.4495">
        <ele>1377.5</ele>
        <time>2013-02-19T15:25:48Z</time>
      </trkpt>
      <trkpt lat="45.8764" lon="6.44939">
        <ele>1378.4</ele>
        <time>2013-02-19T15:25:53Z</time>
      </trkpt>
      <trkpt lat="45.87643" lon="6.44929">
        <ele>1378.1</ele>
        <time>2013-02-19T15:25:56Z</time>
      </trkpt>
      <trkpt lat="45.87647" lon="6.44918">
        <ele>1377.9</ele>
        <time>2013-02-19T15:25:59Z</time>
      </trkpt>
      <trkpt lat="45.87651" lon="6.44907">
        <ele>1377.6</ele>
        <time>2013-02-19T15:26:02Z</time>
      </trkpt>
      <trkpt lat="45.87655" lon="6.44896">
        <ele>1377.3</ele>
        <time>2013-02-19T15:26:05Z</time>
      </trkpt>
      <trkpt lat="45.87656" lon="6.44891">
        <ele>1377</ele>
        <time>2013-02-19T15:26:06Z</time>
      </trkpt>
      <trkpt lat="45.87663" lon="6.44877">
        <ele>1376.4</ele>
        <time>2013-02-19T15:26:09Z</time>
      </trkpt>
      <trkpt lat="45.87668" lon="6.44868">
        <ele>1376</ele>
        <time>2013-02-19T15:26:11Z</time>
      </trkpt>
      <trkpt lat="45.87673" lon="6.44858">
        <ele>1375.1</ele>
        <time>2013-02-19T15:26:13Z</time>
      </trkpt>
      <trkpt lat="45.87677" lon="6.44852">
        <ele>1374.3</ele>
        <time>2013-02-19T15:26:14Z</time>
      </trkpt>
      <trkpt lat="45.87681" lon="6.44845">
        <ele>1373.5</ele>
        <time>2013-02-19T15:26:15Z</time>
      </trkpt>
      <trkpt lat="45.87684" lon="6.44837">
        <ele>1373.1</ele>
        <time>2013-02-19T15:26:16Z</time>
      </trkpt>
      <trkpt lat="45.87687" lon="6.44831">
        <ele>1373</ele>
        <time>2013-02-19T15:26:17Z</time>
      </trkpt>
      <trkpt lat="45.8769" lon="6.44826">
        <ele>1373</ele>
        <time>2013-02-19T15:26:18Z</time>
      </trkpt>
      <trkpt lat="45.87696" lon="6.44816">
        <ele>1372.6</ele>
        <time>2013-02-19T15:26:20Z</time>
      </trkpt>
      <trkpt lat="45.87699" lon="6.44812">
        <ele>1372.4</ele>
        <time>2013-02-19T15:26:21Z</time>
      </trkpt>
      <trkpt lat="45.87703" lon="6.44807">
        <ele>1372</ele>
        <time>2013-02-19T15:26:22Z</time>
      </trkpt>
      <trkpt lat="45.87707" lon="6.44803">
        <ele>1371.6</ele>
        <time>2013-02-19T15:26:23Z</time>
      </trkpt>
      <trkpt lat="45.87711" lon="6.44799">
        <ele>1371.5</ele>
        <time>2013-02-19T15:26:24Z</time>
      </trkpt>
      <trkpt lat="45.87717" lon="6.4479">
        <ele>1371</ele>
        <time>2013-02-19T15:26:26Z</time>
      </trkpt>
      <trkpt lat="45.87722" lon="6.4478">
        <ele>1370.5</ele>
        <time>2013-02-19T15:26:28Z</time>
      </trkpt>
      <trkpt lat="45.87725" lon="6.44774">
        <ele>1370.1</ele>
        <time>2013-02-19T15:26:29Z</time>
      </trkpt>
      <trkpt lat="45.87728" lon="6.44768">
        <ele>1369.9</ele>
        <time>2013-02-19T15:26:30Z</time>
      </trkpt>
      <trkpt lat="45.8773" lon="6.44762">
        <ele>1369.5</ele>
        <time>2013-02-19T15:26:31Z</time>
      </trkpt>
      <trkpt lat="45.87733" lon="6.44755">
        <ele>1369</ele>
        <time>2013-02-19T15:26:32Z</time>
      </trkpt>
      <trkpt lat="45.87736" lon="6.44748">
        <ele>1368.3</ele>
        <time>2013-02-19T15:26:33Z</time>
      </trkpt>
      <trkpt lat="45.87739" lon="6.4474">
        <ele>1367.5</ele>
        <time>2013-02-19T15:26:34Z</time>
      </trkpt>
      <trkpt lat="45.87744" lon="6.44734">
        <ele>1366.5</ele>
        <time>2013-02-19T15:26:35Z</time>
      </trkpt>
      <trkpt lat="45.87748" lon="6.44728">
        <ele>1365.9</ele>
        <time>2013-02-19T15:26:36Z</time>
      </trkpt>
      <trkpt lat="45.87753" lon="6.44722">
        <ele>1365.5</ele>
        <time>2013-02-19T15:26:37Z</time>
      </trkpt>
      <trkpt lat="45.87757" lon="6.44715">
        <ele>1364.9</ele>
        <time>2013-02-19T15:26:38Z</time>
      </trkpt>
      <trkpt lat="45.87761" lon="6.44709">
        <ele>1364.3</ele>
        <time>2013-02-19T15:26:39Z</time>
      </trkpt>
      <trkpt lat="45.87765" lon="6.44702">
        <ele>1363.5</ele>
        <time>2013-02-19T15:26:40Z</time>
      </trkpt>
      <trkpt lat="45.8777" lon="6.44696">
        <ele>1362.8</ele>
        <time>2013-02-19T15:26:41Z</time>
      </trkpt>
      <trkpt lat="45.87775" lon="6.44688">
        <ele>1361.8</ele>
        <time>2013-02-19T15:26:42Z</time>
      </trkpt>
      <trkpt lat="45.87781" lon="6.44681">
        <ele>1360.5</ele>
        <time>2013-02-19T15:26:43Z</time>
      </trkpt>
      <trkpt lat="45.87788" lon="6.44673">
        <ele>1359.3</ele>
        <time>2013-02-19T15:26:44Z</time>
      </trkpt>
      <trkpt lat="45.87794" lon="6.44665">
        <ele>1357.9</ele>
        <time>2013-02-19T15:26:45Z</time>
      </trkpt>
      <trkpt lat="45.87801" lon="6.44656">
        <ele>1356.8</ele>
        <time>2013-02-19T15:26:46Z</time>
      </trkpt>
      <trkpt lat="45.87806" lon="6.44648">
        <ele>1356</ele>
        <time>2013-02-19T15:26:47Z</time>
      </trkpt>
      <trkpt lat="45.87811" lon="6.44642">
        <ele>1355.5</ele>
        <time>2013-02-19T15:26:48Z</time>
      </trkpt>
      <trkpt lat="45.87816" lon="6.44634">
        <ele>1355.4</ele>
        <time>2013-02-19T15:26:50Z</time>
      </trkpt>
      <trkpt lat="45.87821" lon="6.44626">
        <ele>1354.8</ele>
        <time>2013-02-19T15:26:53Z</time>
      </trkpt>
      <trkpt lat="45.87824" lon="6.44619">
        <ele>1353.8</ele>
        <time>2013-02-19T15:26:55Z</time>
      </trkpt>
      <trkpt lat="45.87826" lon="6.44613">
        <ele>1352.5</ele>
        <time>2013-02-19T15:26:56Z</time>
      </trkpt>
      <trkpt lat="45.8783" lon="6.44606">
        <ele>1351.1</ele>
        <time>2013-02-19T15:26:57Z</time>
      </trkpt>
      <trkpt lat="45.87833" lon="6.44598">
        <ele>1350.3</ele>
        <time>2013-02-19T15:26:58Z</time>
      </trkpt>
      <trkpt lat="45.87836" lon="6.4459">
        <ele>1349.8</ele>
        <time>2013-02-19T15:26:59Z</time>
      </trkpt>
      <trkpt lat="45.87839" lon="6.44583">
        <ele>1349.5</ele>
        <time>2013-02-19T15:27:00Z</time>
      </trkpt>
      <trkpt lat="45.87842" lon="6.44576">
        <ele>1349.4</ele>
        <time>2013-02-19T15:27:01Z</time>
      </trkpt>
      <trkpt lat="45.87844" lon="6.44569">
        <ele>1349.1</ele>
        <time>2013-02-19T15:27:02Z</time>
      </trkpt>
      <trkpt lat="45.87846" lon="6.44563">
        <ele>1349</ele>
        <time>2013-02-19T15:27:03Z</time>
      </trkpt>
      <trkpt lat="45.87849" lon="6.44557">
        <ele>1348.6</ele>
        <time>2013-02-19T15:27:04Z</time>
      </trkpt>
      <trkpt lat="45.87851" lon="6.44551">
        <ele>1348.1</ele>
        <time>2013-02-19T15:27:05Z</time>
      </trkpt>
      <trkpt lat="45.87854" lon="6.44544">
        <ele>1347.8</ele>
        <time>2013-02-19T15:27:06Z</time>
      </trkpt>
      <trkpt lat="45.87856" lon="6.44537">
        <ele>1347.4</ele>
        <time>2013-02-19T15:27:07Z</time>
      </trkpt>
      <trkpt lat="45.87859" lon="6.44531">
        <ele>1347</ele>
        <time>2013-02-19T15:27:08Z</time>
      </trkpt>
      <trkpt lat="45.87862" lon="6.44524">
        <ele>1346.5</ele>
        <time>2013-02-19T15:27:09Z</time>
      </trkpt>
      <trkpt lat="45.87864" lon="6.44517">
        <ele>1346.1</ele>
        <time>2013-02-19T15:27:10Z</time>
      </trkpt>
      <trkpt lat="45.87867" lon="6.4451">
        <ele>1345.6</ele>
        <time>2013-02-19T15:27:11Z</time>
      </trkpt>
      <trkpt lat="45.8787" lon="6.44504">
        <ele>1345.3</ele>
        <time>2013-02-19T15:27:12Z</time>
      </trkpt>
      <trkpt lat="45.87872" lon="6.44499">
        <ele>1345</ele>
        <time>2013-02-19T15:27:13Z</time>
      </trkpt>
      <trkpt lat="45.87875" lon="6.44493">
        <ele>1344.6</ele>
        <time>2013-02-19T15:27:14Z</time>
      </trkpt>
      <trkpt lat="45.87877" lon="6.44487">
        <ele>1344.4</ele>
        <time>2013-02-19T15:27:15Z</time>
      </trkpt>
      <trkpt lat="45.8788" lon="6.44481">
        <ele>1343.9</ele>
        <time>2013-02-19T15:27:16Z</time>
      </trkpt>
      <trkpt lat="45.87883" lon="6.44475">
        <ele>1343.4</ele>
        <time>2013-02-19T15:27:17Z</time>
      </trkpt>
      <trkpt lat="45.87887" lon="6.44468">
        <ele>1342.8</ele>
        <time>2013-02-19T15:27:18Z</time>
      </trkpt>
      <trkpt lat="45.8789" lon="6.44462">
        <ele>1342.3</ele>
        <time>2013-02-19T15:27:19Z</time>
      </trkpt>
      <trkpt lat="45.87893" lon="6.44456">
        <ele>1341.8</ele>
        <time>2013-02-19T15:27:20Z</time>
      </trkpt>
      <trkpt lat="45.87896" lon="6.44449">
        <ele>1341.3</ele>
        <time>2013-02-19T15:27:21Z</time>
      </trkpt>
      <trkpt lat="45.87899" lon="6.44443">
        <ele>1340.5</ele>
        <time>2013-02-19T15:27:22Z</time>
      </trkpt>
      <trkpt lat="45.87903" lon="6.44435">
        <ele>1339.8</ele>
        <time>2013-02-19T15:27:23Z</time>
      </trkpt>
      <trkpt lat="45.87907" lon="6.44427">
        <ele>1338.9</ele>
        <time>2013-02-19T15:27:24Z</time>
      </trkpt>
      <trkpt lat="45.87911" lon="6.44419">
        <ele>1337.9</ele>
        <time>2013-02-19T15:27:25Z</time>
      </trkpt>
      <trkpt lat="45.87916" lon="6.44411">
        <ele>1336.9</ele>
        <time>2013-02-19T15:27:26Z</time>
      </trkpt>
      <trkpt lat="45.8792" lon="6.44403">
        <ele>1336</ele>
        <time>2013-02-19T15:27:27Z</time>
      </trkpt>
      <trkpt lat="45.87924" lon="6.44395">
        <ele>1334.9</ele>
        <time>2013-02-19T15:27:28Z</time>
      </trkpt>
      <trkpt lat="45.87928" lon="6.44387">
        <ele>1333.8</ele>
        <time>2013-02-19T15:27:29Z</time>
      </trkpt>
      <trkpt lat="45.87932" lon="6.44379">
        <ele>1333.1</ele>
        <time>2013-02-19T15:27:30Z</time>
      </trkpt>
      <trkpt lat="45.87936" lon="6.44373">
        <ele>1332.5</ele>
        <time>2013-02-19T15:27:31Z</time>
      </trkpt>
      <trkpt lat="45.8794" lon="6.44367">
        <ele>1331.9</ele>
        <time>2013-02-19T15:27:32Z</time>
      </trkpt>
      <trkpt lat="45.87945" lon="6.44361">
        <ele>1331</ele>
        <time>2013-02-19T15:27:33Z</time>
      </trkpt>
      <trkpt lat="45.8795" lon="6.44355">
        <ele>1330</ele>
        <time>2013-02-19T15:27:34Z</time>
      </trkpt>
      <trkpt lat="45.87956" lon="6.44347">
        <ele>1329</ele>
        <time>2013-02-19T15:27:35Z</time>
      </trkpt>
      <trkpt lat="45.87961" lon="6.44339">
        <ele>1327.6</ele>
        <time>2013-02-19T15:27:36Z</time>
      </trkpt>
      <trkpt lat="45.87967" lon="6.44331">
        <ele>1326.3</ele>
        <time>2013-02-19T15:27:37Z</time>
      </trkpt>
      <trkpt lat="45.87973" lon="6.44322">
        <ele>1324.8</ele>
        <time>2013-02-19T15:27:38Z</time>
      </trkpt>
      <trkpt lat="45.8798" lon="6.44313">
        <ele>1323.3</ele>
        <time>2013-02-19T15:27:39Z</time>
      </trkpt>
      <trkpt lat="45.87987" lon="6.44303">
        <ele>1321.9</ele>
        <time>2013-02-19T15:27:40Z</time>
      </trkpt>
      <trkpt lat="45.87993" lon="6.44293">
        <ele>1320.6</ele>
        <time>2013-02-19T15:27:41Z</time>
      </trkpt>
      <trkpt lat="45.87998" lon="6.44283">
        <ele>1319.6</ele>
        <time>2013-02-19T15:27:42Z</time>
      </trkpt>
      <trkpt lat="45.88003" lon="6.44272">
        <ele>1319</ele>
        <time>2013-02-19T15:27:43Z</time>
      </trkpt>
      <trkpt lat="45.88006" lon="6.44262">
        <ele>1318.6</ele>
        <time>2013-02-19T15:27:44Z</time>
      </trkpt>
      <trkpt lat="45.88009" lon="6.44252">
        <ele>1318.5</ele>
        <time>2013-02-19T15:27:45Z</time>
      </trkpt>
      <trkpt lat="45.88012" lon="6.44244">
        <ele>1318.5</ele>
        <time>2013-02-19T15:27:46Z</time>
      </trkpt>
      <trkpt lat="45.88015" lon="6.44236">
        <ele>1318.4</ele>
        <time>2013-02-19T15:27:47Z</time>
      </trkpt>
      <trkpt lat="45.88017" lon="6.44229">
        <ele>1318.3</ele>
        <time>2013-02-19T15:27:48Z</time>
      </trkpt>
      <trkpt lat="45.8802" lon="6.44221">
        <ele>1318</ele>
        <time>2013-02-19T15:27:49Z</time>
      </trkpt>
      <trkpt lat="45.88022" lon="6.44214">
        <ele>1317.5</ele>
        <time>2013-02-19T15:27:50Z</time>
      </trkpt>
      <trkpt lat="45.88024" lon="6.44205">
        <ele>1316.9</ele>
        <time>2013-02-19T15:27:51Z</time>
      </trkpt>
      <trkpt lat="45.88026" lon="6.44196">
        <ele>1316</ele>
        <time>2013-02-19T15:27:52Z</time>
      </trkpt>
      <trkpt lat="45.88027" lon="6.44186">
        <ele>1315.1</ele>
        <time>2013-02-19T15:27:53Z</time>
      </trkpt>
      <trkpt lat="45.88028" lon="6.44177">
        <ele>1314.5</ele>
        <time>2013-02-19T15:27:54Z</time>
      </trkpt>
      <trkpt lat="45.88029" lon="6.44168">
        <ele>1314.1</ele>
        <time>2013-02-19T15:27:55Z</time>
      </trkpt>
      <trkpt lat="45.8803" lon="6.44159">
        <ele>1314</ele>
        <time>2013-02-19T15:27:56Z</time>
      </trkpt>
      <trkpt lat="45.88031" lon="6.44152">
        <ele>1313.8</ele>
        <time>2013-02-19T15:27:57Z</time>
      </trkpt>
      <trkpt lat="45.88032" lon="6.44144">
        <ele>1313.4</ele>
        <time>2013-02-19T15:27:58Z</time>
      </trkpt>
      <trkpt lat="45.88032" lon="6.44136">
        <ele>1312.8</ele>
        <time>2013-02-19T15:27:59Z</time>
      </trkpt>
      <trkpt lat="45.88032" lon="6.44128">
        <ele>1312.3</ele>
        <time>2013-02-19T15:28:00Z</time>
      </trkpt>
      <trkpt lat="45.88033" lon="6.4412">
        <ele>1311.8</ele>
        <time>2013-02-19T15:28:01Z</time>
      </trkpt>
      <trkpt lat="45.88033" lon="6.44112">
        <ele>1311</ele>
        <time>2013-02-19T15:28:02Z</time>
      </trkpt>
      <trkpt lat="45.88032" lon="6.44103">
        <ele>1310.4</ele>
        <time>2013-02-19T15:28:03Z</time>
      </trkpt>
      <trkpt lat="45.88032" lon="6.44095">
        <ele>1309.8</ele>
        <time>2013-02-19T15:28:04Z</time>
      </trkpt>
      <trkpt lat="45.88032" lon="6.44087">
        <ele>1309.4</ele>
        <time>2013-02-19T15:28:05Z</time>
      </trkpt>
      <trkpt lat="45.88032" lon="6.44079">
        <ele>1309</ele>
        <time>2013-02-19T15:28:06Z</time>
      </trkpt>
      <trkpt lat="45.88032" lon="6.44072">
        <ele>1308.8</ele>
        <time>2013-02-19T15:28:07Z</time>
      </trkpt>
      <trkpt lat="45.88032" lon="6.44065">
        <ele>1308.6</ele>
        <time>2013-02-19T15:28:08Z</time>
      </trkpt>
      <trkpt lat="45.88032" lon="6.44049">
        <ele>1308.5</ele>
        <time>2013-02-19T15:28:11Z</time>
      </trkpt>
      <trkpt lat="45.88033" lon="6.44041">
        <ele>1308.4</ele>
        <time>2013-02-19T15:28:13Z</time>
      </trkpt>
      <trkpt lat="45.88034" lon="6.44029">
        <ele>1308.3</ele>
        <time>2013-02-19T15:28:16Z</time>
      </trkpt>
      <trkpt lat="45.88036" lon="6.44018">
        <ele>1308.5</ele>
        <time>2013-02-19T15:28:19Z</time>
      </trkpt>
      <trkpt lat="45.88038" lon="6.44007">
        <ele>1308.3</ele>
        <time>2013-02-19T15:28:22Z</time>
      </trkpt>
      <trkpt lat="45.88039" lon="6.43997">
        <ele>1307.9</ele>
        <time>2013-02-19T15:28:24Z</time>
      </trkpt>
      <trkpt lat="45.88041" lon="6.43987">
        <ele>1307.5</ele>
        <time>2013-02-19T15:28:26Z</time>
      </trkpt>
      <trkpt lat="45.88043" lon="6.43975">
        <ele>1306.5</ele>
        <time>2013-02-19T15:28:28Z</time>
      </trkpt>
      <trkpt lat="45.88045" lon="6.43969">
        <ele>1306</ele>
        <time>2013-02-19T15:28:29Z</time>
      </trkpt>
      <trkpt lat="45.88046" lon="6.43962">
        <ele>1305.5</ele>
        <time>2013-02-19T15:28:30Z</time>
      </trkpt>
      <trkpt lat="45.88048" lon="6.43955">
        <ele>1305.1</ele>
        <time>2013-02-19T15:28:31Z</time>
      </trkpt>
      <trkpt lat="45.88049" lon="6.43949">
        <ele>1305</ele>
        <time>2013-02-19T15:28:32Z</time>
      </trkpt>
      <trkpt lat="45.88052" lon="6.43937">
        <ele>1304.6</ele>
        <time>2013-02-19T15:28:34Z</time>
      </trkpt>
      <trkpt lat="45.88054" lon="6.43926">
        <ele>1304.4</ele>
        <time>2013-02-19T15:28:36Z</time>
      </trkpt>
      <trkpt lat="45.88056" lon="6.43916">
        <ele>1304</ele>
        <time>2013-02-19T15:28:38Z</time>
      </trkpt>
      <trkpt lat="45.88058" lon="6.43906">
        <ele>1303.6</ele>
        <time>2013-02-19T15:28:40Z</time>
      </trkpt>
      <trkpt lat="45.88059" lon="6.43896">
        <ele>1303.4</ele>
        <time>2013-02-19T15:28:42Z</time>
      </trkpt>
      <trkpt lat="45.88061" lon="6.43886">
        <ele>1302.9</ele>
        <time>2013-02-19T15:28:44Z</time>
      </trkpt>
      <trkpt lat="45.88064" lon="6.43875">
        <ele>1302</ele>
        <time>2013-02-19T15:28:46Z</time>
      </trkpt>
      <trkpt lat="45.88065" lon="6.43868">
        <ele>1301.5</ele>
        <time>2013-02-19T15:28:47Z</time>
      </trkpt>
      <trkpt lat="45.88067" lon="6.43861">
        <ele>1301</ele>
        <time>2013-02-19T15:28:48Z</time>
      </trkpt>
      <trkpt lat="45.88069" lon="6.43854">
        <ele>1300.5</ele>
        <time>2013-02-19T15:28:49Z</time>
      </trkpt>
      <trkpt lat="45.8807" lon="6.43847">
        <ele>1300</ele>
        <time>2013-02-19T15:28:50Z</time>
      </trkpt>
      <trkpt lat="45.88072" lon="6.4384">
        <ele>1299.5</ele>
        <time>2013-02-19T15:28:51Z</time>
      </trkpt>
      <trkpt lat="45.88073" lon="6.43833">
        <ele>1299</ele>
        <time>2013-02-19T15:28:52Z</time>
      </trkpt>
      <trkpt lat="45.88075" lon="6.43825">
        <ele>1298.5</ele>
        <time>2013-02-19T15:28:53Z</time>
      </trkpt>
      <trkpt lat="45.88076" lon="6.43817">
        <ele>1297.9</ele>
        <time>2013-02-19T15:28:54Z</time>
      </trkpt>
      <trkpt lat="45.88078" lon="6.43809">
        <ele>1297.1</ele>
        <time>2013-02-19T15:28:55Z</time>
      </trkpt>
      <trkpt lat="45.88079" lon="6.43801">
        <ele>1296.6</ele>
        <time>2013-02-19T15:28:56Z</time>
      </trkpt>
      <trkpt lat="45.8808" lon="6.43793">
        <ele>1296.4</ele>
        <time>2013-02-19T15:28:57Z</time>
      </trkpt>
      <trkpt lat="45.88081" lon="6.43786">
        <ele>1296.3</ele>
        <time>2013-02-19T15:28:58Z</time>
      </trkpt>
      <trkpt lat="45.88083" lon="6.43774">
        <ele>1296.1</ele>
        <time>2013-02-19T15:29:00Z</time>
      </trkpt>
      <trkpt lat="45.88085" lon="6.43763">
        <ele>1296</ele>
        <time>2013-02-19T15:29:02Z</time>
      </trkpt>
      <trkpt lat="45.88087" lon="6.43753">
        <ele>1295.9</ele>
        <time>2013-02-19T15:29:04Z</time>
      </trkpt>
      <trkpt lat="45.88089" lon="6.43743">
        <ele>1295.5</ele>
        <time>2013-02-19T15:29:06Z</time>
      </trkpt>
      <trkpt lat="45.88091" lon="6.43732">
        <ele>1295.4</ele>
        <time>2013-02-19T15:29:08Z</time>
      </trkpt>
      <trkpt lat="45.88092" lon="6.43727">
        <ele>1295</ele>
        <time>2013-02-19T15:29:09Z</time>
      </trkpt>
      <trkpt lat="45.88095" lon="6.43714">
        <ele>1294.1</ele>
        <time>2013-02-19T15:29:11Z</time>
      </trkpt>
      <trkpt lat="45.88097" lon="6.43706">
        <ele>1293.9</ele>
        <time>2013-02-19T15:29:12Z</time>
      </trkpt>
      <trkpt lat="45.88098" lon="6.43699">
        <ele>1293.5</ele>
        <time>2013-02-19T15:29:13Z</time>
      </trkpt>
      <trkpt lat="45.881" lon="6.43692">
        <ele>1293.1</ele>
        <time>2013-02-19T15:29:14Z</time>
      </trkpt>
      <trkpt lat="45.88102" lon="6.43685">
        <ele>1292.9</ele>
        <time>2013-02-19T15:29:15Z</time>
      </trkpt>
      <trkpt lat="45.88105" lon="6.43679">
        <ele>1292.5</ele>
        <time>2013-02-19T15:29:16Z</time>
      </trkpt>
      <trkpt lat="45.88107" lon="6.43672">
        <ele>1292</ele>
        <time>2013-02-19T15:29:17Z</time>
      </trkpt>
      <trkpt lat="45.88109" lon="6.43665">
        <ele>1291.5</ele>
        <time>2013-02-19T15:29:18Z</time>
      </trkpt>
      <trkpt lat="45.88111" lon="6.43658">
        <ele>1291.1</ele>
        <time>2013-02-19T15:29:19Z</time>
      </trkpt>
      <trkpt lat="45.88113" lon="6.43651">
        <ele>1290.6</ele>
        <time>2013-02-19T15:29:20Z</time>
      </trkpt>
      <trkpt lat="45.88115" lon="6.43643">
        <ele>1290</ele>
        <time>2013-02-19T15:29:21Z</time>
      </trkpt>
      <trkpt lat="45.88118" lon="6.43635">
        <ele>1289.5</ele>
        <time>2013-02-19T15:29:22Z</time>
      </trkpt>
      <trkpt lat="45.8812" lon="6.43627">
        <ele>1289.1</ele>
        <time>2013-02-19T15:29:23Z</time>
      </trkpt>
      <trkpt lat="45.88123" lon="6.4362">
        <ele>1288.8</ele>
        <time>2013-02-19T15:29:24Z</time>
      </trkpt>
      <trkpt lat="45.88126" lon="6.43612">
        <ele>1288.1</ele>
        <time>2013-02-19T15:29:25Z</time>
      </trkpt>
      <trkpt lat="45.8813" lon="6.43606">
        <ele>1287.3</ele>
        <time>2013-02-19T15:29:26Z</time>
      </trkpt>
      <trkpt lat="45.88135" lon="6.43603">
        <ele>1285.8</ele>
        <time>2013-02-19T15:29:27Z</time>
      </trkpt>
      <trkpt lat="45.8814" lon="6.43597">
        <ele>1284.5</ele>
        <time>2013-02-19T15:29:28Z</time>
      </trkpt>
      <trkpt lat="45.88144" lon="6.43589">
        <ele>1283.5</ele>
        <time>2013-02-19T15:29:29Z</time>
      </trkpt>
      <trkpt lat="45.88147" lon="6.43582">
        <ele>1282.1</ele>
        <time>2013-02-19T15:29:30Z</time>
      </trkpt>
      <trkpt lat="45.88153" lon="6.43578">
        <ele>1280.6</ele>
        <time>2013-02-19T15:29:31Z</time>
      </trkpt>
      <trkpt lat="45.88159" lon="6.43573">
        <ele>1279</ele>
        <time>2013-02-19T15:29:32Z</time>
      </trkpt>
      <trkpt lat="45.88164" lon="6.43566">
        <ele>1277.9</ele>
        <time>2013-02-19T15:29:33Z</time>
      </trkpt>
      <trkpt lat="45.88167" lon="6.43559">
        <ele>1276.6</ele>
        <time>2013-02-19T15:29:34Z</time>
      </trkpt>
      <trkpt lat="45.88173" lon="6.43555">
        <ele>1275</ele>
        <time>2013-02-19T15:29:35Z</time>
      </trkpt>
      <trkpt lat="45.8818" lon="6.43551">
        <ele>1273</ele>
        <time>2013-02-19T15:29:36Z</time>
      </trkpt>
      <trkpt lat="45.88184" lon="6.43544">
        <ele>1271</ele>
        <time>2013-02-19T15:29:37Z</time>
      </trkpt>
      <trkpt lat="45.88188" lon="6.43536">
        <ele>1269.6</ele>
        <time>2013-02-19T15:29:38Z</time>
      </trkpt>
      <trkpt lat="45.8819" lon="6.43529">
        <ele>1268.6</ele>
        <time>2013-02-19T15:29:39Z</time>
      </trkpt>
      <trkpt lat="45.88193" lon="6.4352">
        <ele>1267.5</ele>
        <time>2013-02-19T15:29:40Z</time>
      </trkpt>
      <trkpt lat="45.88195" lon="6.43512">
        <ele>1266.5</ele>
        <time>2013-02-19T15:29:41Z</time>
      </trkpt>
      <trkpt lat="45.882" lon="6.43509">
        <ele>1265.5</ele>
        <time>2013-02-19T15:29:42Z</time>
      </trkpt>
      <trkpt lat="45.88205" lon="6.43507">
        <ele>1264</ele>
        <time>2013-02-19T15:29:43Z</time>
      </trkpt>
      <trkpt lat="45.88209" lon="6.43501">
        <ele>1262.5</ele>
        <time>2013-02-19T15:29:44Z</time>
      </trkpt>
      <trkpt lat="45.88213" lon="6.43496">
        <ele>1260.6</ele>
        <time>2013-02-19T15:29:45Z</time>
      </trkpt>
      <trkpt lat="45.88217" lon="6.43496">
        <ele>1259.5</ele>
        <time>2013-02-19T15:29:46Z</time>
      </trkpt>
      <trkpt lat="45.88225" lon="6.4349">
        <ele>1256.5</ele>
        <time>2013-02-19T15:29:48Z</time>
      </trkpt>
      <trkpt lat="45.88233" lon="6.43485">
        <ele>1253.1</ele>
        <time>2013-02-19T15:29:56Z</time>
      </trkpt>
      <trkpt lat="45.88242" lon="6.43487">
        <ele>1250.4</ele>
        <time>2013-02-19T15:30:17Z</time>
      </trkpt>
      <trkpt lat="45.88243" lon="6.43487">
        <ele>1250.3</ele>
        <time>2013-02-19T15:30:18Z</time>
      </trkpt>
      <trkpt lat="45.8825" lon="6.43473">
        <ele>1246.9</ele>
        <time>2013-02-19T15:30:24Z</time>
      </trkpt>
      <trkpt lat="45.88252" lon="6.43467">
        <ele>1245.6</ele>
        <time>2013-02-19T15:30:25Z</time>
      </trkpt>
      <trkpt lat="45.88254" lon="6.4346">
        <ele>1244.5</ele>
        <time>2013-02-19T15:30:26Z</time>
      </trkpt>
      <trkpt lat="45.88258" lon="6.43457">
        <ele>1243.8</ele>
        <time>2013-02-19T15:30:27Z</time>
      </trkpt>
      <trkpt lat="45.88263" lon="6.43454">
        <ele>1243.1</ele>
        <time>2013-02-19T15:30:28Z</time>
      </trkpt>
      <trkpt lat="45.88267" lon="6.43449">
        <ele>1242.8</ele>
        <time>2013-02-19T15:30:29Z</time>
      </trkpt>
      <trkpt lat="45.8827" lon="6.43442">
        <ele>1242.5</ele>
        <time>2013-02-19T15:30:30Z</time>
      </trkpt>
      <trkpt lat="45.88273" lon="6.43437">
        <ele>1241.5</ele>
        <time>2013-02-19T15:30:31Z</time>
      </trkpt>
      <trkpt lat="45.88278" lon="6.43435">
        <ele>1240.5</ele>
        <time>2013-02-19T15:30:32Z</time>
      </trkpt>
      <trkpt lat="45.88283" lon="6.43431">
        <ele>1239.5</ele>
        <time>2013-02-19T15:30:33Z</time>
      </trkpt>
      <trkpt lat="45.88287" lon="6.43424">
        <ele>1238.4</ele>
        <time>2013-02-19T15:30:34Z</time>
      </trkpt>
      <trkpt lat="45.8829" lon="6.43417">
        <ele>1237.3</ele>
        <time>2013-02-19T15:30:35Z</time>
      </trkpt>
      <trkpt lat="45.88295" lon="6.43412">
        <ele>1236</ele>
        <time>2013-02-19T15:30:36Z</time>
      </trkpt>
      <trkpt lat="45.88302" lon="6.43408">
        <ele>1234.4</ele>
        <time>2013-02-19T15:30:37Z</time>
      </trkpt>
      <trkpt lat="45.88309" lon="6.43404">
        <ele>1232.8</ele>
        <time>2013-02-19T15:30:38Z</time>
      </trkpt>
      <trkpt lat="45.88317" lon="6.43399">
        <ele>1231.4</ele>
        <time>2013-02-19T15:30:39Z</time>
      </trkpt>
      <trkpt lat="45.88325" lon="6.43395">
        <ele>1230.3</ele>
        <time>2013-02-19T15:30:40Z</time>
      </trkpt>
      <trkpt lat="45.88332" lon="6.43393">
        <ele>1229.3</ele>
        <time>2013-02-19T15:30:41Z</time>
      </trkpt>
      <trkpt lat="45.8834" lon="6.43397">
        <ele>1227.9</ele>
        <time>2013-02-19T15:30:44Z</time>
      </trkpt>
      <trkpt lat="45.88349" lon="6.43401">
        <ele>1226</ele>
        <time>2013-02-19T15:30:53Z</time>
      </trkpt>
      <trkpt lat="45.8835" lon="6.43413">
        <ele>1227.5</ele>
        <time>2013-02-19T15:31:37Z</time>
      </trkpt>
      <trkpt lat="45.88351" lon="6.43414">
        <ele>1227.4</ele>
        <time>2013-02-19T15:31:38Z</time>
      </trkpt>
      <trkpt lat="45.88361" lon="6.43415">
        <ele>1216</ele>
        <time>2013-02-19T15:33:28Z</time>
      </trkpt>
      <trkpt lat="45.88361" lon="6.43413">
        <ele>1216</ele>
        <time>2013-02-19T15:33:29Z</time>
      </trkpt>
      <trkpt lat="45.88363" lon="6.4339">
        <ele>1222</ele>
        <time>2013-02-19T15:34:41Z</time>
      </trkpt>
      <trkpt lat="45.88364" lon="6.43388">
        <ele>1222</ele>
        <time>2013-02-19T15:34:42Z</time>
      </trkpt>
      <trkpt lat="45.88363" lon="6.43366">
        <ele>1222.4</ele>
        <time>2013-02-19T15:34:58Z</time>
      </trkpt>
      <trkpt lat="45.88372" lon="6.43364">
        <ele>1217.5</ele>
        <time>2013-02-19T15:35:18Z</time>
      </trkpt>
      <trkpt lat="45.8838" lon="6.4337">
        <ele>1197.8</ele>
        <time>2013-02-19T15:35:39Z</time>
      </trkpt>
      <trkpt lat="45.88384" lon="6.43361">
        <ele>1199.4</ele>
        <time>2013-02-19T15:35:44Z</time>
      </trkpt>
      <trkpt lat="45.88384" lon="6.43358">
        <ele>1199.9</ele>
        <time>2013-02-19T15:35:45Z</time>
      </trkpt>
      <trkpt lat="45.88388" lon="6.43339">
        <ele>1203</ele>
        <time>2013-02-19T15:35:54Z</time>
      </trkpt>
      <trkpt lat="45.88389" lon="6.43327">
        <ele>1204.5</ele>
        <time>2013-02-19T15:35:59Z</time>
      </trkpt>
      <trkpt lat="45.8839" lon="6.43315">
        <ele>1206.1</ele>
        <time>2013-02-19T15:36:04Z</time>
      </trkpt>
      <trkpt lat="45.88391" lon="6.43304">
        <ele>1208</ele>
        <time>2013-02-19T15:36:09Z</time>
      </trkpt>
      <trkpt lat="45.88394" lon="6.43292">
        <ele>1209.8</ele>
        <time>2013-02-19T15:36:15Z</time>
      </trkpt>
      <trkpt lat="45.88395" lon="6.43281">
        <ele>1211.3</ele>
        <time>2013-02-19T15:36:20Z</time>
      </trkpt>
      <trkpt lat="45.88396" lon="6.43271">
        <ele>1212.6</ele>
        <time>2013-02-19T15:36:25Z</time>
      </trkpt>
      <trkpt lat="45.88398" lon="6.43258">
        <ele>1214</ele>
        <time>2013-02-19T15:36:31Z</time>
      </trkpt>
      <trkpt lat="45.88401" lon="6.43247">
        <ele>1215</ele>
        <time>2013-02-19T15:36:37Z</time>
      </trkpt>
      <trkpt lat="45.88404" lon="6.43235">
        <ele>1216.3</ele>
        <time>2013-02-19T15:36:43Z</time>
      </trkpt>
      <trkpt lat="45.88408" lon="6.43225">
        <ele>1217.5</ele>
        <time>2013-02-19T15:36:49Z</time>
      </trkpt>
      <trkpt lat="45.88409" lon="6.43224">
        <ele>1217.9</ele>
        <time>2013-02-19T15:36:50Z</time>
      </trkpt>
      <trkpt lat="45.88419" lon="6.43206">
        <ele>1220.4</ele>
        <time>2013-02-19T15:37:11Z</time>
      </trkpt>
      <trkpt lat="45.88424" lon="6.43197">
        <ele>1220.3</ele>
        <time>2013-02-19T15:37:17Z</time>
      </trkpt>
      <trkpt lat="45.88431" lon="6.43189">
        <ele>1219.5</ele>
        <time>2013-02-19T15:37:24Z</time>
      </trkpt>
      <trkpt lat="45.88436" lon="6.4318">
        <ele>1219.9</ele>
        <time>2013-02-19T15:37:30Z</time>
      </trkpt>
      <trkpt lat="45.88442" lon="6.43172">
        <ele>1220.3</ele>
        <time>2013-02-19T15:37:36Z</time>
      </trkpt>
      <trkpt lat="45.88449" lon="6.43165">
        <ele>1220.5</ele>
        <time>2013-02-19T15:37:41Z</time>
      </trkpt>
      <trkpt lat="45.88455" lon="6.43158">
        <ele>1220</ele>
        <time>2013-02-19T15:37:46Z</time>
      </trkpt>
      <trkpt lat="45.88461" lon="6.4315">
        <ele>1219</ele>
        <time>2013-02-19T15:37:51Z</time>
      </trkpt>
      <trkpt lat="45.88463" lon="6.43149">
        <ele>1218.8</ele>
        <time>2013-02-19T15:37:52Z</time>
      </trkpt>
      <trkpt lat="45.88474" lon="6.43137">
        <ele>1219.5</ele>
        <time>2013-02-19T15:38:01Z</time>
      </trkpt>
      <trkpt lat="45.8848" lon="6.4313">
        <ele>1220.1</ele>
        <time>2013-02-19T15:38:06Z</time>
      </trkpt>
      <trkpt lat="45.88487" lon="6.43123">
        <ele>1220.3</ele>
        <time>2013-02-19T15:38:11Z</time>
      </trkpt>
      <trkpt lat="45.88493" lon="6.43116">
        <ele>1220.5</ele>
        <time>2013-02-19T15:38:16Z</time>
      </trkpt>
      <trkpt lat="45.88499" lon="6.43109">
        <ele>1220.5</ele>
        <time>2013-02-19T15:38:21Z</time>
      </trkpt>
      <trkpt lat="45.88506" lon="6.43103">
        <ele>1220.1</ele>
        <time>2013-02-19T15:38:26Z</time>
      </trkpt>
      <trkpt lat="45.88513" lon="6.43096">
        <ele>1219.5</ele>
        <time>2013-02-19T15:38:31Z</time>
      </trkpt>
      <trkpt lat="45.8852" lon="6.43089">
        <ele>1218.5</ele>
        <time>2013-02-19T15:38:36Z</time>
      </trkpt>
      <trkpt lat="45.88526" lon="6.43082">
        <ele>1217.5</ele>
        <time>2013-02-19T15:38:41Z</time>
      </trkpt>
      <trkpt lat="45.88532" lon="6.43076">
        <ele>1216.6</ele>
        <time>2013-02-19T15:38:46Z</time>
      </trkpt>
      <trkpt lat="45.88538" lon="6.43069">
        <ele>1215.6</ele>
        <time>2013-02-19T15:38:51Z</time>
      </trkpt>
      <trkpt lat="45.88545" lon="6.43061">
        <ele>1214.5</ele>
        <time>2013-02-19T15:38:57Z</time>
      </trkpt>
      <trkpt lat="45.88546" lon="6.43059">
        <ele>1214.3</ele>
        <time>2013-02-19T15:38:58Z</time>
      </trkpt>
      <trkpt lat="45.88556" lon="6.43046">
        <ele>1212.6</ele>
        <time>2013-02-19T15:39:07Z</time>
      </trkpt>
      <trkpt lat="45.88562" lon="6.43039">
        <ele>1211.8</ele>
        <time>2013-02-19T15:39:12Z</time>
      </trkpt>
      <trkpt lat="45.88568" lon="6.43031">
        <ele>1211</ele>
        <time>2013-02-19T15:39:17Z</time>
      </trkpt>
      <trkpt lat="45.88573" lon="6.43023">
        <ele>1210.5</ele>
        <time>2013-02-19T15:39:22Z</time>
      </trkpt>
      <trkpt lat="45.88579" lon="6.43015">
        <ele>1210</ele>
        <time>2013-02-19T15:39:27Z</time>
      </trkpt>
      <trkpt lat="45.88584" lon="6.43008">
        <ele>1209.5</ele>
        <time>2013-02-19T15:39:32Z</time>
      </trkpt>
      <trkpt lat="45.8859" lon="6.43001">
        <ele>1209</ele>
        <time>2013-02-19T15:39:37Z</time>
      </trkpt>
      <trkpt lat="45.88597" lon="6.42994">
        <ele>1208.4</ele>
        <time>2013-02-19T15:39:42Z</time>
      </trkpt>
      <trkpt lat="45.88603" lon="6.42988">
        <ele>1207.8</ele>
        <time>2013-02-19T15:39:47Z</time>
      </trkpt>
      <trkpt lat="45.88609" lon="6.42981">
        <ele>1207</ele>
        <time>2013-02-19T15:39:52Z</time>
      </trkpt>
      <trkpt lat="45.88617" lon="6.4298">
        <ele>1206.1</ele>
        <time>2013-02-19T15:40:02Z</time>
      </trkpt>
      <trkpt lat="45.88618" lon="6.42981">
        <ele>1206</ele>
        <time>2013-02-19T15:40:03Z</time>
      </trkpt>
      <trkpt lat="45.88629" lon="6.42963">
        <ele>1204</ele>
        <time>2013-02-19T15:41:03Z</time>
      </trkpt>
      <trkpt lat="45.8863" lon="6.42962">
        <ele>1204</ele>
        <time>2013-02-19T15:41:04Z</time>
      </trkpt>
      <trkpt lat="45.88641" lon="6.42947">
        <ele>1202.6</ele>
        <time>2013-02-19T15:41:14Z</time>
      </trkpt>
      <trkpt lat="45.88647" lon="6.4294">
        <ele>1202.5</ele>
        <time>2013-02-19T15:41:19Z</time>
      </trkpt>
      <trkpt lat="45.88652" lon="6.42933">
        <ele>1201.9</ele>
        <time>2013-02-19T15:41:24Z</time>
      </trkpt>
      <trkpt lat="45.88659" lon="6.42927">
        <ele>1201.4</ele>
        <time>2013-02-19T15:41:29Z</time>
      </trkpt>
      <trkpt lat="45.88665" lon="6.42919">
        <ele>1200.9</ele>
        <time>2013-02-19T15:41:34Z</time>
      </trkpt>
      <trkpt lat="45.88671" lon="6.42913">
        <ele>1200.5</ele>
        <time>2013-02-19T15:41:39Z</time>
      </trkpt>
      <trkpt lat="45.88677" lon="6.42906">
        <ele>1199.8</ele>
        <time>2013-02-19T15:41:44Z</time>
      </trkpt>
      <trkpt lat="45.88683" lon="6.42899">
        <ele>1198.5</ele>
        <time>2013-02-19T15:41:49Z</time>
      </trkpt>
      <trkpt lat="45.88689" lon="6.42891">
        <ele>1198</ele>
        <time>2013-02-19T15:41:54Z</time>
      </trkpt>
      <trkpt lat="45.88694" lon="6.42882">
        <ele>1197.4</ele>
        <time>2013-02-19T15:41:59Z</time>
      </trkpt>
      <trkpt lat="45.88699" lon="6.42874">
        <ele>1196.3</ele>
        <time>2013-02-19T15:42:04Z</time>
      </trkpt>
      <trkpt lat="45.887" lon="6.42872">
        <ele>1196</ele>
        <time>2013-02-19T15:42:05Z</time>
      </trkpt>
      <trkpt lat="45.88708" lon="6.42855">
        <ele>1195</ele>
        <time>2013-02-19T15:42:14Z</time>
      </trkpt>
      <trkpt lat="45.88713" lon="6.42847">
        <ele>1194.3</ele>
        <time>2013-02-19T15:42:19Z</time>
      </trkpt>
      <trkpt lat="45.88718" lon="6.42838">
        <ele>1193.5</ele>
        <time>2013-02-19T15:42:24Z</time>
      </trkpt>
      <trkpt lat="45.88723" lon="6.42829">
        <ele>1192.9</ele>
        <time>2013-02-19T15:42:29Z</time>
      </trkpt>
      <trkpt lat="45.88728" lon="6.4282">
        <ele>1192.5</ele>
        <time>2013-02-19T15:42:35Z</time>
      </trkpt>
      <trkpt lat="45.88733" lon="6.42809">
        <ele>1194</ele>
        <time>2013-02-19T15:42:41Z</time>
      </trkpt>
      <trkpt lat="45.88737" lon="6.428">
        <ele>1196.8</ele>
        <time>2013-02-19T15:42:47Z</time>
      </trkpt>
      <trkpt lat="45.88737" lon="6.42787">
        <ele>1198.3</ele>
        <time>2013-02-19T15:42:56Z</time>
      </trkpt>
      <trkpt lat="45.8873" lon="6.42781">
        <ele>1198.5</ele>
        <time>2013-02-19T15:43:03Z</time>
      </trkpt>
      <trkpt lat="45.88729" lon="6.42769">
        <ele>1202.8</ele>
        <time>2013-02-19T15:44:57Z</time>
      </trkpt>
      <trkpt lat="45.8873" lon="6.42768">
        <ele>1202.3</ele>
        <time>2013-02-19T15:44:58Z</time>
      </trkpt>
      <trkpt lat="45.88744" lon="6.42765">
        <ele>1196.5</ele>
        <time>2013-02-19T15:45:20Z</time>
      </trkpt>
      <trkpt lat="45.88752" lon="6.42759">
        <ele>1195.6</ele>
        <time>2013-02-19T15:45:23Z</time>
      </trkpt>
      <trkpt lat="45.88758" lon="6.42754">
        <ele>1195</ele>
        <time>2013-02-19T15:45:25Z</time>
      </trkpt>
      <trkpt lat="45.88763" lon="6.42747">
        <ele>1194.4</ele>
        <time>2013-02-19T15:45:27Z</time>
      </trkpt>
      <trkpt lat="45.88767" lon="6.4274">
        <ele>1193.8</ele>
        <time>2013-02-19T15:45:29Z</time>
      </trkpt>
      <trkpt lat="45.88771" lon="6.42733">
        <ele>1193.3</ele>
        <time>2013-02-19T15:45:31Z</time>
      </trkpt>
      <trkpt lat="45.88776" lon="6.42723">
        <ele>1192.5</ele>
        <time>2013-02-19T15:45:34Z</time>
      </trkpt>
      <trkpt lat="45.88781" lon="6.42714">
        <ele>1191.5</ele>
        <time>2013-02-19T15:45:36Z</time>
      </trkpt>
      <trkpt lat="45.88785" lon="6.42708">
        <ele>1190.8</ele>
        <time>2013-02-19T15:45:37Z</time>
      </trkpt>
      <trkpt lat="45.88789" lon="6.42703">
        <ele>1190</ele>
        <time>2013-02-19T15:45:38Z</time>
      </trkpt>
      <trkpt lat="45.88793" lon="6.42699">
        <ele>1189.8</ele>
        <time>2013-02-19T15:45:39Z</time>
      </trkpt>
      <trkpt lat="45.888" lon="6.42691">
        <ele>1188.9</ele>
        <time>2013-02-19T15:45:41Z</time>
      </trkpt>
      <trkpt lat="45.88807" lon="6.42687">
        <ele>1188.5</ele>
        <time>2013-02-19T15:45:43Z</time>
      </trkpt>
      <trkpt lat="45.88813" lon="6.42683">
        <ele>1188</ele>
        <time>2013-02-19T15:45:45Z</time>
      </trkpt>
      <trkpt lat="45.88821" lon="6.4268">
        <ele>1187.1</ele>
        <time>2013-02-19T15:45:47Z</time>
      </trkpt>
      <trkpt lat="45.88829" lon="6.42679">
        <ele>1186.1</ele>
        <time>2013-02-19T15:45:49Z</time>
      </trkpt>
      <trkpt lat="45.88837" lon="6.42678">
        <ele>1185.3</ele>
        <time>2013-02-19T15:45:51Z</time>
      </trkpt>
      <trkpt lat="45.88846" lon="6.42676">
        <ele>1184.1</ele>
        <time>2013-02-19T15:45:53Z</time>
      </trkpt>
      <trkpt lat="45.88854" lon="6.42673">
        <ele>1183</ele>
        <time>2013-02-19T15:45:55Z</time>
      </trkpt>
      <trkpt lat="45.88861" lon="6.42677">
        <ele>1181.6</ele>
        <time>2013-02-19T15:45:57Z</time>
      </trkpt>
      <trkpt lat="45.88866" lon="6.4268">
        <ele>1180.8</ele>
        <time>2013-02-19T15:45:58Z</time>
      </trkpt>
      <trkpt lat="45.88871" lon="6.42683">
        <ele>1180.3</ele>
        <time>2013-02-19T15:45:59Z</time>
      </trkpt>
      <trkpt lat="45.88875" lon="6.42685">
        <ele>1180</ele>
        <time>2013-02-19T15:46:00Z</time>
      </trkpt>
      <trkpt lat="45.88883" lon="6.42689">
        <ele>1179.4</ele>
        <time>2013-02-19T15:46:02Z</time>
      </trkpt>
      <trkpt lat="45.88888" lon="6.42689">
        <ele>1179</ele>
        <time>2013-02-19T15:46:03Z</time>
      </trkpt>
      <trkpt lat="45.88893" lon="6.42687">
        <ele>1178.4</ele>
        <time>2013-02-19T15:46:04Z</time>
      </trkpt>
      <trkpt lat="45.88897" lon="6.42685">
        <ele>1177.8</ele>
        <time>2013-02-19T15:46:05Z</time>
      </trkpt>
      <trkpt lat="45.88902" lon="6.42682">
        <ele>1177.3</ele>
        <time>2013-02-19T15:46:06Z</time>
      </trkpt>
      <trkpt lat="45.88906" lon="6.42679">
        <ele>1176.8</ele>
        <time>2013-02-19T15:46:07Z</time>
      </trkpt>
      <trkpt lat="45.88911" lon="6.42675">
        <ele>1176.1</ele>
        <time>2013-02-19T15:46:08Z</time>
      </trkpt>
      <trkpt lat="45.88915" lon="6.42671">
        <ele>1175.6</ele>
        <time>2013-02-19T15:46:09Z</time>
      </trkpt>
      <trkpt lat="45.8892" lon="6.42667">
        <ele>1175.1</ele>
        <time>2013-02-19T15:46:10Z</time>
      </trkpt>
      <trkpt lat="45.88925" lon="6.42663">
        <ele>1174.6</ele>
        <time>2013-02-19T15:46:11Z</time>
      </trkpt>
      <trkpt lat="45.88929" lon="6.4266">
        <ele>1174.4</ele>
        <time>2013-02-19T15:46:12Z</time>
      </trkpt>
      <trkpt lat="45.88934" lon="6.42657">
        <ele>1174</ele>
        <time>2013-02-19T15:46:13Z</time>
      </trkpt>
      <trkpt lat="45.88939" lon="6.42655">
        <ele>1173.8</ele>
        <time>2013-02-19T15:46:14Z</time>
      </trkpt>
      <trkpt lat="45.88944" lon="6.42654">
        <ele>1173.5</ele>
        <time>2013-02-19T15:46:15Z</time>
      </trkpt>
      <trkpt lat="45.88948" lon="6.42652">
        <ele>1173.4</ele>
        <time>2013-02-19T15:46:16Z</time>
      </trkpt>
      <trkpt lat="45.88953" lon="6.42651">
        <ele>1173.3</ele>
        <time>2013-02-19T15:46:17Z</time>
      </trkpt>
      <trkpt lat="45.88957" lon="6.42649">
        <ele>1173.1</ele>
        <time>2013-02-19T15:46:18Z</time>
      </trkpt>
      <trkpt lat="45.88962" lon="6.42647">
        <ele>1173</ele>
        <time>2013-02-19T15:46:19Z</time>
      </trkpt>
      <trkpt lat="45.8897" lon="6.42643">
        <ele>1172.5</ele>
        <time>2013-02-19T15:46:21Z</time>
      </trkpt>
      <trkpt lat="45.88979" lon="6.42639">
        <ele>1172.1</ele>
        <time>2013-02-19T15:46:23Z</time>
      </trkpt>
      <trkpt lat="45.88983" lon="6.42637">
        <ele>1171.9</ele>
        <time>2013-02-19T15:46:24Z</time>
      </trkpt>
      <trkpt lat="45.88987" lon="6.42636">
        <ele>1171.5</ele>
        <time>2013-02-19T15:46:25Z</time>
      </trkpt>
      <trkpt lat="45.88992" lon="6.42633">
        <ele>1171</ele>
        <time>2013-02-19T15:46:26Z</time>
      </trkpt>
      <trkpt lat="45.88996" lon="6.42631">
        <ele>1170.6</ele>
        <time>2013-02-19T15:46:27Z</time>
      </trkpt>
      <trkpt lat="45.89001" lon="6.42628">
        <ele>1170.1</ele>
        <time>2013-02-19T15:46:28Z</time>
      </trkpt>
      <trkpt lat="45.89005" lon="6.42625">
        <ele>1169.8</ele>
        <time>2013-02-19T15:46:29Z</time>
      </trkpt>
      <trkpt lat="45.8901" lon="6.42622">
        <ele>1169.3</ele>
        <time>2013-02-19T15:46:30Z</time>
      </trkpt>
      <trkpt lat="45.89015" lon="6.42619">
        <ele>1168.6</ele>
        <time>2013-02-19T15:46:31Z</time>
      </trkpt>
      <trkpt lat="45.89021" lon="6.42617">
        <ele>1168</ele>
        <time>2013-02-19T15:46:32Z</time>
      </trkpt>
      <trkpt lat="45.89026" lon="6.42614">
        <ele>1167.3</ele>
        <time>2013-02-19T15:46:33Z</time>
      </trkpt>
      <trkpt lat="45.89032" lon="6.42611">
        <ele>1166.5</ele>
        <time>2013-02-19T15:46:34Z</time>
      </trkpt>
      <trkpt lat="45.89038" lon="6.42608">
        <ele>1165.8</ele>
        <time>2013-02-19T15:46:35Z</time>
      </trkpt>
      <trkpt lat="45.89044" lon="6.42605">
        <ele>1165</ele>
        <time>2013-02-19T15:46:36Z</time>
      </trkpt>
      <trkpt lat="45.89051" lon="6.42602">
        <ele>1164.5</ele>
        <time>2013-02-19T15:46:37Z</time>
      </trkpt>
      <trkpt lat="45.89057" lon="6.42599">
        <ele>1163.9</ele>
        <time>2013-02-19T15:46:38Z</time>
      </trkpt>
      <trkpt lat="45.89063" lon="6.42597">
        <ele>1163.3</ele>
        <time>2013-02-19T15:46:39Z</time>
      </trkpt>
      <trkpt lat="45.89069" lon="6.42595">
        <ele>1162.6</ele>
        <time>2013-02-19T15:46:40Z</time>
      </trkpt>
      <trkpt lat="45.89075" lon="6.42593">
        <ele>1162</ele>
        <time>2013-02-19T15:46:41Z</time>
      </trkpt>
      <trkpt lat="45.89082" lon="6.42591">
        <ele>1161.4</ele>
        <time>2013-02-19T15:46:42Z</time>
      </trkpt>
      <trkpt lat="45.89088" lon="6.42589">
        <ele>1160.8</ele>
        <time>2013-02-19T15:46:43Z</time>
      </trkpt>
      <trkpt lat="45.89094" lon="6.42586">
        <ele>1160.3</ele>
        <time>2013-02-19T15:46:44Z</time>
      </trkpt>
      <trkpt lat="45.891" lon="6.42584">
        <ele>1159.8</ele>
        <time>2013-02-19T15:46:45Z</time>
      </trkpt>
      <trkpt lat="45.89106" lon="6.42582">
        <ele>1159.3</ele>
        <time>2013-02-19T15:46:46Z</time>
      </trkpt>
      <trkpt lat="45.89112" lon="6.4258">
        <ele>1158.9</ele>
        <time>2013-02-19T15:46:47Z</time>
      </trkpt>
      <trkpt lat="45.89118" lon="6.42578">
        <ele>1158.5</ele>
        <time>2013-02-19T15:46:48Z</time>
      </trkpt>
      <trkpt lat="45.89123" lon="6.42576">
        <ele>1158</ele>
        <time>2013-02-19T15:46:49Z</time>
      </trkpt>
      <trkpt lat="45.89129" lon="6.42574">
        <ele>1157.5</ele>
        <time>2013-02-19T15:46:50Z</time>
      </trkpt>
      <trkpt lat="45.89134" lon="6.42571">
        <ele>1157</ele>
        <time>2013-02-19T15:46:51Z</time>
      </trkpt>
      <trkpt lat="45.8914" lon="6.42569">
        <ele>1156.5</ele>
        <time>2013-02-19T15:46:52Z</time>
      </trkpt>
      <trkpt lat="45.89145" lon="6.42567">
        <ele>1156</ele>
        <time>2013-02-19T15:46:53Z</time>
      </trkpt>
      <trkpt lat="45.89151" lon="6.42565">
        <ele>1155.5</ele>
        <time>2013-02-19T15:46:54Z</time>
      </trkpt>
      <trkpt lat="45.89156" lon="6.42563">
        <ele>1155.3</ele>
        <time>2013-02-19T15:46:55Z</time>
      </trkpt>
      <trkpt lat="45.89161" lon="6.42561">
        <ele>1154.9</ele>
        <time>2013-02-19T15:46:56Z</time>
      </trkpt>
      <trkpt lat="45.89167" lon="6.42559">
        <ele>1154.5</ele>
        <time>2013-02-19T15:46:57Z</time>
      </trkpt>
      <trkpt lat="45.89172" lon="6.42558">
        <ele>1154.3</ele>
        <time>2013-02-19T15:46:58Z</time>
      </trkpt>
      <trkpt lat="45.89176" lon="6.42556">
        <ele>1154</ele>
        <time>2013-02-19T15:46:59Z</time>
      </trkpt>
      <trkpt lat="45.89181" lon="6.42554">
        <ele>1153.8</ele>
        <time>2013-02-19T15:47:00Z</time>
      </trkpt>
      <trkpt lat="45.89186" lon="6.42552">
        <ele>1153.5</ele>
        <time>2013-02-19T15:47:01Z</time>
      </trkpt>
      <trkpt lat="45.89194" lon="6.42549">
        <ele>1153</ele>
        <time>2013-02-19T15:47:03Z</time>
      </trkpt>
      <trkpt lat="45.89199" lon="6.42547">
        <ele>1152.8</ele>
        <time>2013-02-19T15:47:04Z</time>
      </trkpt>
      <trkpt lat="45.89203" lon="6.42545">
        <ele>1152.5</ele>
        <time>2013-02-19T15:47:05Z</time>
      </trkpt>
      <trkpt lat="45.89208" lon="6.42543">
        <ele>1152.1</ele>
        <time>2013-02-19T15:47:06Z</time>
      </trkpt>
      <trkpt lat="45.89212" lon="6.42541">
        <ele>1151.8</ele>
        <time>2013-02-19T15:47:07Z</time>
      </trkpt>
      <trkpt lat="45.89217" lon="6.42538">
        <ele>1151.3</ele>
        <time>2013-02-19T15:47:08Z</time>
      </trkpt>
      <trkpt lat="45.89221" lon="6.42535">
        <ele>1150.9</ele>
        <time>2013-02-19T15:47:09Z</time>
      </trkpt>
      <trkpt lat="45.89226" lon="6.42533">
        <ele>1150.5</ele>
        <time>2013-02-19T15:47:10Z</time>
      </trkpt>
      <trkpt lat="45.89231" lon="6.4253">
        <ele>1150</ele>
        <time>2013-02-19T15:47:11Z</time>
      </trkpt>
      <trkpt lat="45.89236" lon="6.42528">
        <ele>1149.6</ele>
        <time>2013-02-19T15:47:12Z</time>
      </trkpt>
      <trkpt lat="45.89241" lon="6.42526">
        <ele>1149.1</ele>
        <time>2013-02-19T15:47:13Z</time>
      </trkpt>
      <trkpt lat="45.89247" lon="6.42524">
        <ele>1148.6</ele>
        <time>2013-02-19T15:47:14Z</time>
      </trkpt>
      <trkpt lat="45.89252" lon="6.42521">
        <ele>1148</ele>
        <time>2013-02-19T15:47:15Z</time>
      </trkpt>
      <trkpt lat="45.89258" lon="6.42518">
        <ele>1147.5</ele>
        <time>2013-02-19T15:47:16Z</time>
      </trkpt>
      <trkpt lat="45.89263" lon="6.42515">
        <ele>1147</ele>
        <time>2013-02-19T15:47:17Z</time>
      </trkpt>
      <trkpt lat="45.89269" lon="6.42513">
        <ele>1146.5</ele>
        <time>2013-02-19T15:47:18Z</time>
      </trkpt>
      <trkpt lat="45.89274" lon="6.4251">
        <ele>1146</ele>
        <time>2013-02-19T15:47:19Z</time>
      </trkpt>
      <trkpt lat="45.8928" lon="6.42507">
        <ele>1145.6</ele>
        <time>2013-02-19T15:47:20Z</time>
      </trkpt>
      <trkpt lat="45.89285" lon="6.42504">
        <ele>1145.1</ele>
        <time>2013-02-19T15:47:21Z</time>
      </trkpt>
      <trkpt lat="45.89291" lon="6.42502">
        <ele>1144.8</ele>
        <time>2013-02-19T15:47:22Z</time>
      </trkpt>
      <trkpt lat="45.89296" lon="6.42499">
        <ele>1144.4</ele>
        <time>2013-02-19T15:47:23Z</time>
      </trkpt>
      <trkpt lat="45.89302" lon="6.42497">
        <ele>1144</ele>
        <time>2013-02-19T15:47:24Z</time>
      </trkpt>
      <trkpt lat="45.89307" lon="6.42495">
        <ele>1143.5</ele>
        <time>2013-02-19T15:47:25Z</time>
      </trkpt>
      <trkpt lat="45.89313" lon="6.42493">
        <ele>1143</ele>
        <time>2013-02-19T15:47:26Z</time>
      </trkpt>
      <trkpt lat="45.89319" lon="6.42491">
        <ele>1142.5</ele>
        <time>2013-02-19T15:47:27Z</time>
      </trkpt>
      <trkpt lat="45.89325" lon="6.42489">
        <ele>1142</ele>
        <time>2013-02-19T15:47:28Z</time>
      </trkpt>
      <trkpt lat="45.89331" lon="6.42487">
        <ele>1141.4</ele>
        <time>2013-02-19T15:47:29Z</time>
      </trkpt>
      <trkpt lat="45.89337" lon="6.42486">
        <ele>1140.8</ele>
        <time>2013-02-19T15:47:30Z</time>
      </trkpt>
      <trkpt lat="45.89343" lon="6.42484">
        <ele>1140</ele>
        <time>2013-02-19T15:47:31Z</time>
      </trkpt>
      <trkpt lat="45.8935" lon="6.42483">
        <ele>1139.5</ele>
        <time>2013-02-19T15:47:32Z</time>
      </trkpt>
      <trkpt lat="45.89356" lon="6.42482">
        <ele>1138.9</ele>
        <time>2013-02-19T15:47:33Z</time>
      </trkpt>
      <trkpt lat="45.89363" lon="6.42481">
        <ele>1138.1</ele>
        <time>2013-02-19T15:47:34Z</time>
      </trkpt>
      <trkpt lat="45.89369" lon="6.4248">
        <ele>1137.5</ele>
        <time>2013-02-19T15:47:35Z</time>
      </trkpt>
      <trkpt lat="45.89375" lon="6.42478">
        <ele>1137</ele>
        <time>2013-02-19T15:47:36Z</time>
      </trkpt>
      <trkpt lat="45.89381" lon="6.42476">
        <ele>1136.5</ele>
        <time>2013-02-19T15:47:37Z</time>
      </trkpt>
      <trkpt lat="45.89387" lon="6.42474">
        <ele>1135.9</ele>
        <time>2013-02-19T15:47:38Z</time>
      </trkpt>
      <trkpt lat="45.89393" lon="6.42471">
        <ele>1135.4</ele>
        <time>2013-02-19T15:47:39Z</time>
      </trkpt>
      <trkpt lat="45.89398" lon="6.42468">
        <ele>1134.8</ele>
        <time>2013-02-19T15:47:40Z</time>
      </trkpt>
      <trkpt lat="45.89404" lon="6.42464">
        <ele>1133.9</ele>
        <time>2013-02-19T15:47:41Z</time>
      </trkpt>
      <trkpt lat="45.89411" lon="6.42463">
        <ele>1132.8</ele>
        <time>2013-02-19T15:47:42Z</time>
      </trkpt>
      <trkpt lat="45.89419" lon="6.42463">
        <ele>1131.4</ele>
        <time>2013-02-19T15:47:43Z</time>
      </trkpt>
      <trkpt lat="45.89427" lon="6.42463">
        <ele>1129.9</ele>
        <time>2013-02-19T15:47:44Z</time>
      </trkpt>
      <trkpt lat="45.89436" lon="6.42463">
        <ele>1128.5</ele>
        <time>2013-02-19T15:47:45Z</time>
      </trkpt>
      <trkpt lat="45.89444" lon="6.42466">
        <ele>1127.8</ele>
        <time>2013-02-19T15:47:46Z</time>
      </trkpt>
      <trkpt lat="45.89451" lon="6.4247">
        <ele>1127</ele>
        <time>2013-02-19T15:47:47Z</time>
      </trkpt>
      <trkpt lat="45.89457" lon="6.42472">
        <ele>1126.6</ele>
        <time>2013-02-19T15:47:48Z</time>
      </trkpt>
      <trkpt lat="45.89463" lon="6.42474">
        <ele>1126.4</ele>
        <time>2013-02-19T15:47:49Z</time>
      </trkpt>
      <trkpt lat="45.89469" lon="6.42478">
        <ele>1126.3</ele>
        <time>2013-02-19T15:47:50Z</time>
      </trkpt>
      <trkpt lat="45.89478" lon="6.42477">
        <ele>1126.1</ele>
        <time>2013-02-19T15:47:52Z</time>
      </trkpt>
      <trkpt lat="45.89485" lon="6.42478">
        <ele>1125.8</ele>
        <time>2013-02-19T15:47:54Z</time>
      </trkpt>
      <trkpt lat="45.89492" lon="6.42479">
        <ele>1125.4</ele>
        <time>2013-02-19T15:47:56Z</time>
      </trkpt>
      <trkpt lat="45.89499" lon="6.42478">
        <ele>1124.9</ele>
        <time>2013-02-19T15:47:58Z</time>
      </trkpt>
      <trkpt lat="45.89505" lon="6.42478">
        <ele>1124.5</ele>
        <time>2013-02-19T15:48:00Z</time>
      </trkpt>
      <trkpt lat="45.89508" lon="6.42478">
        <ele>1124.3</ele>
        <time>2013-02-19T15:48:01Z</time>
      </trkpt>
      <trkpt lat="45.89518" lon="6.42475">
        <ele>1123.4</ele>
        <time>2013-02-19T15:48:04Z</time>
      </trkpt>
      <trkpt lat="45.89526" lon="6.42472">
        <ele>1122.3</ele>
        <time>2013-02-19T15:48:07Z</time>
      </trkpt>
      <trkpt lat="45.89534" lon="6.42468">
        <ele>1121.1</ele>
        <time>2013-02-19T15:48:11Z</time>
      </trkpt>
      <trkpt lat="45.8954" lon="6.42463">
        <ele>1120</ele>
        <time>2013-02-19T15:48:15Z</time>
      </trkpt>
      <trkpt lat="45.89548" lon="6.42458">
        <ele>1119</ele>
        <time>2013-02-19T15:48:18Z</time>
      </trkpt>
      <trkpt lat="45.89553" lon="6.42455">
        <ele>1118</ele>
        <time>2013-02-19T15:48:20Z</time>
      </trkpt>
      <trkpt lat="45.89561" lon="6.42455">
        <ele>1116.5</ele>
        <time>2013-02-19T15:48:22Z</time>
      </trkpt>
      <trkpt lat="45.89568" lon="6.42448">
        <ele>1115.1</ele>
        <time>2013-02-19T15:48:24Z</time>
      </trkpt>
      <trkpt lat="45.89575" lon="6.42443">
        <ele>1114.4</ele>
        <time>2013-02-19T15:48:27Z</time>
      </trkpt>
      <trkpt lat="45.89582" lon="6.42437">
        <ele>1113.5</ele>
        <time>2013-02-19T15:48:30Z</time>
      </trkpt>
      <trkpt lat="45.89589" lon="6.42433">
        <ele>1113.5</ele>
        <time>2013-02-19T15:48:32Z</time>
      </trkpt>
      <trkpt lat="45.89595" lon="6.42428">
        <ele>1113.8</ele>
        <time>2013-02-19T15:48:34Z</time>
      </trkpt>
      <trkpt lat="45.89602" lon="6.42421">
        <ele>1114.1</ele>
        <time>2013-02-19T15:48:36Z</time>
      </trkpt>
      <trkpt lat="45.89611" lon="6.42417">
        <ele>1114.1</ele>
        <time>2013-02-19T15:48:38Z</time>
      </trkpt>
      <trkpt lat="45.89619" lon="6.42415">
        <ele>1114.5</ele>
        <time>2013-02-19T15:48:40Z</time>
      </trkpt>
      <trkpt lat="45.89626" lon="6.42417">
        <ele>1115.3</ele>
        <time>2013-02-19T15:48:42Z</time>
      </trkpt>
      <trkpt lat="45.89634" lon="6.42415">
        <ele>1115.6</ele>
        <time>2013-02-19T15:48:44Z</time>
      </trkpt>
      <trkpt lat="45.89641" lon="6.42412">
        <ele>1115.9</ele>
        <time>2013-02-19T15:48:46Z</time>
      </trkpt>
      <trkpt lat="45.89649" lon="6.42409">
        <ele>1116</ele>
        <time>2013-02-19T15:48:48Z</time>
      </trkpt>
      <trkpt lat="45.89657" lon="6.42406">
        <ele>1115.9</ele>
        <time>2013-02-19T15:48:50Z</time>
      </trkpt>
      <trkpt lat="45.89666" lon="6.42404">
        <ele>1115.3</ele>
        <time>2013-02-19T15:48:52Z</time>
      </trkpt>
      <trkpt lat="45.8967" lon="6.42402">
        <ele>1115</ele>
        <time>2013-02-19T15:48:53Z</time>
      </trkpt>
      <trkpt lat="45.89675" lon="6.424">
        <ele>1114.8</ele>
        <time>2013-02-19T15:48:54Z</time>
      </trkpt>
      <trkpt lat="45.8968" lon="6.42399">
        <ele>1114.5</ele>
        <time>2013-02-19T15:48:55Z</time>
      </trkpt>
      <trkpt lat="45.89688" lon="6.42396">
        <ele>1114.3</ele>
        <time>2013-02-19T15:48:57Z</time>
      </trkpt>
      <trkpt lat="45.89697" lon="6.42392">
        <ele>1114</ele>
        <time>2013-02-19T15:48:59Z</time>
      </trkpt>
      <trkpt lat="45.89701" lon="6.42389">
        <ele>1113.9</ele>
        <time>2013-02-19T15:49:00Z</time>
      </trkpt>
      <trkpt lat="45.89706" lon="6.42386">
        <ele>1113.9</ele>
        <time>2013-02-19T15:49:01Z</time>
      </trkpt>
      <trkpt lat="45.8971" lon="6.42384">
        <ele>1113.9</ele>
        <time>2013-02-19T15:49:02Z</time>
      </trkpt>
      <trkpt lat="45.89715" lon="6.42383">
        <ele>1113.8</ele>
        <time>2013-02-19T15:49:03Z</time>
      </trkpt>
      <trkpt lat="45.89721" lon="6.42384">
        <ele>1113.5</ele>
        <time>2013-02-19T15:49:04Z</time>
      </trkpt>
      <trkpt lat="45.89726" lon="6.42384">
        <ele>1113.1</ele>
        <time>2013-02-19T15:49:05Z</time>
      </trkpt>
      <trkpt lat="45.89731" lon="6.42384">
        <ele>1112.9</ele>
        <time>2013-02-19T15:49:06Z</time>
      </trkpt>
      <trkpt lat="45.89736" lon="6.42383">
        <ele>1112.5</ele>
        <time>2013-02-19T15:49:07Z</time>
      </trkpt>
      <trkpt lat="45.8974" lon="6.42379">
        <ele>1112</ele>
        <time>2013-02-19T15:49:08Z</time>
      </trkpt>
      <trkpt lat="45.89744" lon="6.42376">
        <ele>1111.6</ele>
        <time>2013-02-19T15:49:09Z</time>
      </trkpt>
      <trkpt lat="45.89749" lon="6.42372">
        <ele>1111.1</ele>
        <time>2013-02-19T15:49:10Z</time>
      </trkpt>
      <trkpt lat="45.89753" lon="6.42369">
        <ele>1110.8</ele>
        <time>2013-02-19T15:49:11Z</time>
      </trkpt>
      <trkpt lat="45.89758" lon="6.42366">
        <ele>1110.3</ele>
        <time>2013-02-19T15:49:12Z</time>
      </trkpt>
      <trkpt lat="45.89763" lon="6.42363">
        <ele>1109.6</ele>
        <time>2013-02-19T15:49:13Z</time>
      </trkpt>
      <trkpt lat="45.89769" lon="6.4236">
        <ele>1109</ele>
        <time>2013-02-19T15:49:14Z</time>
      </trkpt>
      <trkpt lat="45.89774" lon="6.42356">
        <ele>1108.5</ele>
        <time>2013-02-19T15:49:15Z</time>
      </trkpt>
      <trkpt lat="45.8978" lon="6.42352">
        <ele>1107.6</ele>
        <time>2013-02-19T15:49:16Z</time>
      </trkpt>
      <trkpt lat="45.89786" lon="6.42348">
        <ele>1107</ele>
        <time>2013-02-19T15:49:17Z</time>
      </trkpt>
      <trkpt lat="45.89792" lon="6.42344">
        <ele>1106.3</ele>
        <time>2013-02-19T15:49:18Z</time>
      </trkpt>
      <trkpt lat="45.89797" lon="6.42338">
        <ele>1105.6</ele>
        <time>2013-02-19T15:49:19Z</time>
      </trkpt>
      <trkpt lat="45.89803" lon="6.42333">
        <ele>1105</ele>
        <time>2013-02-19T15:49:20Z</time>
      </trkpt>
      <trkpt lat="45.89808" lon="6.42328">
        <ele>1104.5</ele>
        <time>2013-02-19T15:49:21Z</time>
      </trkpt>
      <trkpt lat="45.89814" lon="6.42325">
        <ele>1103.9</ele>
        <time>2013-02-19T15:49:22Z</time>
      </trkpt>
      <trkpt lat="45.89819" lon="6.42323">
        <ele>1103.5</ele>
        <time>2013-02-19T15:49:23Z</time>
      </trkpt>
      <trkpt lat="45.89825" lon="6.42322">
        <ele>1103</ele>
        <time>2013-02-19T15:49:24Z</time>
      </trkpt>
      <trkpt lat="45.89831" lon="6.42322">
        <ele>1102.6</ele>
        <time>2013-02-19T15:49:25Z</time>
      </trkpt>
      <trkpt lat="45.89836" lon="6.42321">
        <ele>1102.3</ele>
        <time>2013-02-19T15:49:26Z</time>
      </trkpt>
      <trkpt lat="45.89841" lon="6.42321">
        <ele>1102</ele>
        <time>2013-02-19T15:49:27Z</time>
      </trkpt>
      <trkpt lat="45.89846" lon="6.42321">
        <ele>1101.6</ele>
        <time>2013-02-19T15:49:28Z</time>
      </trkpt>
      <trkpt lat="45.89851" lon="6.4232">
        <ele>1101.4</ele>
        <time>2013-02-19T15:49:29Z</time>
      </trkpt>
      <trkpt lat="45.89856" lon="6.42319">
        <ele>1101.3</ele>
        <time>2013-02-19T15:49:30Z</time>
      </trkpt>
      <trkpt lat="45.89861" lon="6.42317">
        <ele>1101.1</ele>
        <time>2013-02-19T15:49:31Z</time>
      </trkpt>
      <trkpt lat="45.89866" lon="6.42315">
        <ele>1101</ele>
        <time>2013-02-19T15:49:32Z</time>
      </trkpt>
      <trkpt lat="45.89871" lon="6.42312">
        <ele>1100.6</ele>
        <time>2013-02-19T15:49:33Z</time>
      </trkpt>
      <trkpt lat="45.89875" lon="6.42308">
        <ele>1100.6</ele>
        <time>2013-02-19T15:49:34Z</time>
      </trkpt>
      <trkpt lat="45.89879" lon="6.42303">
        <ele>1100.6</ele>
        <time>2013-02-19T15:49:35Z</time>
      </trkpt>
      <trkpt lat="45.89883" lon="6.42298">
        <ele>1100.5</ele>
        <time>2013-02-19T15:49:36Z</time>
      </trkpt>
      <trkpt lat="45.89887" lon="6.42292">
        <ele>1100.5</ele>
        <time>2013-02-19T15:49:37Z</time>
      </trkpt>
      <trkpt lat="45.89891" lon="6.42285">
        <ele>1100.9</ele>
        <time>2013-02-19T15:49:38Z</time>
      </trkpt>
      <trkpt lat="45.89894" lon="6.42279">
        <ele>1101.3</ele>
        <time>2013-02-19T15:49:39Z</time>
      </trkpt>
      <trkpt lat="45.89898" lon="6.42274">
        <ele>1102</ele>
        <time>2013-02-19T15:49:40Z</time>
      </trkpt>
      <trkpt lat="45.89902" lon="6.4227">
        <ele>1102.6</ele>
        <time>2013-02-19T15:49:41Z</time>
      </trkpt>
      <trkpt lat="45.89907" lon="6.42268">
        <ele>1103.5</ele>
        <time>2013-02-19T15:49:42Z</time>
      </trkpt>
      <trkpt lat="45.89912" lon="6.42266">
        <ele>1104</ele>
        <time>2013-02-19T15:49:43Z</time>
      </trkpt>
      <trkpt lat="45.8992" lon="6.42263">
        <ele>1104.5</ele>
        <time>2013-02-19T15:49:45Z</time>
      </trkpt>
      <trkpt lat="45.89924" lon="6.4226">
        <ele>1104.5</ele>
        <time>2013-02-19T15:49:46Z</time>
      </trkpt>
      <trkpt lat="45.89928" lon="6.42255">
        <ele>1104.6</ele>
        <time>2013-02-19T15:49:47Z</time>
      </trkpt>
      <trkpt lat="45.89932" lon="6.42251">
        <ele>1104.8</ele>
        <time>2013-02-19T15:49:48Z</time>
      </trkpt>
      <trkpt lat="45.89936" lon="6.42247">
        <ele>1104.8</ele>
        <time>2013-02-19T15:49:49Z</time>
      </trkpt>
      <trkpt lat="45.8994" lon="6.42243">
        <ele>1104.5</ele>
        <time>2013-02-19T15:49:50Z</time>
      </trkpt>
      <trkpt lat="45.89947" lon="6.42236">
        <ele>1104.4</ele>
        <time>2013-02-19T15:49:52Z</time>
      </trkpt>
      <trkpt lat="45.89951" lon="6.42233">
        <ele>1104.6</ele>
        <time>2013-02-19T15:49:53Z</time>
      </trkpt>
      <trkpt lat="45.89955" lon="6.42229">
        <ele>1105</ele>
        <time>2013-02-19T15:49:54Z</time>
      </trkpt>
      <trkpt lat="45.89962" lon="6.42222">
        <ele>1105.5</ele>
        <time>2013-02-19T15:49:56Z</time>
      </trkpt>
      <trkpt lat="45.89966" lon="6.42219">
        <ele>1105.9</ele>
        <time>2013-02-19T15:49:57Z</time>
      </trkpt>
      <trkpt lat="45.8997" lon="6.42215">
        <ele>1106</ele>
        <time>2013-02-19T15:49:58Z</time>
      </trkpt>
      <trkpt lat="45.89974" lon="6.42211">
        <ele>1106.1</ele>
        <time>2013-02-19T15:49:59Z</time>
      </trkpt>
      <trkpt lat="45.89978" lon="6.42207">
        <ele>1106.3</ele>
        <time>2013-02-19T15:50:00Z</time>
      </trkpt>
      <trkpt lat="45.89984" lon="6.42198">
        <ele>1106.3</ele>
        <time>2013-02-19T15:50:02Z</time>
      </trkpt>
      <trkpt lat="45.89987" lon="6.42195">
        <ele>1106.1</ele>
        <time>2013-02-19T15:50:03Z</time>
      </trkpt>
      <trkpt lat="45.89997" lon="6.42184">
        <ele>1105.6</ele>
        <time>2013-02-19T15:50:06Z</time>
      </trkpt>
      <trkpt lat="45.90003" lon="6.42176">
        <ele>1105.1</ele>
        <time>2013-02-19T15:50:08Z</time>
      </trkpt>
      <trkpt lat="45.9001" lon="6.42167">
        <ele>1104.9</ele>
        <time>2013-02-19T15:50:10Z</time>
      </trkpt>
      <trkpt lat="45.90016" lon="6.42159">
        <ele>1104.6</ele>
        <time>2013-02-19T15:50:12Z</time>
      </trkpt>
      <trkpt lat="45.90022" lon="6.42151">
        <ele>1104.4</ele>
        <time>2013-02-19T15:50:14Z</time>
      </trkpt>
      <trkpt lat="45.90026" lon="6.42147">
        <ele>1104.1</ele>
        <time>2013-02-19T15:50:15Z</time>
      </trkpt>
      <trkpt lat="45.9003" lon="6.42143">
        <ele>1103.9</ele>
        <time>2013-02-19T15:50:16Z</time>
      </trkpt>
      <trkpt lat="45.90038" lon="6.42136">
        <ele>1103.5</ele>
        <time>2013-02-19T15:50:18Z</time>
      </trkpt>
      <trkpt lat="45.90045" lon="6.42129">
        <ele>1103</ele>
        <time>2013-02-19T15:50:20Z</time>
      </trkpt>
      <trkpt lat="45.90052" lon="6.42124">
        <ele>1102</ele>
        <time>2013-02-19T15:50:22Z</time>
      </trkpt>
      <trkpt lat="45.9006" lon="6.42119">
        <ele>1101</ele>
        <time>2013-02-19T15:50:24Z</time>
      </trkpt>
      <trkpt lat="45.90067" lon="6.42115">
        <ele>1100</ele>
        <time>2013-02-19T15:50:26Z</time>
      </trkpt>
      <trkpt lat="45.90074" lon="6.42112">
        <ele>1099</ele>
        <time>2013-02-19T15:50:28Z</time>
      </trkpt>
      <trkpt lat="45.9008" lon="6.4211">
        <ele>1097.8</ele>
        <time>2013-02-19T15:50:30Z</time>
      </trkpt>
      <trkpt lat="45.90087" lon="6.42107">
        <ele>1096.5</ele>
        <time>2013-02-19T15:50:32Z</time>
      </trkpt>
      <trkpt lat="45.90096" lon="6.42104">
        <ele>1095.3</ele>
        <time>2013-02-19T15:50:34Z</time>
      </trkpt>
      <trkpt lat="45.901" lon="6.42102">
        <ele>1094.5</ele>
        <time>2013-02-19T15:50:35Z</time>
      </trkpt>
      <trkpt lat="45.90104" lon="6.42101">
        <ele>1093.8</ele>
        <time>2013-02-19T15:50:36Z</time>
      </trkpt>
      <trkpt lat="45.90109" lon="6.42099">
        <ele>1093</ele>
        <time>2013-02-19T15:50:37Z</time>
      </trkpt>
      <trkpt lat="45.90114" lon="6.42097">
        <ele>1092.3</ele>
        <time>2013-02-19T15:50:38Z</time>
      </trkpt>
      <trkpt lat="45.90119" lon="6.42095">
        <ele>1091.5</ele>
        <time>2013-02-19T15:50:39Z</time>
      </trkpt>
      <trkpt lat="45.90124" lon="6.42093">
        <ele>1090.9</ele>
        <time>2013-02-19T15:50:40Z</time>
      </trkpt>
      <trkpt lat="45.90129" lon="6.42091">
        <ele>1090.1</ele>
        <time>2013-02-19T15:50:41Z</time>
      </trkpt>
      <trkpt lat="45.90135" lon="6.42088">
        <ele>1089.5</ele>
        <time>2013-02-19T15:50:42Z</time>
      </trkpt>
      <trkpt lat="45.9014" lon="6.42086">
        <ele>1088.6</ele>
        <time>2013-02-19T15:50:43Z</time>
      </trkpt>
      <trkpt lat="45.90146" lon="6.42084">
        <ele>1088</ele>
        <time>2013-02-19T15:50:44Z</time>
      </trkpt>
      <trkpt lat="45.90152" lon="6.42082">
        <ele>1087.1</ele>
        <time>2013-02-19T15:50:45Z</time>
      </trkpt>
      <trkpt lat="45.90158" lon="6.4208">
        <ele>1086.5</ele>
        <time>2013-02-19T15:50:46Z</time>
      </trkpt>
      <trkpt lat="45.90164" lon="6.42078">
        <ele>1085.5</ele>
        <time>2013-02-19T15:50:47Z</time>
      </trkpt>
      <trkpt lat="45.90169" lon="6.42075">
        <ele>1085</ele>
        <time>2013-02-19T15:50:48Z</time>
      </trkpt>
      <trkpt lat="45.90175" lon="6.42074">
        <ele>1084.3</ele>
        <time>2013-02-19T15:50:49Z</time>
      </trkpt>
      <trkpt lat="45.9018" lon="6.42073">
        <ele>1083.6</ele>
        <time>2013-02-19T15:50:50Z</time>
      </trkpt>
      <trkpt lat="45.90188" lon="6.42068">
        <ele>1083</ele>
        <time>2013-02-19T15:50:52Z</time>
      </trkpt>
      <trkpt lat="45.90195" lon="6.42065">
        <ele>1082.4</ele>
        <time>2013-02-19T15:50:55Z</time>
      </trkpt>
      <trkpt lat="45.90204" lon="6.42061">
        <ele>1081.4</ele>
        <time>2013-02-19T15:50:58Z</time>
      </trkpt>
      <trkpt lat="45.90212" lon="6.42057">
        <ele>1080.3</ele>
        <time>2013-02-19T15:51:01Z</time>
      </trkpt>
      <trkpt lat="45.90219" lon="6.42053">
        <ele>1079.1</ele>
        <time>2013-02-19T15:51:03Z</time>
      </trkpt>
      <trkpt lat="45.90223" lon="6.4205">
        <ele>1078.6</ele>
        <time>2013-02-19T15:51:04Z</time>
      </trkpt>
      <trkpt lat="45.90231" lon="6.42045">
        <ele>1077.3</ele>
        <time>2013-02-19T15:51:06Z</time>
      </trkpt>
      <trkpt lat="45.90238" lon="6.42037">
        <ele>1075.9</ele>
        <time>2013-02-19T15:51:08Z</time>
      </trkpt>
      <trkpt lat="45.90246" lon="6.42033">
        <ele>1074.5</ele>
        <time>2013-02-19T15:51:10Z</time>
      </trkpt>
      <trkpt lat="45.90254" lon="6.42028">
        <ele>1073.4</ele>
        <time>2013-02-19T15:51:12Z</time>
      </trkpt>
      <trkpt lat="45.90261" lon="6.42022">
        <ele>1072</ele>
        <time>2013-02-19T15:51:14Z</time>
      </trkpt>
      <trkpt lat="45.90268" lon="6.42015">
        <ele>1070.9</ele>
        <time>2013-02-19T15:51:17Z</time>
      </trkpt>
      <trkpt lat="45.90275" lon="6.42008">
        <ele>1069.6</ele>
        <time>2013-02-19T15:51:20Z</time>
      </trkpt>
      <trkpt lat="45.90283" lon="6.42001">
        <ele>1068.8</ele>
        <time>2013-02-19T15:51:23Z</time>
      </trkpt>
      <trkpt lat="45.90289" lon="6.41997">
        <ele>1068</ele>
        <time>2013-02-19T15:51:25Z</time>
      </trkpt>
      <trkpt lat="45.90294" lon="6.42005">
        <ele>1066.5</ele>
        <time>2013-02-19T15:51:27Z</time>
      </trkpt>
      <trkpt lat="45.90295" lon="6.42012">
        <ele>1065</ele>
        <time>2013-02-19T15:51:28Z</time>
      </trkpt>
      <trkpt lat="45.90296" lon="6.42022">
        <ele>1062.9</ele>
        <time>2013-02-19T15:51:29Z</time>
      </trkpt>
      <trkpt lat="45.90299" lon="6.42031">
        <ele>1060.9</ele>
        <time>2013-02-19T15:51:30Z</time>
      </trkpt>
      <trkpt lat="45.90301" lon="6.42042">
        <ele>1059</ele>
        <time>2013-02-19T15:51:31Z</time>
      </trkpt>
      <trkpt lat="45.90305" lon="6.42052">
        <ele>1057.4</ele>
        <time>2013-02-19T15:51:32Z</time>
      </trkpt>
      <trkpt lat="45.90307" lon="6.42063">
        <ele>1055.6</ele>
        <time>2013-02-19T15:51:33Z</time>
      </trkpt>
      <trkpt lat="45.90309" lon="6.42073">
        <ele>1054.5</ele>
        <time>2013-02-19T15:51:34Z</time>
      </trkpt>
      <trkpt lat="45.90313" lon="6.42083">
        <ele>1053.8</ele>
        <time>2013-02-19T15:51:35Z</time>
      </trkpt>
      <trkpt lat="45.90316" lon="6.42093">
        <ele>1053</ele>
        <time>2013-02-19T15:51:36Z</time>
      </trkpt>
      <trkpt lat="45.90318" lon="6.42103">
        <ele>1052.1</ele>
        <time>2013-02-19T15:51:37Z</time>
      </trkpt>
      <trkpt lat="45.90318" lon="6.42113">
        <ele>1051</ele>
        <time>2013-02-19T15:51:38Z</time>
      </trkpt>
      <trkpt lat="45.90317" lon="6.42123">
        <ele>1050</ele>
        <time>2013-02-19T15:51:39Z</time>
      </trkpt>
      <trkpt lat="45.90317" lon="6.42132">
        <ele>1048.6</ele>
        <time>2013-02-19T15:51:40Z</time>
      </trkpt>
      <trkpt lat="45.90314" lon="6.42141">
        <ele>1047.5</ele>
        <time>2013-02-19T15:51:41Z</time>
      </trkpt>
      <trkpt lat="45.9031" lon="6.42149">
        <ele>1046</ele>
        <time>2013-02-19T15:51:42Z</time>
      </trkpt>
      <trkpt lat="45.90312" lon="6.42161">
        <ele>1044.5</ele>
        <time>2013-02-19T15:51:44Z</time>
      </trkpt>
      <trkpt lat="45.90315" lon="6.42167">
        <ele>1043.9</ele>
        <time>2013-02-19T15:51:45Z</time>
      </trkpt>
      <trkpt lat="45.90316" lon="6.42174">
        <ele>1043.1</ele>
        <time>2013-02-19T15:51:46Z</time>
      </trkpt>
      <trkpt lat="45.90318" lon="6.42181">
        <ele>1042.5</ele>
        <time>2013-02-19T15:51:47Z</time>
      </trkpt>
      <trkpt lat="45.9032" lon="6.42188">
        <ele>1042.1</ele>
        <time>2013-02-19T15:51:48Z</time>
      </trkpt>
      <trkpt lat="45.90322" lon="6.42194">
        <ele>1041.8</ele>
        <time>2013-02-19T15:51:49Z</time>
      </trkpt>
      <trkpt lat="45.90324" lon="6.42201">
        <ele>1041.5</ele>
        <time>2013-02-19T15:51:50Z</time>
      </trkpt>
      <trkpt lat="45.90328" lon="6.42211">
        <ele>1041</ele>
        <time>2013-02-19T15:51:52Z</time>
      </trkpt>
      <trkpt lat="45.90334" lon="6.42219">
        <ele>1040.6</ele>
        <time>2013-02-19T15:51:56Z</time>
      </trkpt>
      <trkpt lat="45.90336" lon="6.42229">
        <ele>1041.5</ele>
        <time>2013-02-19T15:51:59Z</time>
      </trkpt>
      <trkpt lat="45.90342" lon="6.42237">
        <ele>1042.3</ele>
        <time>2013-02-19T15:52:04Z</time>
      </trkpt>
      <trkpt lat="45.90344" lon="6.42241">
        <ele>1042</ele>
        <time>2013-02-19T15:52:05Z</time>
      </trkpt>
      <trkpt lat="45.90354" lon="6.4224">
        <ele>1042.1</ele>
        <time>2013-02-19T15:52:09Z</time>
      </trkpt>
      <trkpt lat="45.90362" lon="6.42244">
        <ele>1042.1</ele>
        <time>2013-02-19T15:52:12Z</time>
      </trkpt>
      <trkpt lat="45.90371" lon="6.42241">
        <ele>1041.9</ele>
        <time>2013-02-19T15:52:16Z</time>
      </trkpt>
      <trkpt lat="45.90378" lon="6.42236">
        <ele>1040.9</ele>
        <time>2013-02-19T15:52:22Z</time>
      </trkpt>
      <trkpt lat="45.90385" lon="6.42228">
        <ele>1042.4</ele>
        <time>2013-02-19T15:52:29Z</time>
      </trkpt>
      <trkpt lat="45.9038" lon="6.42223">
        <ele>1038.1</ele>
        <time>2013-02-19T15:53:53Z</time>
      </trkpt>
      <trkpt lat="45.9038" lon="6.42223">
        <ele>1038.4</ele>
        <time>2013-02-19T15:53:54Z</time>
      </trkpt>
      <trkpt lat="45.9038" lon="6.42223">
        <ele>1038.4</ele>
        <time>2013-02-19T15:53:54Z</time>
      </trkpt>
      <trkpt lat="45.9038" lon="6.42224">
        <ele>1038.9</ele>
        <time>2013-02-19T15:53:57Z</time>
      </trkpt>
    </trkseg>
  </trk>
</gpx>